[[{"header":{"parameterUnit":"m.s-1","parameterCategory":1,"la1":31.0,"la2":29.5877,"lo1":-88.7671,"lo2":-86.6584,"dy":0.0162,"dx":0.0185,"nx":115,"ny":88,"refTime":"2023-06-17T18:00:00:Z","depth":0,"parameterNumber":2,"parameterNumberName":"U-component_of_WINDS"},"data":[0.0,0.0,0.0,0.0,0.0,0.0,0.0,0.0,0.0,0.0,0.0,0.0,0.0,0.0,0.0,0.0,0.0,0.0,0.0,0.0,0.0,0.0,0.0,0.0,0.0,0.0,0.0,0.0,0.0,0.0,0.0,0.0,0.0,0.0,0.0,0.0,0.0,0.0,0.0,0.0,0.0,0.0,0.0,0.0,0.0,0.0,0.0,0.0,0.0,0.0,0.0,0.0,0.0,0.0,0.0,0.0,0.0,0.0,0.0,0.0,0.0,0.0,0.0,0.0,0.0,0.0,0.0,0.0,0.0,0.0,0.0,0.0,0.0,0.0,0.0,0.0,0.0,0.0,0.0,0.0,0.0,0.0,0.0,0.0,0.0,0.0,0.0,0.0,0.0,0.0,0.0,0.0,0.0,0.0,0.0,0.0,0.0,0.0,0.0,0.0,0.0,0.0,0.0,0.0,0.0,0.0,0.0,0.0,0.0,0.0,0.0,0.0,0.0,0.0,0.0,0.0,0.0,0.0,0.0,0.0,0.0,0.0,0.0,0.0,0.0,0.0,0.0,0.0,0.0,0.0,0.0,0.0,0.0,0.0,0.0,0.0,0.0,0.0,0.0,0.0,0.0,0.0,0.0,0.0,0.0,0.0,0.0,0.0,0.0,0.0,0.0,0.0,0.0,0.0,0.0,0.0,0.0,0.0,0.0,0.0,0.0,0.0,0.0,0.0,0.0,0.0,0.0,0.0,0.0,0.0,0.0,0.0,0.0,0.0,0.0,0.0,0.0,0.0,0.0,0.0,0.0,0.0,0.0,0.0,0.0,0.0,0.0,0.0,0.0,0.0,0.0,0.0,0.0,0.0,0.0,0.0,0.0,0.0,0.0,0.0,0.0,0.0,0.0,0.0,0.0,0.0,0.0,0.0,0.0,0.0,0.0,0.0,0.0,0.0,0.0,0.0,0.0,0.0,0.0,0.0,0.0,0.0,0.0,0.0,0.0,0.0,0.0,0.0,0.0,0.0,0.0,0.0,0.0,0.0,0.0,0.0,0.0,0.0,0.0,0.0,0.0,0.0,0.0,0.0,0.0,0.0,0.0,0.0,0.0,0.0,0.0,0.0,0.0,0.0,0.0,0.0,0.0,0.0,0.0,0.0,0.0,0.0,0.0,0.0,0.0,0.0,0.0,0.0,0.0,0.0,0.0,0.0,0.0,0.0,0.0,0.0,0.0,0.0,0.0,0.0,0.0,0.0,0.0,0.0,0.0,0.0,0.0,0.0,0.0,0.0,0.0,0.0,0.0,0.0,0.0,0.0,0.0,0.0,0.0,0.0,0.0,0.0,0.0,0.0,0.0,0.0,0.0,0.0,0.0,0.0,0.0,0.0,0.0,0.0,0.0,0.0,0.0,0.0,0.0,0.0,0.0,0.0,0.0,0.0,0.0,0.0,0.0,0.0,0.0,0.0,0.0,0.0,0.0,0.0,0.0,0.0,0.0,0.0,0.0,0.0,0.0,0.0,0.0,0.0,0.0,0.0,0.0,0.0,0.0,0.0,0.0,0.0,0.0,0.0,0.0,0.0,0.0,0.0,0.0,0.0,0.0,0.0,0.0,0.0,0.0,0.0,0.0,0.0,0.0,0.0,0.0,0.0,0.0,0.0,0.0,0.0,0.0,0.0,0.0,0.0,0.0,0.0,0.0,0.0,0.0,0.0,0.0,0.0,0.0,0.0,0.0,0.0,0.0,0.0,0.0,0.0,0.0,0.0,0.0,0.0,0.0,0.0,0.0,0.0,0.0,0.0,0.0,0.0,0.0,0.0,0.0,0.0,0.0,0.0,0.0,0.0,0.0,0.0,0.0,0.0,0.0,0.0,0.0,0.0,0.0,0.0,0.0,0.0,0.0,0.0,0.0,0.0,0.0,0.0,0.0,0.0,0.0,0.0,0.0,0.0,0.0,0.0,0.0,0.0,0.0,0.0,0.0,0.0,0.0,0.0,0.0,0.0,0.0,0.0,0.0,0.0,0.0,0.0,0.0,0.0,0.0,0.0,0.0,0.0,0.0,0.0,0.0,0.0,0.0,0.0,0.0,0.0,0.0,0.0,0.0,0.0,0.0,0.0,0.0,0.0,0.0,0.0,0.0,0.0,0.0,0.0,0.0,0.0,0.0,0.0,0.0,0.0,0.0,0.0,0.0,0.0,0.0,0.0,0.0,0.0,0.0,0.0,0.0,0.0,0.0,0.0,0.0,0.0,0.0,0.0,0.0,0.0,0.0,0.0,0.0,0.0,0.0,0.0,0.0,0.0,0.0,0.0,0.0,0.0,0.0,0.0,0.0,0.0,0.0,0.0,0.0,0.0,0.0,0.0,0.0,0.0,0.0,0.0,0.0,0.0,0.0,0.0,0.0,0.0,0.0,0.0,0.0,0.0,0.0,0.0,0.0,0.0,0.0,0.0,0.0,0.0,0.0,0.0,0.0,0.0,0.0,0.0,0.0,0.0,0.0,0.0,0.0,0.0,0.0,0.0,0.0,0.0,0.0,0.0,0.0,0.0,0.0,0.0,0.0,0.0,0.0,0.0,0.0,0.0,0.0,0.0,0.0,0.0,0.0,0.0,0.0,0.0,0.0,0.0,0.0,0.0,0.0,0.0,0.0,0.0,0.0,0.0,0.0,0.0,0.0,0.0,0.0,0.0,0.0,0.0,0.0,0.0,0.0,0.0,0.0,0.0,0.0,0.0,0.0,0.0,0.0,0.0,0.0,0.0,0.0,0.0,0.0,0.0,0.0,0.0,0.0,0.0,0.0,0.0,0.0,0.0,0.0,0.0,0.0,0.0,0.0,0.0,0.0,0.0,0.0,0.0,0.0,0.0,0.0,0.0,0.0,0.0,0.0,0.0,0.0,0.0,0.0,0.0,0.0,0.0,0.0,0.0,0.0,0.0,0.0,0.0,0.0,0.0,0.0,0.0,0.0,0.0,0.0,0.0,0.0,0.0,0.0,0.0,0.0,0.0,0.0,0.0,0.0,0.0,0.0,0.0,0.0,0.0,0.0,0.0,0.0,0.0,0.0,0.0,0.0,0.0,0.0,0.0,0.0,0.0,0.0,0.0,0.0,0.0,0.0,0.0,0.0,0.0,0.0,0.0,0.0,0.0,0.0,0.0,0.0,0.0,0.0,0.0,0.0,0.0,0.0,0.0,0.0,0.0,0.0,0.0,0.0,0.0,0.0,0.0,0.0,0.0,0.0,0.0,0.0,0.0,0.0,0.0,0.0,0.0,0.0,0.0,0.0,0.0,0.0,0.0,0.0,0.0,0.0,0.0,0.0,0.0,0.0,0.0,0.0,0.0,0.0,0.0,0.0,0.0,0.0,0.0,0.0,0.0,0.0,0.0,0.0,0.0,0.0,0.0,0.0,0.0,0.0,0.0,0.0,0.0,0.0,0.0,0.0,0.0,0.0,0.0,0.0,0.0,0.0,0.0,0.0,0.0,0.0,0.0,0.0,0.0,0.0,0.0,0.0,0.0,0.0,0.0,0.0,0.0,0.0,0.0,0.0,0.0,0.0,0.0,0.0,0.0,0.0,0.0,0.0,0.0,0.0,0.0,0.0,0.0,0.0,0.0,0.0,0.0,0.0,0.0,0.0,0.0,0.0,0.0,0.0,0.0,0.0,0.0,0.0,0.0,0.0,0.0,0.0,0.0,0.0,0.0,0.0,0.0,0.0,0.0,0.0,0.0,0.0,0.0,0.0,0.0,0.0,0.0,0.0,0.0,0.0,0.0,0.0,0.0,0.0,0.0,0.0,0.0,0.0,0.0,0.0,0.0,0.0,0.0,0.0,0.0,0.0,0.0,0.0,0.0,0.0,0.0,0.0,0.0,0.0,0.0,0.0,0.0,0.0,0.0,0.0,0.0,0.0,0.0,0.0,0.0,0.0,0.0,0.0,0.0,0.0,0.0,0.0,0.0,0.0,0.0,0.0,0.0,0.0,0.0,0.0,0.0,0.0,0.0,0.0,0.0,0.0,0.0,0.0,0.0,0.0,0.0,0.0,0.0,0.0,0.0,0.0,0.0,0.0,0.0,0.0,0.0,0.0,0.0,0.0,0.0,0.0,0.0,0.0,0.0,0.0,0.0,0.0,0.0,0.0,0.0,0.0,0.0,0.0,0.0,0.0,0.0,0.0,0.0,0.0,0.0,0.0,0.0,0.0,0.0,0.0,0.0,0.0,0.0,0.0,0.0,0.0,0.0,0.0,0.0,0.0,0.0,0.0,0.0,3.2788,0.0,0.0,0.0,0.0,0.0,0.0,0.0,0.0,0.0,0.0,0.0,0.0,0.0,0.0,0.0,0.0,0.0,0.0,0.0,0.0,0.0,0.0,0.0,0.0,0.0,0.0,0.0,0.0,0.0,0.0,0.0,0.0,0.0,0.0,0.0,0.0,0.0,0.0,0.0,0.0,0.0,0.0,0.0,0.0,0.0,0.0,0.0,0.0,0.0,0.0,0.0,0.0,0.0,0.0,0.0,0.0,0.0,0.0,0.0,0.0,0.0,0.0,0.0,0.0,0.0,0.0,0.0,0.0,0.0,0.0,0.0,0.0,0.0,0.0,0.0,0.0,0.0,0.0,0.0,0.0,0.0,0.0,0.0,0.0,0.0,0.0,0.0,0.0,0.0,0.0,0.0,0.0,0.0,0.0,0.0,0.0,0.0,0.0,0.0,0.0,0.0,0.0,0.0,0.0,0.0,0.0,0.0,0.0,0.0,0.0,3.5504,3.4801,3.3508,3.2322,3.1435,0.0,0.0,0.0,0.0,0.0,0.0,0.0,0.0,0.0,0.0,0.0,0.0,0.0,0.0,0.0,0.0,0.0,0.0,0.0,0.0,0.0,0.0,0.0,0.0,0.0,0.0,0.0,0.0,0.0,0.0,0.0,0.0,0.0,0.0,0.0,0.0,0.0,0.0,0.0,0.0,0.0,0.0,0.0,0.0,0.0,0.0,0.0,0.0,0.0,0.0,0.0,0.0,0.0,0.0,0.0,0.0,0.0,0.0,0.0,0.0,0.0,0.0,0.0,0.0,0.0,0.0,0.0,0.0,0.0,0.0,0.0,0.0,0.0,0.0,0.0,0.0,0.0,0.0,0.0,0.0,0.0,0.0,0.0,0.0,0.0,0.0,0.0,0.0,0.0,0.0,0.0,0.0,0.0,0.0,0.0,0.0,0.0,0.0,0.0,0.0,0.0,0.0,0.0,0.0,0.0,0.0,0.0,0.0,0.0,0.0,0.0,0.0,3.2121,3.0881,3.0058,0.0,0.0,0.0,0.0,0.0,0.0,0.0,0.0,0.0,0.0,0.0,0.0,0.0,0.0,0.0,0.0,0.0,0.0,0.0,0.0,0.0,0.0,0.0,0.0,0.0,0.0,0.0,0.0,0.0,0.0,0.0,0.0,0.0,0.0,0.0,0.0,0.0,0.0,0.0,0.0,0.0,0.0,0.0,0.0,0.0,0.0,0.0,0.0,0.0,0.0,0.0,0.0,0.0,0.0,0.0,0.0,0.0,0.0,0.0,0.0,0.0,0.0,0.0,0.0,0.0,0.0,0.0,0.0,0.0,0.0,0.0,0.0,0.0,0.0,0.0,0.0,0.0,0.0,0.0,0.0,0.0,0.0,0.0,0.0,0.0,0.0,0.0,0.0,0.0,0.0,0.0,0.0,0.0,0.0,0.0,0.0,0.0,0.0,0.0,0.0,0.0,0.0,0.0,0.0,0.0,0.0,0.0,0.0,0.0,0.0,3.3678,3.1641,3.1357,0.0,2.924,0.0,0.0,0.0,0.0,0.0,0.0,0.0,0.0,0.0,0.0,0.0,0.0,0.0,0.0,0.0,0.0,0.0,0.0,0.0,0.0,0.0,0.0,0.0,0.0,0.0,0.0,0.0,0.0,0.0,0.0,0.0,0.0,0.0,0.0,0.0,0.0,0.0,0.0,0.0,0.0,0.0,0.0,0.0,0.0,0.0,0.0,0.0,0.0,0.0,0.0,0.0,0.0,0.0,0.0,0.0,0.0,0.0,0.0,0.0,0.0,0.0,0.0,0.0,0.0,0.0,0.0,0.0,0.0,0.0,0.0,0.0,0.0,0.0,0.0,0.0,0.0,0.0,0.0,0.0,0.0,0.0,0.0,0.0,0.0,0.0,0.0,0.0,0.0,0.0,0.0,0.0,0.0,0.0,0.0,0.0,0.0,0.0,0.0,0.0,0.0,0.0,0.0,0.0,0.0,0.0,0.0,0.0,0.0,0.0,0.0,3.1708,2.9654,2.8816,2.7826,0.0,0.0,0.0,0.0,0.0,0.0,0.0,0.0,0.0,0.0,0.0,0.0,0.0,0.0,0.0,0.0,0.0,0.0,0.0,0.0,0.0,0.0,0.0,0.0,0.0,0.0,0.0,0.0,0.0,0.0,0.0,0.0,0.0,0.0,0.0,0.0,0.0,0.0,0.0,0.0,0.0,0.0,0.0,0.0,0.0,0.0,0.0,0.0,0.0,0.0,0.0,0.0,0.0,0.0,0.0,0.0,0.0,0.0,0.0,0.0,0.0,0.0,0.0,0.0,0.0,0.0,0.0,0.0,0.0,0.0,0.0,0.0,0.0,0.0,0.0,0.0,0.0,0.0,0.0,0.0,0.0,0.0,0.0,0.0,0.0,0.0,0.0,0.0,0.0,0.0,0.0,0.0,0.0,0.0,0.0,0.0,0.0,0.0,0.0,0.0,0.0,0.0,0.0,0.0,0.0,0.0,0.0,0.0,0.0,0.0,3.1207,2.9458,2.7157,2.5803,2.4779,2.4146,0.0,0.0,0.0,0.0,0.0,0.0,0.0,0.0,0.0,0.0,0.0,0.0,0.0,0.0,0.0,0.0,0.0,0.0,0.0,0.0,0.0,0.0,0.0,0.0,0.0,0.0,0.0,0.0,0.0,0.0,0.0,0.0,0.0,0.0,0.0,0.0,0.0,0.0,0.0,0.0,0.0,0.0,0.0,0.0,0.0,0.0,0.0,0.0,0.0,0.0,0.0,0.0,0.0,0.0,0.0,0.0,0.0,0.0,0.0,0.0,0.0,0.0,0.0,0.0,0.0,0.0,0.0,0.0,0.0,0.0,0.0,0.0,0.0,0.0,0.0,0.0,0.0,0.0,0.0,0.0,0.0,0.0,0.0,0.0,0.0,0.0,0.0,0.0,0.0,0.0,0.0,0.0,0.0,0.0,0.0,0.0,0.0,0.0,0.0,0.0,0.0,0.0,0.0,0.0,0.0,0.0,0.0,0.0,3.0145,2.9139,2.6961,2.3587,2.2548,2.2083,0.0,0.0,0.0,0.0,0.0,0.0,0.0,0.0,0.0,0.0,0.0,0.0,0.0,0.0,0.0,0.0,0.0,0.0,0.0,0.0,0.0,0.0,0.0,0.0,0.0,0.0,0.0,0.0,0.0,0.0,0.0,0.0,0.0,0.0,0.0,0.0,0.0,0.0,0.0,0.0,0.0,0.0,0.0,0.0,0.0,0.0,0.0,0.0,0.0,0.0,0.0,0.0,0.0,0.0,0.0,0.0,0.0,0.0,0.0,0.0,0.0,0.0,0.0,0.0,0.0,0.0,0.0,0.0,0.0,0.0,0.0,0.0,0.0,0.0,0.0,0.0,0.0,0.0,0.0,0.0,0.0,0.0,0.0,0.0,0.0,0.0,0.0,0.0,0.0,0.0,0.0,0.0,0.0,0.0,0.0,0.0,0.0,0.0,0.0,0.0,0.0,0.0,0.0,0.0,0.0,0.0,0.0,0.0,0.0,2.8162,2.435,2.1639,2.0407,2.0014,2.0206,0.0,0.0,0.0,0.0,0.0,0.0,0.0,0.0,0.0,0.0,0.0,0.0,0.0,0.0,0.0,0.0,0.0,0.0,0.0,0.0,0.0,0.0,0.0,0.0,0.0,0.0,0.0,0.0,0.0,0.0,0.0,0.0,0.0,0.0,0.0,0.0,0.0,0.0,0.0,0.0,0.0,0.0,0.0,0.0,0.0,0.0,0.0,0.0,0.0,0.0,0.0,0.0,0.0,0.0,0.0,0.0,0.0,0.0,0.0,0.0,0.0,0.0,0.0,0.0,0.0,0.0,0.0,0.0,0.0,0.0,0.0,0.0,0.0,0.0,0.0,0.0,0.0,0.0,0.0,0.0,0.0,0.0,0.0,0.0,0.0,0.0,0.0,0.0,0.0,0.0,0.0,0.0,0.0,0.0,0.0,0.0,0.0,0.0,0.0,0.0,0.0,0.0,0.0,0.0,0.0,0.0,0.0,0.0,0.0,2.456,0.0,1.7732,1.6734,1.6605,1.6926,0.0,0.0,0.0,0.0,0.0,0.0,0.0,0.0,0.0,0.0,0.0,0.0,0.0,0.0,0.0,0.0,0.0,0.0,0.0,0.0,0.0,0.0,0.0,0.0,0.0,0.0,0.0,0.0,0.0,0.0,0.0,0.0,0.0,0.0,0.0,0.0,0.0,0.0,0.0,0.0,0.0,0.0,0.0,0.0,0.0,0.0,0.0,0.0,0.0,0.0,0.0,0.0,0.0,0.0,0.0,0.0,0.0,0.0,0.0,0.0,0.0,0.0,0.0,0.0,0.0,0.0,0.0,0.0,0.0,0.0,0.0,0.0,0.0,0.0,0.0,0.0,0.0,0.0,0.0,0.0,0.0,0.0,0.0,0.0,0.0,0.0,0.0,0.0,0.0,0.0,0.0,0.0,0.0,0.0,0.0,0.0,0.0,0.0,0.0,0.0,0.0,0.0,0.0,0.0,0.0,0.0,0.0,0.0,2.3632,1.8935,1.7522,1.5286,1.2301,1.2216,1.2222,0.0,0.0,0.0,0.0,0.0,0.0,0.0,0.0,0.0,0.0,0.0,0.0,0.0,0.0,0.0,0.0,0.0,0.0,0.0,0.0,0.0,0.0,0.0,0.0,0.0,0.0,0.0,0.0,0.0,0.0,0.0,0.0,0.0,0.0,0.0,0.0,0.0,0.0,0.0,0.0,0.0,0.0,0.0,0.0,0.0,0.0,0.0,0.0,0.0,0.0,0.0,0.0,0.0,0.0,0.0,0.0,0.0,0.0,0.0,0.0,0.0,0.0,0.0,0.0,0.0,0.0,0.0,0.0,0.0,0.0,0.0,0.0,0.0,0.0,0.0,0.0,0.0,0.0,0.0,0.0,0.0,0.0,0.0,0.0,0.0,0.0,0.0,0.0,0.0,0.0,0.0,0.0,0.0,0.0,0.0,0.0,0.0,0.0,0.0,0.0,0.0,0.0,0.0,0.0,0.0,0.0,0.0,0.0,0.0,1.5219,1.264,1.0424,0.8673,0.8562,0.897,0.0,0.0,0.0,0.0,0.0,0.0,0.0,0.0,0.0,0.0,0.0,0.0,0.0,0.0,0.0,0.0,0.0,0.0,0.0,0.0,0.0,0.0,0.0,0.0,0.0,0.0,0.0,0.0,0.0,0.0,0.0,0.0,0.0,0.0,0.0,0.0,0.0,0.0,0.0,0.0,0.0,0.0,0.0,0.0,0.0,0.0,0.0,0.0,0.0,0.0,0.0,0.0,0.0,0.0,0.0,0.0,0.0,0.0,0.0,0.0,0.0,0.0,0.0,0.0,0.0,0.0,0.0,0.0,0.0,0.0,0.0,0.0,0.0,0.0,0.0,0.0,0.0,0.0,0.0,0.0,0.0,0.0,0.0,0.0,0.0,0.0,0.0,0.0,0.0,0.0,0.0,0.0,0.0,0.0,0.0,0.0,0.0,0.0,0.0,0.0,0.0,0.0,0.0,0.0,0.0,0.0,0.0,0.0,0.0,0.9181,0.7647,0.6228,0.5112,0.501,0.5165,0.5491,0.0,0.0,0.0,0.0,0.0,0.0,0.0,0.0,0.0,0.0,0.0,0.0,0.0,0.0,0.0,0.0,0.0,0.0,0.0,0.0,0.0,0.0,0.0,0.0,0.0,0.0,0.0,0.0,0.0,0.0,0.0,0.0,0.0,0.0,0.0,0.0,0.0,0.0,0.0,0.0,0.0,0.0,0.0,0.0,0.0,0.0,0.0,0.0,0.0,0.0,0.0,0.0,0.0,0.0,0.0,0.0,0.0,0.0,0.0,0.0,0.0,0.0,0.0,0.0,0.0,0.0,0.0,0.0,0.0,0.0,0.0,0.0,0.0,0.0,0.0,0.0,0.0,0.0,0.0,0.0,0.0,0.0,0.0,0.0,0.0,0.0,0.0,0.0,0.0,0.0,0.0,0.0,0.0,0.0,0.0,0.0,0.0,0.0,0.0,0.0,0.0,0.0,0.0,0.0,0.0,0.0,0.0,0.0,0.1498,0.2374,0.238,0.151,0.1421,0.0798,0.0,0.0,0.0,0.0,0.0,0.0,0.0,0.0,0.0,0.0,0.0,0.0,0.0,0.0,0.0,0.0,0.0,0.0,0.0,0.0,0.0,0.0,0.0,0.0,0.0,0.0,0.0,0.0,0.0,0.0,0.0,0.0,0.0,0.0,0.0,0.0,0.0,0.0,0.0,0.0,0.0,0.0,0.0,0.0,0.0,0.0,0.0,0.0,0.0,0.0,0.0,0.0,0.0,0.0,0.0,0.0,0.0,0.0,0.0,0.0,0.0,0.0,0.0,0.0,0.0,0.0,0.0,0.0,0.0,0.0,0.0,0.0,0.0,0.0,0.0,0.0,0.0,0.0,0.0,0.0,0.0,0.0,0.0,0.0,0.0,0.0,0.0,0.0,0.0,0.0,0.0,0.0,0.0,0.0,0.0,0.0,0.0,0.0,0.0,0.0,0.0,0.0,0.0,0.0,0.0,0.0,0.0,0.0,0.0,-0.1933,-0.3519,-0.3622,-0.2314,-0.3016,-0.4082,0.0,0.0,0.0,0.0,0.0,0.0,0.0,0.0,0.0,0.0,0.0,0.0,0.0,0.0,0.0,0.0,0.0,0.0,0.0,0.0,0.0,0.0,0.0,0.0,0.0,0.0,0.0,0.0,0.0,0.0,0.0,0.0,0.0,0.0,0.0,0.0,0.0,0.0,0.0,0.0,0.0,0.0,0.0,0.0,0.0,0.0,0.0,0.0,0.0,0.0,0.0,0.0,0.0,0.0,0.0,0.0,0.0,0.0,0.0,0.0,0.0,0.0,0.0,0.0,0.0,0.0,0.0,0.0,0.0,0.0,0.0,0.0,0.0,0.0,0.0,0.0,0.0,0.0,0.0,0.0,0.0,0.0,0.0,0.0,0.0,0.0,0.0,0.0,0.0,0.0,0.0,0.0,0.0,0.0,0.0,0.0,0.0,0.0,0.0,0.0,0.0,0.0,0.0,0.0,0.0,0.0,0.0,0.0,-0.0793,-0.4937,-0.7316,-0.8233,-0.7496,-0.7156,-0.7886,0.0,0.0,0.0,0.0,0.0,0.0,0.0,0.0,0.0,0.0,0.0,0.0,0.0,0.0,0.0,0.0,0.0,0.0,0.0,0.0,0.0,0.0,0.0,0.0,0.0,0.0,0.0,0.0,0.0,0.0,0.0,0.0,0.0,0.0,0.0,0.0,0.0,0.0,0.0,0.0,0.0,0.0,0.0,0.0,0.0,0.0,0.0,0.0,0.0,0.0,0.0,0.0,0.0,0.0,0.0,0.0,0.0,0.0,0.0,0.0,0.0,0.0,0.0,0.0,0.0,0.0,0.0,0.0,0.0,0.0,0.0,0.0,0.0,0.0,0.0,0.0,0.0,0.0,0.0,0.0,0.0,0.0,0.0,0.0,0.0,0.0,0.0,0.0,0.0,0.0,0.0,0.0,0.0,0.0,0.0,0.0,0.0,0.0,0.0,0.0,0.0,0.0,0.0,0.0,0.0,0.0,0.0,0.0,-0.4865,-0.7439,-0.9957,-1.1877,-1.315,-1.0962,-1.0967,0.0,0.0,0.0,0.0,0.0,0.0,0.0,0.0,0.0,0.0,0.0,0.0,0.0,0.0,0.0,0.0,0.0,0.0,0.0,0.0,0.0,0.0,0.0,0.0,0.0,0.0,0.0,0.0,0.0,0.0,0.0,0.0,0.0,0.0,0.0,0.0,0.0,0.0,0.0,0.0,0.0,0.0,0.0,0.0,0.0,0.0,0.0,0.0,0.0,0.0,0.0,0.0,0.0,0.0,0.0,0.0,0.0,0.0,0.0,0.0,0.0,0.0,0.0,0.0,0.0,0.0,0.0,0.0,0.0,0.0,0.0,0.0,0.0,0.0,0.0,0.0,0.0,0.0,0.0,0.0,0.0,0.0,0.0,0.0,0.0,0.0,0.0,0.0,0.0,0.0,0.0,0.0,0.0,0.0,0.0,0.0,0.0,0.0,0.0,0.0,0.0,0.0,0.0,0.0,0.0,0.0,0.0,0.0,-0.5635,-0.9812,-1.3782,-1.576,-1.5547,-1.3293,-1.4642,0.0,0.0,0.0,0.0,0.0,0.0,0.0,0.0,0.0,0.0,0.0,0.0,0.0,0.0,0.0,0.0,0.0,0.0,0.0,0.0,0.0,0.0,0.0,0.0,0.0,0.0,0.0,0.0,0.0,0.0,0.0,0.0,0.0,0.0,0.0,0.0,0.0,0.0,0.0,0.0,0.0,0.0,0.0,0.0,0.0,0.0,0.0,0.0,-3.7764,0.0,0.0,0.0,0.0,0.0,0.0,0.0,0.0,0.0,0.0,0.0,0.0,0.0,0.0,0.0,0.0,0.0,0.0,0.0,0.0,0.0,0.0,0.0,0.0,0.0,0.0,0.0,0.0,0.0,0.0,0.0,0.0,0.0,0.0,0.0,0.0,0.0,0.0,0.0,0.0,0.0,0.0,0.0,0.0,0.0,0.0,0.0,0.0,0.0,0.0,0.0,0.0,0.0,0.0,0.0,0.0,0.0,0.0,0.0,-0.7625,-1.0762,-1.4269,-1.6503,-1.7494,-1.644,-1.8091,0.0,0.0,0.0,0.0,0.0,0.0,0.0,0.0,0.0,0.0,0.0,0.0,0.0,0.0,0.0,0.0,0.0,0.0,0.0,0.0,0.0,0.0,0.0,0.0,0.0,0.0,0.0,0.0,0.0,0.0,0.0,0.0,0.0,0.0,0.0,0.0,0.0,0.0,0.0,0.0,0.0,0.0,0.0,0.0,0.0,0.0,0.0,0.0,0.0,0.0,0.0,0.0,0.0,0.0,0.0,0.0,0.0,0.0,0.0,0.0,0.0,0.0,0.0,0.0,0.0,0.0,0.0,0.0,0.0,0.0,0.0,0.0,0.0,0.0,0.0,0.0,0.0,0.0,0.0,0.0,0.0,0.0,0.0,0.0,0.0,0.0,0.0,0.0,0.0,0.0,0.0,0.0,0.0,0.0,0.0,0.0,0.0,0.0,0.0,0.0,0.0,0.0,0.0,0.0,0.0,0.0,0.0,-0.8189,-0.9953,-1.1634,-1.4041,-1.6613,-1.9289,-1.9402,-2.1105,-2.4792,0.0,0.0,0.0,0.0,0.0,0.0,0.0,0.0,0.0,0.0,0.0,0.0,0.0,0.0,0.0,0.0,0.0,0.0,0.0,0.0,0.0,0.0,0.0,0.0,0.0,0.0,0.0,0.0,0.0,0.0,0.0,0.0,0.0,0.0,0.0,0.0,0.0,0.0,-3.5067,-3.5691,0.0,0.0,0.0,0.0,0.0,0.0,0.0,0.0,-3.9247,0.0,0.0,0.0,0.0,0.0,0.0,0.0,0.0,0.0,0.0,0.0,0.0,0.0,0.0,0.0,0.0,0.0,0.0,0.0,0.0,0.0,0.0,0.0,0.0,0.0,0.0,0.0,0.0,0.0,0.0,0.0,0.0,0.0,0.0,0.0,0.0,0.0,0.0,0.0,0.0,0.0,0.0,0.0,0.0,0.0,0.0,0.0,0.0,0.0,0.0,0.0,0.0,0.0,0.0,0.0,0.0,-0.9735,-1.0095,-1.1494,-1.3976,-1.7093,-1.9314,-2.0524,-2.0533,-2.3298,-2.8975,0.0,0.0,0.0,0.0,0.0,0.0,0.0,0.0,0.0,0.0,0.0,0.0,0.0,0.0,0.0,0.0,0.0,0.0,0.0,0.0,0.0,0.0,0.0,0.0,0.0,0.0,0.0,0.0,0.0,0.0,0.0,0.0,0.0,0.0,0.0,0.0,0.0,0.0,0.0,-3.3862,-3.4359,0.0,0.0,0.0,0.0,0.0,0.0,0.0,0.0,-3.9813,0.0,0.0,0.0,0.0,0.0,0.0,0.0,0.0,0.0,0.0,0.0,0.0,0.0,0.0,0.0,0.0,0.0,0.0,0.0,0.0,0.0,0.0,0.0,0.0,0.0,0.0,0.0,0.0,0.0,0.0,0.0,0.0,0.0,0.0,0.0,0.0,0.0,0.0,0.0,0.0,0.0,0.0,0.0,0.0,0.0,0.0,0.0,0.0,0.0,0.0,0.0,0.0,0.0,0.0,0.0,-1.163,-1.1553,-1.2697,-1.5028,-1.8177,-2.0245,-2.1083,-2.2217,-2.5418,0.0,0.0,0.0,0.0,0.0,0.0,0.0,0.0,0.0,0.0,0.0,0.0,0.0,0.0,0.0,0.0,0.0,0.0,0.0,0.0,0.0,0.0,0.0,0.0,0.0,0.0,0.0,0.0,0.0,0.0,0.0,0.0,0.0,0.0,0.0,0.0,0.0,0.0,0.0,0.0,-3.4192,-3.4595,-3.4008,0.0,0.0,0.0,0.0,0.0,0.0,-3.8696,-3.9456,0.0,0.0,0.0,0.0,0.0,0.0,0.0,0.0,0.0,0.0,0.0,0.0,0.0,0.0,0.0,0.0,0.0,0.0,0.0,0.0,0.0,0.0,0.0,0.0,0.0,0.0,0.0,0.0,0.0,0.0,0.0,0.0,0.0,0.0,0.0,0.0,0.0,0.0,0.0,0.0,0.0,0.0,0.0,0.0,0.0,0.0,0.0,0.0,0.0,0.0,0.0,0.0,0.0,0.0,0.0,-1.3697,-1.3209,-1.4091,-1.6523,-1.9297,-2.1038,-2.1649,-2.3501,-2.6703,0.0,0.0,0.0,0.0,0.0,0.0,0.0,0.0,0.0,0.0,0.0,0.0,0.0,0.0,0.0,0.0,0.0,0.0,0.0,0.0,0.0,0.0,0.0,0.0,0.0,0.0,0.0,0.0,0.0,0.0,0.0,0.0,0.0,0.0,0.0,0.0,0.0,0.0,0.0,0.0,0.0,-3.4624,-3.3822,-3.502,0.0,0.0,0.0,0.0,-3.7291,-3.8012,0.0,0.0,0.0,0.0,0.0,0.0,0.0,0.0,0.0,0.0,0.0,0.0,0.0,0.0,0.0,0.0,0.0,0.0,0.0,0.0,0.0,0.0,0.0,0.0,0.0,0.0,0.0,0.0,0.0,0.0,0.0,0.0,0.0,0.0,0.0,0.0,0.0,0.0,0.0,0.0,0.0,0.0,0.0,0.0,0.0,0.0,0.0,0.0,0.0,0.0,0.0,0.0,0.0,0.0,0.0,0.0,-1.7275,-1.5618,-1.6529,-2.0158,-2.1887,-2.2761,-2.2872,-2.3135,-2.5895,0.0,0.0,0.0,0.0,0.0,0.0,0.0,0.0,0.0,0.0,0.0,0.0,0.0,0.0,0.0,0.0,0.0,0.0,0.0,0.0,0.0,0.0,0.0,0.0,0.0,0.0,0.0,0.0,0.0,0.0,0.0,0.0,0.0,0.0,0.0,0.0,0.0,0.0,0.0,0.0,0.0,-3.289,-3.2806,-3.3542,-3.408,0.0,0.0,-3.6446,-3.5652,-3.6729,0.0,0.0,0.0,0.0,0.0,0.0,0.0,0.0,0.0,0.0,0.0,0.0,0.0,0.0,0.0,0.0,0.0,0.0,0.0,0.0,0.0,0.0,0.0,0.0,0.0,0.0,0.0,0.0,0.0,0.0,0.0,0.0,0.0,0.0,0.0,0.0,0.0,0.0,0.0,0.0,0.0,0.0,0.0,0.0,0.0,0.0,0.0,0.0,0.0,0.0,0.0,0.0,0.0,0.0,0.0,-1.7965,-1.9039,-1.812,-1.8733,-2.104,-2.2413,-2.3076,-2.3135,-2.4317,-2.7125,0.0,0.0,0.0,0.0,0.0,0.0,0.0,0.0,0.0,0.0,0.0,0.0,0.0,0.0,0.0,0.0,0.0,0.0,0.0,0.0,0.0,0.0,0.0,0.0,0.0,0.0,0.0,0.0,0.0,0.0,0.0,0.0,0.0,0.0,0.0,0.0,0.0,0.0,0.0,0.0,0.0,0.0,-3.3394,-3.3682,0.0,0.0,0.0,-3.5976,-3.5995,0.0,0.0,0.0,0.0,0.0,0.0,0.0,0.0,0.0,0.0,0.0,0.0,0.0,0.0,0.0,0.0,0.0,0.0,0.0,0.0,0.0,0.0,0.0,0.0,0.0,0.0,0.0,0.0,0.0,0.0,0.0,0.0,0.0,0.0,0.0,0.0,0.0,0.0,0.0,0.0,0.0,0.0,0.0,0.0,0.0,0.0,0.0,0.0,0.0,0.0,0.0,0.0,0.0,0.0,0.0,0.0,0.0,-2.1016,-2.0577,-2.0846,-2.1738,-2.2589,-2.3144,-2.3135,-2.5052,0.0,0.0,0.0,0.0,0.0,0.0,0.0,0.0,0.0,0.0,0.0,0.0,0.0,0.0,0.0,0.0,0.0,0.0,0.0,0.0,0.0,0.0,0.0,0.0,0.0,0.0,0.0,-4.107,0.0,0.0,0.0,0.0,0.0,0.0,0.0,0.0,0.0,0.0,0.0,0.0,0.0,0.0,-3.3602,-3.331,-3.3325,-3.331,0.0,0.0,-3.5299,-3.5852,-3.6182,-3.6796,0.0,0.0,0.0,0.0,0.0,0.0,0.0,0.0,0.0,0.0,0.0,0.0,0.0,0.0,0.0,0.0,0.0,0.0,0.0,0.0,0.0,0.0,0.0,0.0,0.0,0.0,0.0,0.0,0.0,0.0,0.0,0.0,0.0,0.0,0.0,0.0,0.0,0.0,0.0,0.0,0.0,0.0,0.0,0.0,0.0,0.0,0.0,0.0,0.0,0.0,0.0,0.0,0.0,0.0,-2.3815,-2.3919,-2.3196,-2.2843,-2.296,-2.3047,-2.3144,-2.3135,-2.4296,-2.7034,0.0,0.0,0.0,0.0,0.0,0.0,0.0,0.0,0.0,0.0,0.0,0.0,0.0,0.0,0.0,0.0,0.0,0.0,0.0,0.0,0.0,0.0,0.0,0.0,0.0,0.0,0.0,0.0,0.0,0.0,0.0,0.0,0.0,0.0,0.0,0.0,0.0,0.0,0.0,0.0,0.0,-3.2379,-3.1536,-3.1389,-3.1402,0.0,-3.2961,-3.4095,-3.4163,-3.4957,-3.607,-3.7616,0.0,0.0,0.0,0.0,0.0,0.0,0.0,0.0,0.0,0.0,0.0,0.0,0.0,0.0,0.0,0.0,0.0,0.0,0.0,0.0,0.0,0.0,0.0,0.0,0.0,0.0,0.0,0.0,0.0,0.0,0.0,0.0,0.0,0.0,0.0,0.0,0.0,0.0,0.0,0.0,0.0,0.0,0.0,0.0,0.0,0.0,0.0,0.0,0.0,0.0,0.0,0.0,0.0,-2.4516,-2.5168,-2.4724,-2.4358,-2.4135,-2.4368,-2.4034,-2.3144,-2.4893,-2.7174,0.0,0.0,0.0,0.0,0.0,0.0,0.0,0.0,0.0,0.0,0.0,0.0,0.0,0.0,0.0,0.0,0.0,0.0,0.0,0.0,0.0,0.0,0.0,0.0,0.0,0.0,0.0,0.0,-4.0539,-3.9783,-3.927,0.0,0.0,0.0,0.0,0.0,0.0,0.0,0.0,0.0,0.0,-3.1596,-3.1241,-3.1669,0.0,0.0,-3.3685,-3.4905,-3.4905,-3.5593,-3.6415,-3.698,-3.7456,0.0,0.0,0.0,0.0,0.0,0.0,0.0,0.0,0.0,0.0,0.0,0.0,0.0,0.0,0.0,0.0,0.0,0.0,0.0,0.0,0.0,0.0,0.0,0.0,0.0,0.0,0.0,0.0,0.0,0.0,0.0,0.0,0.0,0.0,0.0,0.0,0.0,0.0,0.0,0.0,0.0,0.0,0.0,0.0,0.0,0.0,0.0,0.0,0.0,0.0,0.0,0.0,-2.5797,-2.6848,-2.576,-2.5306,-2.5305,-2.5549,-2.5052,-2.3724,-2.5797,-2.7587,0.0,0.0,0.0,0.0,0.0,0.0,0.0,0.0,0.0,0.0,0.0,0.0,0.0,0.0,0.0,0.0,0.0,0.0,0.0,0.0,0.0,0.0,0.0,0.0,0.0,0.0,0.0,0.0,-4.0269,-3.9659,-3.9664,0.0,0.0,0.0,0.0,0.0,0.0,0.0,0.0,0.0,0.0,-3.1106,-3.0833,-3.1609,-3.2307,-3.2536,-3.4201,-3.5429,-3.5489,-3.6117,-3.66,-3.66,0.0,0.0,0.0,0.0,0.0,0.0,0.0,0.0,0.0,0.0,0.0,0.0,0.0,0.0,0.0,0.0,0.0,0.0,0.0,0.0,0.0,0.0,0.0,0.0,0.0,0.0,0.0,-1.7492,0.0,0.0,-2.6767,0.0,0.0,0.0,0.0,0.0,0.0,0.0,0.0,0.0,0.0,0.0,0.0,0.0,0.0,0.0,0.0,0.0,0.0,0.0,0.0,0.0,0.0,-2.83,-2.9337,-2.6371,-2.5389,-2.64,-2.6483,-2.5902,-2.4787,-2.693,-2.8379,-2.9089,0.0,0.0,0.0,0.0,0.0,0.0,0.0,0.0,0.0,0.0,0.0,0.0,0.0,0.0,0.0,0.0,0.0,0.0,0.0,0.0,0.0,0.0,0.0,0.0,0.0,0.0,-4.0065,-3.9155,-3.8723,0.0,0.0,0.0,0.0,0.0,0.0,0.0,0.0,0.0,-3.1523,-3.1241,-3.0908,-3.0011,-3.062,-3.1596,-3.2536,-3.41,-3.5265,-3.5474,-3.6102,-3.66,0.0,0.0,0.0,0.0,0.0,0.0,0.0,0.0,0.0,0.0,0.0,0.0,0.0,0.0,0.0,0.0,0.0,0.0,0.0,0.0,0.0,0.0,0.0,0.0,0.0,0.0,0.0,-2.1437,-2.0966,0.0,0.0,0.0,0.0,0.0,0.0,0.0,0.0,0.0,0.0,0.0,-2.6472,-2.6371,0.0,0.0,0.0,0.0,0.0,0.0,0.0,0.0,0.0,0.0,0.0,0.0,-2.7888,-2.9459,-2.6427,-2.5378,-2.6483,-2.6483,-2.5557,-2.38,-2.6521,-2.904,-3.1135,0.0,0.0,0.0,0.0,0.0,0.0,0.0,0.0,0.0,0.0,0.0,0.0,0.0,0.0,0.0,0.0,0.0,0.0,0.0,0.0,0.0,0.0,0.0,0.0,0.0,-4.1455,0.0,0.0,0.0,0.0,0.0,0.0,0.0,0.0,0.0,0.0,-3.4515,-3.2806,-3.2249,-3.1044,-3.0419,-3.0683,-3.1536,-3.2464,0.0,0.0,0.0,0.0,0.0,0.0,0.0,0.0,0.0,0.0,0.0,0.0,0.0,0.0,-4.0611,-4.0068,-4.073,-4.1535,-4.2117,0.0,0.0,0.0,0.0,0.0,0.0,0.0,0.0,0.0,0.0,0.0,0.0,0.0,0.0,-2.0784,-2.0403,-2.3142,0.0,0.0,0.0,0.0,0.0,0.0,0.0,0.0,-2.7369,-2.6464,-2.5891,-2.5376,-2.55,-2.6255,-2.6944,-2.7507,0.0,0.0,0.0,0.0,0.0,0.0,0.0,0.0,-2.7728,-2.8966,-2.6322,-2.5357,-2.6472,-2.6835,-2.6008,-2.38,-2.6202,-2.8555,-3.0795,-3.2398,-3.3253,0.0,0.0,0.0,0.0,0.0,0.0,0.0,0.0,0.0,0.0,0.0,0.0,0.0,0.0,0.0,0.0,0.0,0.0,0.0,0.0,0.0,0.0,0.0,-4.1402,0.0,0.0,0.0,0.0,0.0,0.0,0.0,0.0,0.0,-3.6167,-3.4062,-3.2464,-3.2177,-3.1057,-3.0419,-3.0696,0.0,0.0,0.0,0.0,0.0,0.0,0.0,-3.6492,-3.6275,-3.6662,-3.7175,-3.7706,-3.8189,-3.858,-3.8854,0.0,0.0,-3.942,-4.0019,-4.0779,-4.136,-4.1034,-4.0934,-4.1963,-4.1477,-4.1104,0.0,0.0,0.0,0.0,-2.8484,0.0,0.0,0.0,-1.8699,-1.7619,0.0,-2.0586,0.0,0.0,0.0,0.0,-3.3509,-3.2596,0.0,0.0,-2.603,-2.4946,-2.4861,-2.3877,-2.329,-2.3454,-2.5395,-2.581,-2.5094,-2.6816,0.0,0.0,0.0,0.0,0.0,0.0,-2.7838,-2.777,-2.581,-2.5292,-2.6389,-2.7417,-2.6985,-2.4957,-2.5964,-2.7035,-2.8152,-3.0795,-3.2621,-3.3636,-3.7028,0.0,0.0,0.0,0.0,0.0,0.0,0.0,0.0,0.0,0.0,0.0,0.0,0.0,0.0,0.0,0.0,0.0,0.0,0.0,0.0,-4.148,0.0,0.0,0.0,0.0,0.0,0.0,0.0,0.0,0.0,-3.5254,-3.5269,-3.3654,-3.2249,-3.1389,0.0,0.0,0.0,0.0,-3.2522,-3.2593,-3.41,-3.5185,-3.5409,-3.6039,-3.6337,-3.5619,0.0,0.0,-3.7531,-3.7748,-3.8019,-3.8745,-3.9542,-4.0087,-4.007,-4.007,-4.0138,-4.0155,-4.0155,-4.0138,-4.0155,-4.0239,-4.0206,-2.1388,0.0,0.0,0.0,0.0,-2.2192,-1.9936,-1.7272,-1.6759,-1.6636,-1.7191,-2.0893,0.0,0.0,0.0,0.0,0.0,0.0,-3.2444,-3.0864,-2.9006,-2.7702,-2.6978,-2.6653,-2.684,-2.7549,-2.746,-2.6852,-2.581,-2.5699,-2.7152,-2.9885,0.0,0.0,0.0,0.0,-2.6075,-2.6744,-2.4681,-2.4104,-2.5294,-2.5573,-2.5838,-2.5975,-2.6307,-2.6964,-2.8096,-2.9654,-3.1189,-3.2678,-3.4433,0.0,0.0,0.0,0.0,0.0,0.0,0.0,0.0,0.0,0.0,0.0,0.0,0.0,0.0,0.0,0.0,0.0,0.0,0.0,-4.2681,-4.1943,-4.1639,0.0,0.0,0.0,0.0,0.0,0.0,0.0,0.0,0.0,-3.5464,-3.3143,-3.1742,0.0,0.0,-3.0558,-3.1623,-3.1683,-3.1829,-3.2522,-3.3545,0.0,-3.438,-3.5219,-3.5718,-3.5489,-3.5489,-3.5846,-3.6814,-3.7381,-3.8035,-3.8761,-3.9558,-4.0087,-4.0087,-4.0087,-4.0087,-4.0087,-4.0087,-4.0087,-4.0087,-4.0087,-4.0087,-1.5848,-1.8425,-2.0773,-2.0699,-1.8956,-1.7707,-1.5736,-1.3327,-1.3838,-1.4571,-1.5511,-1.9482,-2.3441,-2.7334,-3.1365,0.0,0.0,0.0,-3.2821,-3.1003,-3.041,-2.9783,-2.9133,-2.8643,-2.8737,-2.9289,-2.9581,-2.8517,-2.6248,-2.6932,-2.737,-2.7554,0.0,-2.664,-2.8052,-2.5959,-2.4872,-2.5062,-2.381,-2.3474,-2.4135,-2.4165,-2.4674,-2.5724,-2.5797,-2.6378,-2.7441,-2.853,-2.9807,-3.1282,-3.2591,-3.4332,0.0,0.0,0.0,0.0,0.0,0.0,0.0,0.0,0.0,0.0,0.0,-4.4689,-4.4729,0.0,0.0,0.0,-4.3143,-4.2832,-4.2044,-4.1664,0.0,0.0,0.0,0.0,0.0,0.0,0.0,-3.6785,-3.5963,-3.5404,-3.489,-3.3031,-3.1947,-3.2536,-3.1267,-3.0633,-3.1415,0.0,-3.1536,-3.2464,-3.3101,-3.3739,-3.4461,-3.5067,-3.5489,-3.5489,-3.5489,-3.5782,-3.6508,-3.7263,-3.8035,-3.8799,-3.9558,-4.0087,-4.0087,-4.0087,-4.0087,-4.0087,-4.0087,-4.0087,-4.0087,-4.0087,-4.0087,-1.0872,-1.0236,-1.5349,-1.6243,-1.4396,-1.434,-1.2008,-0.8421,-1.0803,-1.193,-1.2592,-1.7283,-2.2177,-2.7143,-3.3068,0.0,-3.095,-3.2821,-3.2329,-2.9821,-3.0699,-3.1143,-3.1203,-3.0121,-2.9606,-2.9757,-3.1446,-3.0306,-2.6806,-2.9338,-2.8758,-2.5041,-2.4872,-2.523,-2.6024,-2.5135,-2.4125,-2.3144,-2.3144,-2.3135,-2.3144,-2.3144,-2.3637,-2.4787,-2.4798,-2.5368,-2.6554,-2.7602,-2.8609,-2.9804,-3.1268,-3.297,-3.4846,0.0,0.0,0.0,0.0,0.0,0.0,0.0,0.0,0.0,0.0,0.0,0.0,0.0,0.0,-4.239,-4.148,0.0,-4.1041,-4.0995,0.0,0.0,0.0,-4.1198,-3.985,-3.9039,-3.8056,-3.6754,0.0,0.0,-3.4095,-3.331,-3.2735,-3.2749,-3.1829,-3.0908,-3.0139,-3.0758,-3.1536,-3.2321,-3.2593,-3.3394,-3.492,-3.5359,-3.5504,-3.5489,-3.5489,-3.5782,-3.6508,-3.7263,-3.8035,-3.8745,-3.9558,-4.0087,-4.0087,-4.0087,-4.0121,-4.0171,-4.0121,-4.0121,-4.0154,-4.0204,-4.0254,-0.878,-0.8379,-0.7828,-0.8311,-0.9591,-0.9643,-0.96,-0.9698,-1.1196,-1.3452,-1.6285,-1.8422,-2.2437,-2.7699,-2.9252,-3.0716,-3.2198,-3.268,-3.2566,-3.1906,-3.2123,-3.2623,-3.3268,-3.2297,-3.2198,-3.2779,-3.1951,-3.0527,-2.8795,-2.8778,-2.7877,-2.613,-2.521,-2.4935,-2.5072,-2.4029,-2.3387,-2.3144,-2.3144,-2.3144,-2.3144,-2.3144,-2.3637,-2.4798,-2.4798,-2.5703,-2.7602,-2.7924,-2.8597,-2.9702,-3.0175,-3.1235,-3.3066,-3.5135,0.0,0.0,0.0,0.0,0.0,0.0,0.0,0.0,0.0,-4.3132,-4.3407,0.0,-4.3082,0.0,-4.1715,-4.1768,-4.2203,-4.1853,0.0,0.0,-4.1028,-4.059,-3.9285,-3.8476,-3.7637,-3.6738,-3.5721,-3.5133,-3.5133,-3.4327,-3.3671,-3.3656,-3.2249,-3.1402,-3.1829,-3.1476,-3.1254,-3.1609,-3.2735,-3.3808,-3.4312,-3.4986,-3.5489,-3.5489,-3.5489,-3.5782,-3.6492,-3.7279,-3.8051,-3.8799,-3.9542,-4.002,-4.0087,-4.0087,-4.0254,-4.0577,-4.0368,-4.0254,-4.0607,-4.0685,-4.0827,-0.6853,-0.6103,-0.4614,-0.482,-0.6226,-0.683,-0.7524,-0.8403,-1.0798,-1.2975,-1.5236,-1.9085,-2.2639,-2.5777,-2.7735,-2.9362,-3.0641,-3.1569,-3.1974,-3.2033,-3.2806,-3.3518,-3.4013,-3.3905,-3.4192,-3.461,-3.3171,-3.1675,-3.0188,-2.9167,-2.7705,-2.5808,-2.5126,-2.4542,-2.4049,-2.3377,-2.3144,-2.3144,-2.3144,-2.3144,-2.3144,-2.3144,-2.3387,-2.4049,-2.4039,-2.5126,-2.7279,-2.7371,-2.8335,-3.0266,-3.0394,-3.1268,-3.3101,-3.4332,-3.5931,0.0,0.0,0.0,0.0,0.0,0.0,0.0,0.0,0.0,0.0,0.0,-4.3343,-4.2832,-4.1932,-4.1768,-4.2616,-4.2162,-4.1578,-4.0949,-4.0884,-4.0353,-3.9032,-3.8545,-3.7859,-3.6753,-3.6228,-3.591,-3.5554,-3.5001,-3.4691,-3.4691,-3.3394,-3.2321,-3.2019,-3.1829,-3.1683,-3.1328,-3.2464,-3.3518,-3.3891,-3.4839,-3.5489,-3.5489,-3.5489,-3.5668,-3.6054,-3.6753,-3.7499,-3.8302,-3.9049,-3.9714,-4.0003,-4.0087,-4.0204,-4.04,-4.048,-4.0655,-4.1178,-4.1313,-4.1446,-0.4812,-0.3527,-0.3436,-0.3429,-0.3313,-0.4822,-0.5525,-0.6022,-0.9718,-1.1549,-1.2491,-1.8807,-2.2122,-2.3159,-2.691,-2.8391,-2.8231,-3.0227,-3.1079,-3.1079,-3.2947,-3.3808,-3.3891,-3.4624,-3.4905,-3.4691,-3.3711,-3.2297,-3.0462,-2.9515,-2.7726,-2.5115,-2.4872,-2.4296,-2.3387,-2.3135,-2.3144,-2.3144,-2.3222,-2.3299,-2.3299,-2.3299,-2.3387,-2.3474,-2.3222,-2.4145,-2.64,-2.6483,-2.782,-3.0568,-3.0955,-3.1856,-3.3685,-3.3914,-3.5202,0.0,-3.8928,0.0,0.0,0.0,0.0,0.0,0.0,0.0,0.0,-4.3238,-4.3844,-4.3924,-4.2221,-4.1534,-4.2498,-4.2021,-4.1446,-4.0874,-4.0774,-4.0323,-3.9189,-3.8947,-3.8351,-3.6919,-3.6676,-3.6322,-3.5604,-3.5489,-3.5489,-3.5344,-3.4706,-3.3547,-3.2105,-3.2307,-3.2522,-3.1683,-3.2393,-3.3533,-3.4177,-3.4986,-3.5489,-3.5489,-3.5489,-3.5489,-3.5554,-3.6102,-3.6843,-3.7557,-3.8374,-3.9139,-3.9833,-4.0037,-4.0121,-4.0237,-4.0577,-4.1024,-4.1621,-4.1853,-4.1937,-0.1984,-0.082,-0.0721,-0.0102,0.0603,-0.1708,-0.3416,-0.4616,-0.748,-1.0502,-1.3576,-1.5917,-1.8994,-2.2454,-2.3449,-2.5338,-2.8021,-3.0099,-3.0576,-2.9923,-3.1893,-3.289,-3.282,-3.2249,-3.1542,-3.0637,-2.9642,-2.8567,-2.7383,-2.7174,-2.6778,-2.613,-2.5305,-2.4713,-2.4467,0.0,0.0,0.0,-2.4039,-2.4457,-2.4457,-2.4467,-2.4882,-2.5724,-2.4059,0.0,-2.6318,-2.6483,-2.7197,-2.8603,-2.9589,0.0,0.0,0.0,0.0,0.0,0.0,0.0,0.0,0.0,0.0,0.0,-4.2002,-4.2114,-4.1949,-4.2526,-4.3123,-4.3511,-4.281,-4.2244,-4.1997,-4.1446,-4.0827,-4.0336,-4.0239,-4.0138,-3.985,-3.9312,-3.8557,-3.769,-3.7024,-3.6337,-3.5668,-3.5489,-3.5489,-3.5489,-3.5359,-3.4773,-3.3587,-3.3602,-3.3671,-3.3533,-3.4124,-3.492,-3.5198,-3.5359,-3.5489,-3.5489,-3.5489,-3.5489,-3.5554,-3.6054,-3.6554,-3.6919,-3.793,-3.8908,-3.9139,-3.9662,-4.0187,-4.0655,-4.081,-4.1087,-4.1664,-4.2203,-4.2637,0.0212,0.2195,0.22,0.2606,0.0,0.1635,0.0305,-0.1119,-0.452,-0.7865,-1.0979,-1.2161,-1.4714,-1.8335,-2.0658,-2.2712,-2.4608,-2.7437,-2.8518,-2.808,-2.958,-3.025,-3.025,-3.0224,-2.9972,-2.9415,-2.8427,-2.7681,-2.7128,-2.6191,-2.5641,-2.563,-2.3902,-2.3037,-2.3047,-2.1924,-2.1854,-2.3144,-2.3627,-2.3973,-2.3963,-2.3973,-2.4221,-2.4723,-2.3724,0.0,0.0,0.0,0.0,0.0,0.0,0.0,0.0,-3.3413,0.0,-3.666,-3.7848,-3.887,-3.9747,-4.0284,-4.0781,-4.12,-4.1586,-4.1937,-4.2221,-4.2519,-4.2939,-4.3444,-4.3014,-4.2577,-4.2302,-4.1979,-4.1464,-4.0625,-4.0497,-4.0417,-4.0104,-3.9714,-3.9193,-3.8414,-3.7674,-3.6935,-3.618,-3.5718,-3.5504,-3.5489,-3.5489,-3.5294,-3.4839,-3.4758,-3.461,-3.4109,-3.4394,-3.4758,-3.4824,-3.5213,-3.5489,-3.5489,-3.5489,-3.5489,-3.5489,-3.5767,-3.6165,-3.6554,-3.7247,-3.793,-3.8799,-3.9262,-3.9697,-4.0334,-4.0703,-4.1087,-4.1664,-4.2302,-4.2864,0.2378,0.4796,0.4583,0.4682,0.4874,0.4386,0.3632,0.2283,-0.1823,0.0,0.0,-0.8717,-1.0642,-1.3357,-1.7538,-1.9614,-2.0271,-2.3972,-2.5673,-2.5673,-2.694,-2.7522,-2.7522,-2.8024,-2.8191,-2.7929,-2.7163,-2.6699,-2.6442,-2.4724,-2.3902,-2.3644,-2.1896,-2.0926,-2.0935,-2.0034,-2.0494,-2.2403,-2.2707,-2.2775,-2.2736,-2.2775,-2.2775,-2.2736,-2.258,-2.3008,-2.4094,-2.4351,-2.5398,-2.7232,-2.839,-2.991,-3.2003,-3.3007,-3.4113,-3.5379,-3.6228,-3.7027,-3.7924,-3.8721,-3.9761,-4.1207,-4.1983,-4.2489,-4.2806,-4.2732,-4.2902,-4.3463,-4.3014,-4.2693,-4.2693,-4.248,-4.1979,-4.0995,-4.0827,-4.0559,-4.0154,-3.9952,-3.9558,-3.8962,-3.8189,-3.7515,-3.6661,-3.6054,-3.5619,-3.5489,-3.5489,-3.5489,-3.5489,-3.5424,-3.5133,-3.4543,-3.4528,-3.438,-3.4394,-3.4986,-3.5424,-3.5489,-3.5489,-3.5489,-3.5489,-3.5489,-3.5782,-3.6492,-3.6661,-3.7408,-3.8564,-3.9086,-3.9315,-3.9952,-4.0449,-4.092,-4.1534,-4.2038,-4.258,0.4737,0.6074,0.499,0.5163,0.615,0.4972,0.4334,0.3794,-0.0408,-0.3807,-0.6278,-0.6404,-0.7957,-1.043,-1.2262,-1.4251,-1.6593,-2.052,-2.2335,-2.2532,-2.4849,-2.5971,-2.5971,-2.4961,-2.3957,-2.3079,-2.2697,-2.1934,-2.1042,-2.0516,-2.0198,-2.0296,-1.9935,-1.9761,-1.9761,-1.9579,-1.967,-2.0034,-2.0907,-2.1379,-2.1414,-2.1397,-2.1388,-2.1325,-2.0532,-2.0584,-2.1765,-2.2756,-2.3861,-2.5178,-2.6329,-2.8215,-3.0969,-3.1325,-3.2667,-3.5234,-3.6165,-3.7214,-3.8638,-3.9511,-4.0836,-4.276,-4.3987,-4.4313,-4.3486,-4.2976,-4.2921,-4.341,-4.3032,-4.2693,-4.2655,-4.1853,-4.1223,-4.0949,-4.0497,-4.0204,-4.0121,-3.9542,-3.9139,-3.8978,-3.8246,-3.7515,-3.6798,-3.6492,-3.6117,-3.5668,-3.5489,-3.5489,-3.5489,-3.5489,-3.5424,-3.5359,-3.5279,-3.5279,-3.5213,-3.5344,-3.5489,-3.5489,-3.5489,-3.5489,-3.5489,-3.5554,-3.5846,-3.6508,-3.71,-3.7905,-3.8745,-3.9489,-3.9782,-4.007,-4.0254,-4.0497,-4.1059,-4.1313,-4.1835,0.7425,0.9869,0.8675,0.8429,0.8797,0.6687,0.5672,0.5297,0.271,0.0,-0.2572,-0.3514,-0.4846,-0.6859,-0.9566,-1.1449,-1.2703,-1.6786,-1.9012,-1.9833,-2.1045,-2.1593,-2.1696,-2.1852,-2.1191,-2.003,-2.0701,-2.0668,-2.021,-2.0063,-1.9882,-1.9693,-1.896,-1.8495,-1.8503,-1.7848,-1.7848,-1.8495,-1.9611,-2.0214,-2.0228,-2.0214,-2.0214,-2.0228,-1.9745,-1.9778,-2.0322,-2.0819,-2.1692,-2.2863,-2.4553,-2.6662,-2.9145,-3.0904,-3.2849,-3.5078,-3.6478,-3.7886,-3.9358,-4.0945,-4.2329,-4.3652,-4.4219,-4.4633,-4.482,-4.42,-4.3889,-4.4086,-4.3524,-4.3032,-4.2732,-4.2203,-4.1768,-4.1385,-4.0874,-4.0528,-4.0497,-3.9952,-3.9558,-3.9437,-3.8486,-3.7706,-3.7263,-3.6508,-3.5943,-3.5554,-3.5489,-3.5489,-3.5489,-3.5489,-3.5489,-3.5489,-3.5489,-3.5489,-3.5489,-3.5489,-3.5489,-3.5489,-3.5489,-3.5489,-3.5554,-3.5782,-3.6212,-3.6554,-3.7279,-3.8019,-3.8745,-3.9139,-3.9558,-4.007,-4.0368,-4.0703,-4.1223,-4.1817,-4.2505,1.0202,1.3161,1.2077,1.1647,1.1415,0.9208,0.7911,0.739,0.6105,0.4069,0.1605,-0.0532,-0.2122,-0.3386,-0.7018,-0.8877,-0.9705,-1.309,-1.5557,-1.6912,-1.7385,-1.7526,-1.7633,-1.8478,-1.818,-1.7334,-1.8214,-1.8693,-1.8686,-1.8618,-1.8454,-1.8097,-1.7025,-1.6619,-1.6841,-1.5899,-1.6069,-1.7225,-1.8226,-1.8672,-1.8672,-1.8672,-1.8672,-1.8672,-1.8672,-1.8772,-1.9039,-1.9139,-1.9761,-2.1293,-2.2949,-2.5134,-2.7888,-3.0361,-3.2745,-3.4965,-3.6537,-3.8134,-4.0091,-4.2378,-4.3924,-4.4366,-4.4688,-4.5233,-4.6022,-4.5627,-4.5149,-4.4947,-4.4433,-4.378,-4.3132,-4.2807,-4.2481,-4.1846,-4.115,-4.075,-4.0827,-4.0302,-3.9901,-3.9901,-3.8887,-3.8092,-3.7806,-3.689,-3.5958,-3.5619,-3.5489,-3.5489,-3.5489,-3.5489,-3.5489,-3.5489,-3.5489,-3.5489,-3.5489,-3.5489,-3.5489,-3.5489,-3.5489,-3.5489,-3.5554,-3.5991,-3.6384,-3.6615,-3.7263,-3.8019,-3.869,-3.9139,-3.9525,-4.017,-4.0607,-4.1041,-4.1603,-4.2465,-4.316,1.2935,1.3264,1.3259,1.3048,1.3048,1.2695,1.1801,1.049,0.9163,0.7636,0.5744,0.1824,0.0,-0.0529,-0.328,-0.5294,-0.6779,-0.9758,-1.1912,-1.3445,-1.492,-1.5563,-1.5323,-1.454,-1.3933,-1.3784,-1.382,-1.4025,-1.4014,-1.3507,-1.3298,-1.3072,-1.2955,-1.3534,-1.4353,-1.4329,-1.4814,-1.5927,-1.6103,-1.6103,-1.6103,-1.6103,-1.6109,-1.6109,-1.6197,-1.6662,-1.777,-1.7863,-1.8948,-2.1025,-2.1551,-2.379,-2.8,-2.894,-3.11,-3.541,-3.5999,-3.7464,-4.0703,-4.363,-4.5234,-4.5439,-4.6351,-4.6975,-4.7205,-4.701,-4.6562,-4.5993,-4.5736,-4.5022,-4.3927,-4.334,-4.2803,-4.2055,-4.1007,-4.0385,-4.0737,-3.9783,-3.9246,-4.0003,-3.9262,-3.8799,-3.8635,-3.7847,-3.6951,-3.5733,-3.5554,-3.5489,-3.5489,-3.5489,-3.5489,-3.5489,-3.5489,-3.5489,-3.5489,-3.5489,-3.5489,-3.5489,-3.5489,-3.5489,-3.5554,-3.5668,-3.5846,-3.6814,-3.744,-3.8246,-3.8854,-3.942,-4.012,-4.0431,-4.078,-4.1133,-4.1707,-4.2404,-4.2939,1.6175,1.6976,1.6119,1.5281,1.455,1.3696,1.2945,1.229,1.1729,1.0643,0.9102,0.6448,0.3917,0.1311,-0.0764,-0.2512,-0.4044,-0.6129,-0.7762,-0.9277,-1.0762,-1.1562,-1.1571,-1.2807,-1.294,-1.2186,-1.2739,-1.3128,-1.3093,-1.2795,-1.269,-1.2571,-1.2467,-1.2659,-1.3084,-1.3079,-1.3333,-1.3834,-1.449,-1.4807,-1.4886,-1.5428,-1.5825,-1.5825,-1.5825,-1.6015,-1.648,-1.6574,-1.7397,-1.9139,-2.132,-2.3954,-2.6661,-2.9549,-3.2173,-3.4611,-3.7157,-3.9673,-4.219,-4.4001,-4.5142,-4.5459,-4.5982,-4.6542,-4.7324,-4.7324,-4.7259,-4.7259,-4.6471,-4.5645,-4.5111,-4.4516,-4.3865,-4.3102,-4.2264,-4.158,-4.0926,-4.0429,-4.0152,-4.0104,-3.9385,-3.8924,-3.8745,-3.7831,-3.6919,-3.6165,-3.5846,-3.5554,-3.5489,-3.5489,-3.5489,-3.5489,-3.5489,-3.5489,-3.5489,-3.5489,-3.5489,-3.5489,-3.5489,-3.5489,-3.5554,-3.6445,-3.7011,-3.7219,-3.8133,-3.8941,-3.9558,-3.9782,-4.0204,-4.0546,-4.1178,-4.1621,-4.2203,-4.279,-4.3196,1.9184,1.9907,1.9044,1.7803,1.6461,1.55,1.4545,1.3911,1.3911,1.3048,1.1642,1.0202,0.7549,0.412,0.2117,0.0446,-0.1115,-0.2567,-0.4007,-0.5433,-0.699,-0.7665,-0.7993,-0.9749,-1.0307,-0.9658,-1.0304,-1.1063,-1.1502,-1.172,-1.175,-1.1727,-1.1503,-1.1617,-1.1879,-1.1973,-1.2048,-1.249,-1.3249,-1.3674,-1.3751,-1.479,-1.5602,-1.5757,-1.5825,-1.5865,-1.5945,-1.5952,-1.6552,-1.7953,-2.1369,-2.4098,-2.5883,-2.9893,-3.2872,-3.4619,-3.8209,-4.1188,-4.2847,-4.3756,-4.4519,-4.5178,-4.5355,-4.5968,-4.6863,-4.7309,-4.7674,-4.8082,-4.7223,-4.6507,-4.599,-4.5624,-4.4962,-4.4096,-4.3367,-4.2594,-4.1957,-4.1591,-4.1111,-4.0694,-4.0118,-3.9338,-3.8849,-3.8003,-3.7291,-3.6964,-3.629,-3.5782,-3.5718,-3.5668,-3.5489,-3.5489,-3.5489,-3.5489,-3.5489,-3.5489,-3.5489,-3.5489,-3.5489,-3.5489,-3.5504,-3.6616,-3.7131,-3.6646,-3.843,-3.9348,-3.9119,-3.9401,-4.0204,-4.0466,-4.1139,-4.1973,-4.248,-4.3032,-4.3432,2.1541,2.155,2.1533,2.0523,1.9413,1.9206,1.7732,1.5411,1.5411,1.4556,1.3156,1.1751,1.0096,0.832,0.5569,0.3457,0.189,0.0334,-0.1113,-0.2445,-0.4013,-0.4693,-0.4691,-0.4803,-0.5023,-0.5357,-0.5575,-0.6132,-0.7246,-0.8472,-0.9037,-0.9133,-0.9223,-0.9697,-1.0634,-1.0715,-1.1256,-1.2053,-1.2407,-1.249,-1.269,-1.3903,-1.4862,-1.5536,-1.5845,-1.5992,-1.6213,-1.6259,-1.6946,-1.8393,-2.1079,-2.3727,-2.6413,-2.9255,-3.2412,-3.5744,-3.8867,-4.0982,-4.1901,-4.2892,-4.3739,-4.4536,-4.5178,-4.577,-4.6477,-4.707,-4.7674,-4.8249,-4.8141,-4.7584,-4.6608,-4.6318,-4.5648,-4.4422,-4.3664,-4.3535,-4.3754,-4.2763,-4.2295,-4.1931,-4.1359,-4.057,-3.9214,-3.8854,-3.8472,-3.7886,-3.7131,-3.6585,-3.6461,-3.6006,-3.5604,-3.5554,-3.5554,-3.5489,-3.5489,-3.5489,-3.5489,-3.5489,-3.5489,-3.5489,-3.5504,-3.5569,-3.5668,-3.607,-3.7515,-3.8318,-3.8278,-3.8924,-4.0036,-4.0754,-4.1426,-4.2139,-4.2865,-4.282,-4.3358,2.2968,2.2876,2.2055,2.1347,2.0947,2.0939,1.9804,1.8157,1.8053,1.6778,1.4877,1.4126,1.2497,1.021,0.9223,0.6895,0.3678,0.2121,0.1116,0.0334,-0.1898,-0.3017,-0.3129,-0.4024,-0.447,-0.447,-0.447,-0.4804,-0.5363,-0.6813,-0.7485,-0.7706,-0.8488,-0.9123,-0.9512,-0.9505,-0.9794,-1.0266,-1.1124,-1.1581,-1.1344,-1.2029,-1.2786,-1.3685,-1.5486,-1.644,-1.654,-1.6547,-1.6792,-1.7392,-2.0887,-2.3627,-2.5686,-2.9758,-3.3035,-3.5143,-3.7386,-3.9065,-4.0232,-4.2125,-4.3426,-4.3798,-4.4875,-4.5767,-4.6363,-4.7008,-4.7656,-4.8132,-4.8324,-4.8007,-4.7685,-4.7257,-4.6603,-4.5645,-4.4901,-4.4308,-4.3763,-4.3498,-4.3183,-4.2483,-4.2055,-4.1639,-4.1141,-4.0657,-4.0087,-3.938,-3.8579,-3.7991,-3.7373,-3.6707,-3.6241,-3.6133,-3.5846,-3.5489,-3.5489,-3.5489,-3.5489,-3.5489,-3.5489,-3.5489,-3.5504,-3.5894,-3.6102,-3.6399,-3.7381,-3.8302,-3.8668,-3.9484,-4.047,-4.1,-4.1665,-4.275,-4.3354,-4.3674,-4.4452,2.4106,2.3583,2.2667,2.1853,2.1041,2.1049,2.0436,1.9524,1.9117,1.806,1.6785,1.5837,1.4228,1.2507,1.1542,0.9665,0.6574,0.4573,0.3352,0.2682,0.0335,-0.1006,-0.1566,-0.2573,-0.3018,-0.3131,-0.3576,-0.3799,-0.3911,-0.525,-0.5919,-0.6033,-0.7485,-0.8156,-0.8266,-0.8605,-0.8937,-0.9137,-0.9922,-1.0401,-1.0266,-1.0767,-1.1426,-1.2187,-1.4378,-1.5794,-1.6132,-1.6638,-1.6901,-1.7482,-2.0966,-2.4336,-2.7024,-3.0759,-3.3674,-3.5102,-3.6754,-3.8208,-3.9637,-4.166,-4.2986,-4.3366,-4.4623,-4.5748,-4.6365,-4.7034,-4.7656,-4.8132,-4.8324,-4.8324,-4.821,-4.7919,-4.7397,-4.6741,-4.6211,-4.5577,-4.4794,-4.4752,-4.4348,-4.3539,-4.2894,-4.2655,-4.2516,-4.195,-4.1371,-4.0829,-4.0132,-3.9428,-3.8882,-3.7941,-3.7266,-3.7219,-3.6671,-3.622,-3.5998,-3.5953,-3.5764,-3.5704,-3.5504,-3.5489,-3.5539,-3.6054,-3.6477,-3.6798,-3.7573,-3.8486,-3.9345,-4.0138,-4.0774,-4.1272,-4.2394,-4.3551,-4.4191,-4.4901,-4.5532,2.4922,2.389,2.3683,2.2366,2.0538,2.0238,1.9834,1.9627,1.8401,1.8401,1.8478,1.658,1.5417,1.4663,1.2615,1.1105,1.0112,0.7796,0.5915,0.4468,0.2681,0.123,0.0,0.0,0.0,0.0,-0.1566,-0.2124,-0.2348,-0.3688,-0.447,-0.4804,-0.6031,-0.6924,-0.6813,-0.8152,-0.8826,-0.8933,-0.9137,-0.903,-0.9044,-1.0198,-1.0941,-1.1176,-1.2572,-1.3869,-1.4943,-1.6304,-1.7255,-1.7984,-2.1317,-2.5813,-2.9827,-3.2017,-3.374,-3.5721,-3.7098,-3.8591,-4.0301,-4.1446,-4.252,-4.3196,-4.4678,-4.5842,-4.6361,-4.7075,-4.7715,-4.8172,-4.8324,-4.8324,-4.8306,-4.8288,-4.802,-4.7494,-4.7198,-4.7057,-4.7032,-4.6684,-4.6112,-4.5229,-4.424,-4.3395,-4.3212,-4.2876,-4.2416,-4.2085,-4.1599,-4.109,-4.0745,-3.9654,-3.8841,-3.8585,-3.8111,-3.7541,-3.6995,-3.6514,-3.6154,-3.5839,-3.5594,-3.5489,-3.5489,-3.5782,-3.6333,-3.677,-3.828,-3.929,-4.0347,-4.1104,-4.1773,-4.2392,-4.3507,-4.4446,-4.5224,-4.5875,-4.628,2.543,2.5118,2.5118,2.4609,2.3692,2.2876,2.1963,2.0947,1.9627,1.8708,1.8087,1.7351,1.6387,1.5417,1.4341,1.294,1.1105,1.0006,0.8352,0.5915,0.3463,0.2012,0.1454,0.0448,0.0,0.0,-0.0448,0.0,0.0,-0.2236,-0.3352,-0.447,-0.4918,-0.6253,-0.7931,-0.7709,-0.782,-0.8826,-0.8937,-0.8937,-0.8937,-0.9372,-0.9592,-0.9699,-1.0996,-1.2365,-1.3811,-1.5194,-1.6924,-1.8812,-2.1119,-2.4626,-2.902,-3.1101,-3.2798,-3.4912,-3.6146,-3.7238,-3.8737,-4.0748,-4.2125,-4.2827,-4.4667,-4.6042,-4.6475,-4.7398,-4.8035,-4.8306,-4.8324,-4.8324,-4.8344,-4.8568,-4.8477,-4.8075,-4.7656,-4.747,-4.7385,-4.6847,-4.6621,-4.6606,-4.5598,-4.492,-4.4733,-4.4228,-4.3685,-4.3186,-4.2884,-4.2584,-4.1949,-4.1148,-4.0442,-4.0383,-3.9654,-3.9029,-3.8667,-3.8335,-3.8039,-3.7351,-3.6758,-3.609,-3.5949,-3.6277,-3.6672,-3.7514,-3.8964,-4.0097,-4.1177,-4.2023,-4.2662,-4.3436,-4.4413,-4.5305,-4.6251,-4.6813,-4.7181,2.5421,2.502,2.4922,2.4609,2.4196,2.3285,2.2466,2.155,2.0238,1.9117,1.8401,1.7786,1.7147,1.628,1.563,1.4449,1.262,1.1647,1.0116,0.802,0.5244,0.3685,0.2905,0.1566,0.0448,0.0,0.0,0.0,0.0,-0.0896,-0.1902,-0.2684,-0.3353,-0.4801,-0.7038,-0.7035,-0.7371,-0.8712,-0.8937,-0.8937,-0.8937,-0.8937,-0.8937,-0.9047,-0.9809,-1.1,-1.2403,-1.4325,-1.6654,-1.931,-2.1428,-2.4688,-2.8892,-3.025,-3.194,-3.4711,-3.5908,-3.6852,-3.8428,-4.0712,-4.1981,-4.2502,-4.4707,-4.6318,-4.6618,-4.7554,-4.8267,-4.8324,-4.8324,-4.8324,-4.8382,-4.8657,-4.8674,-4.8344,-4.8137,-4.7904,-4.7738,-4.7367,-4.7306,-4.7416,-4.6793,-4.6353,-4.6063,-4.5613,-4.5007,-4.4348,-4.4156,-4.396,-4.3234,-4.2465,-4.2154,-4.1773,-4.1184,-4.0718,-4.035,-4.0144,-3.9957,-3.9124,-3.8263,-3.7407,-3.6808,-3.7604,-3.8215,-3.9209,-4.05,-4.1039,-4.2001,-4.2791,-4.3525,-4.4423,-4.532,-4.6368,-4.7262,-4.7641,-4.7974,2.502,2.389,2.3791,2.3384,2.2366,2.2165,2.2055,2.1651,2.0238,1.9524,1.922,1.8094,1.747,1.7035,1.5849,1.499,1.4556,1.2295,1.0891,0.979,0.7799,0.5806,0.3799,0.246,0.1231,0.0,0.0,0.0,0.0,0.0,-0.0112,-0.0784,-0.179,-0.3017,-0.4693,-0.5919,-0.6811,-0.8042,-0.8488,-0.8598,-0.8602,-0.8937,-0.8937,-0.8937,-0.9047,-0.9809,-1.1424,-1.4281,-1.7134,-1.9723,-2.2672,-2.5762,-2.8664,-2.9443,-3.1704,-3.5639,-3.6198,-3.7453,-3.9233,-4.1013,-4.2045,-4.2409,-4.4633,-4.6383,-4.6507,-4.7409,-4.8172,-4.8267,-4.8324,-4.8324,-4.8382,-4.8657,-4.8728,-4.8513,-4.8549,-4.8513,-4.8383,-4.8231,-4.8132,-4.8093,-4.7756,-4.7342,-4.7194,-4.6618,-4.601,-4.551,-4.5286,-4.4919,-4.4393,-4.3679,-4.3446,-4.3048,-4.2528,-4.2365,-4.2032,-4.1983,-4.1738,-4.1087,-4.0219,-3.9454,-3.8459,-3.9031,-3.9742,-4.0827,-4.1743,-4.2186,-4.2712,-4.3577,-4.4402,-4.5176,-4.6239,-4.7409,-4.7977,-4.821,-4.8288,2.5538,2.5128,2.5118,2.4922,2.451,2.3692,2.3176,2.2876,2.0641,1.9627,1.9317,1.8192,1.7041,1.5956,1.563,1.4341,1.2724,1.1538,1.0457,0.9478,0.8819,0.6139,0.3463,0.2459,0.1454,0.0,0.0,0.0,0.0,0.0,0.0,-0.1566,-0.0896,-0.2014,-0.4136,-0.3798,-0.4244,-0.5586,-0.6473,-0.703,-0.7371,-0.838,-0.8937,-0.8937,-0.8937,-0.9695,-1.142,-1.5834,-1.9698,-2.2466,-2.5168,-2.7338,-2.9257,-3.0261,-3.2303,-3.5465,-3.629,-3.7486,-3.9884,-4.1346,-4.2252,-4.3031,-4.4719,-4.5915,-4.6365,-4.715,-4.7797,-4.8132,-4.8324,-4.8324,-4.8364,-4.8657,-4.8897,-4.9126,-4.8847,-4.8604,-4.864,-4.8477,-4.8324,-4.8229,-4.7756,-4.7512,-4.7324,-4.691,-4.6288,-4.5783,-4.5614,-4.5372,-4.4835,-4.4536,-4.4202,-4.4236,-4.397,-4.3896,-4.3813,-4.3796,-4.3498,-4.3003,-4.2413,-4.2029,-4.1047,-4.0651,-4.1324,-4.2039,-4.2919,-4.3483,-4.3792,-4.4347,-4.5182,-4.5859,-4.6443,-4.7219,-4.7937,-4.8306,-4.8306,2.5732,2.5732,2.5732,2.5732,2.5635,2.4824,2.4205,2.3384,2.1456,2.0135,1.942,1.8199,1.7147,1.628,1.5636,1.4556,1.294,1.1647,1.0676,0.9915,0.9154,0.6811,0.4021,0.313,0.2125,0.0,0.0,0.0,0.0,0.0,0.0,-0.0896,-0.0448,-0.1232,-0.3242,-0.2794,-0.2905,-0.447,-0.5475,-0.6033,-0.5919,-0.7826,-0.8276,-0.838,-0.8595,-1.012,-1.3612,-1.6951,-2.028,-2.3899,-2.6486,-2.836,-2.9939,-3.0761,-3.2954,-3.6438,-3.6512,-3.7548,-4.0147,-4.1543,-4.2395,-4.3436,-4.4861,-4.5765,-4.6257,-4.7017,-4.7955,-4.7856,-4.8132,-4.8267,-4.8364,-4.8657,-4.9234,-4.9773,-4.9295,-4.8847,-4.893,-4.8532,-4.8344,-4.8229,-4.8035,-4.7756,-4.7756,-4.7367,-4.6955,-4.6542,-4.6401,-4.5883,-4.5232,-4.5035,-4.4797,-4.4665,-4.457,-4.439,-4.4243,-4.4209,-4.4192,-4.3831,-4.3631,-4.3454,-4.2991,-4.2277,-4.2634,-4.3222,-4.4074,-4.4665,-4.4852,-4.5142,-4.5662,-4.6242,-4.6553,-4.7088,-4.7897,-4.8324,-4.8324,2.5732,2.5732,2.5732,2.5732,2.5732,2.5635,2.502,2.389,2.2466,2.1143,1.9826,1.8401,1.7562,1.7259,1.5524,1.4984,1.4443,1.1755,1.0891,1.0131,0.9368,0.7257,0.5027,0.4359,0.2684,0.0,0.0,0.0,0.0,0.0,0.0,0.0,0.0,-0.0672,-0.179,-0.1901,-0.2683,-0.3578,-0.4249,-0.4583,-0.4693,-0.6596,-0.749,-0.7374,-0.8377,-1.1589,-1.5358,-1.7743,-1.9827,-2.543,-2.7043,-2.87,-3.0569,-3.0992,-3.3326,-3.6307,-3.6758,-3.7534,-4.027,-4.1658,-4.2442,-4.3555,-4.5164,-4.6094,-4.6063,-4.7062,-4.7756,-4.7715,-4.8017,-4.8267,-4.8364,-4.8692,-4.9356,-5.0024,-4.9781,-4.9399,-4.8996,-4.8605,-4.8343,-4.8324,-4.8306,-4.8306,-4.8324,-4.8267,-4.8035,-4.6955,-4.6774,-4.6161,-4.5511,-4.5089,-4.4852,-4.4609,-4.457,-4.457,-4.4553,-4.4553,-4.4536,-4.435,-4.4276,-4.4181,-4.4051,-4.3712,-4.3961,-4.439,-4.478,-4.5178,-4.5545,-4.5883,-4.6257,-4.6682,-4.7044,-4.7554,-4.8132,-4.8267,-4.8324,2.5732,2.5732,2.5732,2.5732,2.5732,2.5732,2.5528,2.5118,2.3791,2.2357,2.1143,1.9723,1.7955,1.5956,1.4556,1.3156,1.229,1.0457,0.9372,0.9372,0.9154,0.7931,0.6142,0.514,0.2908,0.0,0.0,0.0,0.0,0.0,0.0,0.0,0.0,0.0,0.0,0.0,0.0,0.0,0.0,-0.2011,-0.3016,-0.4575,-0.6026,-0.67,-0.8156,-1.1688,-1.5977,-1.7328,-2.0038,-2.4646,-2.78,-2.9406,-3.0169,-3.1675,-3.3975,-3.5913,-3.6609,-3.7806,-4.0852,-4.1933,-4.2707,-4.4105,-4.4855,-4.532,-4.6192,-4.6571,-4.7324,-4.7797,-4.821,-4.8306,-4.8402,-4.8963,-4.9445,-4.9762,-4.9911,-4.9806,-4.9426,-4.8985,-4.864,-4.8398,-4.8324,-4.8324,-4.8324,-4.8267,-4.7955,-4.747,-4.691,-4.6336,-4.5783,-4.5178,-4.4906,-4.4665,-4.457,-4.457,-4.457,-4.457,-4.457,-4.4665,-4.4703,-4.4759,-4.4703,-4.478,-4.4855,-4.5001,-4.5267,-4.5699,-4.6112,-4.6288,-4.6571,-4.7044,-4.747,-4.7797,-4.8132,-4.8229,-4.8402,2.6572,2.6572,2.5927,2.5732,2.5732,2.5732,2.5732,2.543,2.4304,2.2968,2.1651,2.0238,1.8373,1.628,1.4347,1.2837,1.1755,0.9915,0.8937,0.8937,0.8826,0.8045,0.67,0.5139,0.3242,0.1119,0.0,0.0,0.0,0.0,0.0,0.0,0.0,0.0,0.0,0.0,0.0,0.0,0.0,-0.0448,-0.1342,-0.2903,-0.4797,-0.6589,-0.826,-1.1059,-1.4824,-1.6697,-1.9513,-2.361,-2.7749,-3.0101,-3.0593,-3.2495,-3.4793,-3.6494,-3.7035,-3.8502,-4.1068,-4.2109,-4.2769,-4.444,-4.5089,-4.5511,-4.624,-4.6664,-4.7385,-4.7856,-4.8114,-4.8364,-4.8568,-4.8863,-4.9295,-4.977,-4.9969,-4.9994,-4.9736,-4.9266,-4.873,-4.8416,-4.8324,-4.8324,-4.8286,-4.819,-4.7897,-4.7428,-4.6847,-4.6288,-4.5833,-4.5267,-4.4998,-4.4776,-4.4626,-4.457,-4.457,-4.457,-4.457,-4.4759,-4.4944,-4.5035,-4.5125,-4.532,-4.5494,-4.5648,-4.5783,-4.6305,-4.6664,-4.6801,-4.707,-4.7554,-4.7977,-4.8075,-4.8231,-4.8477,-4.8604,2.7778,2.7494,2.6476,2.5917,2.5732,2.5732,2.5732,2.5528,2.451,2.3276,2.1651,2.0436,1.9109,1.7239,1.4883,1.3588,1.2186,1.0351,0.8937,0.8937,0.8937,0.8266,0.7035,0.5361,0.3911,0.2459,0.0784,0.0,0.0,0.0,0.0,0.0,0.0,0.0,0.0,0.0,0.0,0.0,0.0,0.0,0.0,-0.2126,-0.4249,-0.6478,-0.8152,-1.0315,-1.3469,-1.5971,-1.8671,-2.1628,-2.7537,-3.0382,-3.1651,-3.3553,-3.5714,-3.761,-3.7663,-3.9158,-4.1283,-4.2109,-4.2753,-4.4423,-4.5407,-4.5915,-4.6046,-4.6847,-4.7512,-4.7797,-4.8017,-4.8439,-4.8744,-4.8897,-4.9234,-4.9698,-4.995,-5.0057,-4.9917,-4.9402,-4.9027,-4.8513,-4.8364,-4.8324,-4.8172,-4.8075,-4.7756,-4.7428,-4.6847,-4.6336,-4.5865,-4.5459,-4.5142,-4.4814,-4.4626,-4.4852,-4.4906,-4.5267,-4.5178,-4.5178,-4.5355,-4.5511,-4.5699,-4.6081,-4.6257,-4.6161,-4.6401,-4.6847,-4.7331,-4.7606,-4.7904,-4.8288,-4.8477,-4.8621,-4.8709,-4.8779,-4.8863,2.8505,2.7589,2.74,2.6668,2.583,2.5732,2.5732,2.5635,2.5421,2.3998,2.1853,2.144,1.9826,1.7759,1.5956,1.3804,1.1647,0.9809,0.8937,0.8937,0.8937,0.8602,0.7931,0.5919,0.447,0.3466,0.1567,0.0,0.0,0.0,0.0,0.0,0.0,0.0,0.0,0.0,0.0,0.0,0.0,0.0,0.0,-0.2129,-0.414,-0.648,-0.8042,-1.021,-1.2944,-1.5761,-1.8568,-2.1753,-2.7656,-3.0386,-3.1797,-3.4209,-3.648,-3.7454,-3.791,-3.9173,-4.138,-4.1997,-4.2892,-4.4162,-4.4998,-4.5597,-4.6063,-4.6664,-4.7428,-4.7995,-4.8172,-4.8344,-4.8402,-4.8657,-4.8897,-4.9232,-4.9651,-4.9953,-4.9765,-4.9679,-4.9476,-4.8893,-4.8604,-4.8267,-4.8172,-4.8017,-4.7797,-4.753,-4.7088,-4.6618,-4.6209,-4.5732,-4.5372,-4.4998,-4.4626,-4.4944,-4.5284,-4.5783,-4.6046,-4.5965,-4.6063,-4.6161,-4.643,-4.6864,-4.7062,-4.6972,-4.7114,-4.75,-4.7926,-4.831,-4.8495,-4.864,-4.8881,-4.9158,-4.9108,-4.9108,-4.9276,3.0045,2.9315,2.814,2.7243,2.6658,2.5917,2.5732,2.5732,2.5635,2.4609,2.2968,2.1954,2.0641,1.8478,1.6274,1.3798,1.1428,0.9592,0.8937,0.8937,0.8937,0.8937,0.8716,0.6589,0.5361,0.4134,0.2237,0.0672,0.0,0.0,0.0,0.0,0.0,0.0,0.0,0.0,0.0,0.0,0.0,0.0,0.0,-0.2353,-0.4474,-0.5697,-0.7814,-0.9896,-1.213,-1.5563,-1.817,-2.1424,-2.7758,-3.0983,-3.2922,-3.5263,-3.7774,-3.7914,-3.8296,-3.929,-4.1064,-4.1674,-4.2645,-4.3781,-4.4783,-4.5681,-4.643,-4.7044,-4.7596,-4.8075,-4.8324,-4.8324,-4.8344,-4.8513,-4.8657,-4.8963,-4.9438,-4.9717,-4.9841,-4.9959,-4.9679,-4.9215,-4.8897,-4.8532,-4.821,-4.8075,-4.7897,-4.7614,-4.7281,-4.691,-4.6524,-4.6209,-4.5783,-4.5597,-4.5355,-4.5597,-4.5965,-4.6395,-4.6738,-4.671,-4.6811,-4.6919,-4.707,-4.7494,-4.7756,-4.7797,-4.7999,-4.8292,-4.8476,-4.8826,-4.8897,-4.8963,-4.9234,-4.9416,-4.9397,-4.9456,-4.9673,3.1412,3.1021,2.909,2.8036,2.7484,2.6572,2.5917,2.5732,2.5732,2.4922,2.3692,2.2567,2.1253,1.9088,1.6355,1.3588,1.1319,0.9805,0.8937,0.8937,0.8937,0.8937,0.8491,0.7374,0.5919,0.4359,0.2795,0.1454,0.0,0.0,0.0,0.0,0.0,0.0,0.0,0.0,0.0,0.0,0.0,0.0,-0.1008,-0.3018,-0.4693,-0.5248,-0.7811,-1.0021,-1.152,-1.5593,-1.8088,-2.1615,-2.7061,-3.2582,-3.3322,-3.6915,-3.8855,-3.8457,-3.8943,-3.9834,-4.0894,-4.1609,-4.255,-4.4021,-4.5321,-4.6125,-4.6829,-4.7512,-4.8229,-4.8324,-4.8324,-4.8324,-4.8324,-4.8324,-4.8458,-4.8713,-4.9101,-4.9458,-4.9646,-4.9765,-4.9757,-4.9401,-4.9094,-4.8725,-4.8365,-4.821,-4.8035,-4.7977,-4.7638,-4.7324,-4.6955,-4.6819,-4.6542,-4.6383,-4.6336,-4.643,-4.6738,-4.7068,-4.7252,-4.7263,-4.7524,-4.7751,-4.7846,-4.802,-4.8212,-4.8421,-4.8893,-4.9146,-4.9246,-4.9246,-4.9326,-4.9445,-4.9617,-4.97,-4.97,-4.9905,-5.014,3.2239,3.1211,3.092,2.9567,2.7767,2.7389,2.6668,2.5732,2.5732,2.4922,2.389,2.3375,2.1963,1.9184,1.5388,1.348,1.2295,1.0241,0.8937,0.8937,0.8937,0.8937,0.8712,0.7371,0.6031,0.4583,0.3017,0.1454,0.0,0.0,0.0,0.0,0.0,0.0,0.0,0.0,0.0,0.0,0.0,0.0,-0.1789,-0.3576,-0.5137,-0.6689,-0.9123,-1.1105,-1.2167,-1.6243,-1.9155,-2.0586,-2.7969,-3.2206,-3.331,-3.6915,-3.8914,-3.9265,-3.9451,-4.0115,-4.1412,-4.1965,-4.2916,-4.4389,-4.5562,-4.6209,-4.7088,-4.7779,-4.8324,-4.8324,-4.8324,-4.8324,-4.8324,-4.8324,-4.8344,-4.855,-4.8862,-4.902,-4.9188,-4.9776,-4.9731,-4.9401,-4.9043,-4.8744,-4.8421,-4.8326,-4.8229,-4.8172,-4.8056,-4.7761,-4.7583,-4.7547,-4.7355,-4.7234,-4.7373,-4.7557,-4.7638,-4.7936,-4.7972,-4.7947,-4.8179,-4.8512,-4.853,-4.8584,-4.8691,-4.8978,-4.9456,-4.9645,-4.9456,-4.9475,-4.9692,-4.9898,-5.0043,-5.0068,-5.0068,-5.0317,-5.0546,3.2797,3.2215,3.1499,3.0186,2.8659,2.787,2.6873,2.5907,2.5732,2.5421,2.4707,2.3989,2.2165,1.9184,1.5175,1.3372,1.2615,1.0241,0.8937,0.8937,0.8937,0.8937,0.8826,0.8152,0.6924,0.4804,0.3688,0.2125,0.0,0.0,0.0,0.0,0.0,0.0,0.0,0.0,0.0,0.0,0.0,0.0,-0.1565,-0.3899,-0.6003,-0.6782,-1.0413,-1.2394,-1.4201,-1.699,-1.991,-2.181,-2.8458,-3.2394,-3.3817,-3.6985,-4.013,-4.0185,-4.0638,-4.1028,-4.1264,-4.206,-4.3414,-4.467,-4.5845,-4.7062,-4.7756,-4.8114,-4.8324,-4.8324,-4.8324,-4.8306,-4.8344,-4.8324,-4.8324,-4.8475,-4.8842,-4.8927,-4.9104,-4.9569,-4.9795,-4.9375,-4.9011,-4.8779,-4.864,-4.8657,-4.8657,-4.8657,-4.8725,-4.8704,-4.8649,-4.8751,-4.8455,-4.8086,-4.8347,-4.8664,-4.8732,-4.8884,-4.8833,-4.8855,-4.8837,-4.907,-4.9089,-4.9139,-4.9202,-4.9337,-4.97,-4.9728,-4.957,-4.9853,-5.0206,-5.0336,-5.0462,-5.0442,-5.0404,-5.0567,-5.0764,3.3081,3.3031,3.2056,3.0925,2.975,2.8549,2.74,2.6187,2.582,2.5732,2.5226,2.3899,2.1954,1.959,1.6019,1.3804,1.3053,1.0566,0.9372,0.9047,0.8937,0.8937,0.8826,0.8602,0.7482,0.5027,0.447,0.3019,0.1232,0.0,0.0,0.0,0.0,0.0,0.0,0.0,0.0,0.0,0.0,0.0,-0.1342,-0.4557,-0.6323,-0.841,-1.115,-1.4341,-1.5612,-1.8497,-2.0774,-2.2586,-2.8577,-3.2534,-3.3365,-3.7419,-4.0298,-4.0754,-4.128,-4.1885,-4.2187,-4.2829,-4.3793,-4.5114,-4.6318,-4.7761,-4.8271,-4.8402,-4.8495,-4.864,-4.8513,-4.8532,-4.8568,-4.864,-4.8711,-4.8847,-4.9015,-4.9062,-4.9158,-4.9394,-4.9702,-4.9608,-4.9295,-4.8963,-4.8915,-4.9029,-4.9062,-4.9094,-4.9265,-4.9475,-4.9504,-4.9485,-4.9258,-4.8803,-4.8936,-4.9208,-4.9318,-4.9456,-4.9532,-4.9608,-4.9617,-4.9532,-4.9445,-4.9532,-4.9617,-4.98,-4.9974,-5.0092,-5.0116,-5.0421,-5.0683,-5.0624,-5.0585,-5.0683,-5.0718,-5.0863,-5.0953,3.3081,3.3081,3.3031,3.2202,3.0956,2.9761,2.8577,2.721,2.6207,2.5732,2.5333,2.3176,2.1853,2.0405,1.718,1.4341,1.327,1.1647,1.0347,0.9372,0.8937,0.9154,0.9154,0.893,0.8149,0.6366,0.5363,0.3799,0.2125,0.0,0.0,0.0,0.0,0.0,0.0,0.0,0.0,0.0,0.0,0.0,-0.2121,-0.4888,-0.7199,-0.929,-1.2567,-1.5411,-1.5624,-1.9243,-2.1424,-2.1988,-2.8676,-3.265,-3.3733,-3.8098,-4.0626,-4.1336,-4.2061,-4.2883,-4.3671,-4.3979,-4.5114,-4.6603,-4.7783,-4.8328,-4.8674,-4.8477,-4.8657,-4.9139,-4.8963,-4.9011,-4.9202,-4.9386,-4.9221,-4.9234,-4.9265,-4.9295,-4.9202,-4.8963,-4.9283,-4.9589,-4.9475,-4.9094,-4.9126,-4.9234,-4.9265,-4.9295,-4.9617,-4.9853,-4.9719,-4.9673,-4.9617,-4.9426,-4.9456,-4.9542,-4.9589,-4.9719,-4.9949,-4.9993,-4.9974,-4.9827,-4.9673,-4.9827,-5.0068,-5.0159,-5.0313,-5.0523,-5.0644,-5.0721,-5.0758,-5.0702,-5.0721,-5.0789,-5.0884,-5.0989,-5.1054,3.3081,3.3081,3.3081,3.2339,3.1134,2.9954,2.868,2.7494,2.6284,2.5732,2.5538,2.2976,2.1744,2.0507,1.739,1.4663,1.3264,1.1755,1.0891,1.0457,1.0241,1.0241,1.0241,0.9801,0.9133,0.7143,0.5919,0.4468,0.2235,0.1454,0.0784,0.0,0.0,0.0,0.0,0.0,0.0,0.0,0.0,0.0,-0.1564,-0.5535,-0.8272,-0.904,-1.4185,-1.638,-1.7233,-2.0002,-2.1237,-2.3571,-2.9112,-3.1952,-3.4235,-3.8843,-4.1325,-4.2235,-4.3234,-4.4359,-4.5096,-4.5234,-4.5786,-4.7464,-4.8384,-4.8744,-4.8978,-4.893,-4.9108,-4.9356,-4.9405,-4.9416,-4.9445,-4.9504,-4.9445,-4.9504,-4.9561,-4.957,-4.9475,-4.9234,-4.9202,-4.9673,-4.9445,-4.9029,-4.9234,-4.9445,-4.9475,-4.9504,-4.9879,-5.0159,-5.0024,-4.9974,-4.9949,-4.9949,-4.9949,-5.0043,-5.0092,-5.0249,-5.0399,-5.0336,-5.0294,-5.0183,-5.0068,-5.0252,-5.0464,-5.0544,-5.0566,-5.0664,-5.0738,-5.0791,-5.0791,-5.0757,-5.0803,-5.0879,-5.1011,-5.1117,-5.1174,3.3081,3.3081,3.3081,3.2612,3.1601,3.0045,2.8947,2.7945,2.638,2.5732,2.5528,2.2968,2.1744,2.0609,1.7928,1.4984,1.3696,1.2724,1.186,1.1324,1.1,1.1109,1.1,1.0347,0.914,0.7479,0.67,0.5357,0.3908,0.2793,0.1677,0.0896,0.0,0.0,0.0,0.0,0.0,0.0,0.0,0.0,0.0,-0.5539,-0.8699,-0.9779,-1.4781,-1.7857,-1.9265,-2.1544,-2.3475,-2.5897,-2.9753,-3.3822,-3.6448,-3.9076,-4.2199,-4.3589,-4.4606,-4.578,-4.6259,-4.674,-4.6924,-4.8273,-4.8829,-4.9108,-4.9276,-4.9445,-4.9504,-4.9898,-4.98,-4.97,-4.9762,-4.9992,-5.0011,-5.0102,-4.9988,-4.9964,-4.9911,-4.9746,-4.9673,-4.98,-4.9445,-4.9234,-4.9504,-4.9773,-4.9898,-4.9949,-5.0206,-5.0421,-5.0399,-5.0358,-5.0399,-5.0421,-5.044,-5.0544,-5.0663,-5.0604,-5.0544,-5.0544,-5.0504,-5.0565,-5.0565,-5.0702,-5.0738,-5.0735,-5.0752,-5.0805,-5.0867,-5.0932,-5.0879,-5.0771,-5.0879,-5.1015,-5.1117,-5.121,-5.1288,3.3081,3.3081,3.3081,3.3081,3.2624,3.0418,2.9407,2.8855,2.6744,2.5732,2.5323,2.2868,2.1744,2.1033,1.8478,1.5956,1.4234,1.4449,1.3804,1.2186,1.1969,1.1542,1.0891,1.0347,0.9695,0.8709,0.7706,0.6811,0.6142,0.4131,0.2794,0.1566,0.0,0.0,0.0,0.0,0.0,0.0,0.0,0.0,0.0,-0.566,-0.8388,-1.0625,-1.5704,-1.9109,-2.0397,-2.3688,-2.5579,-2.7076,-3.2634,-3.6198,-3.7533,-4.1018,-4.331,-4.3829,-4.506,-4.6099,-4.6956,-4.8089,-4.8667,-4.8859,-4.9265,-4.9561,-4.9827,-4.9853,-4.9886,-5.0344,-5.0301,-5.0301,-5.0509,-5.0715,-5.0642,-5.0586,-5.0451,-5.0394,-5.0334,-5.0218,-5.0157,-4.9973,-4.9736,-4.9636,-4.9898,-5.0116,-5.0313,-5.0442,-5.0604,-5.0663,-5.0624,-5.0624,-5.0624,-5.0624,-5.0624,-5.0663,-5.0683,-5.0683,-5.0663,-5.0683,-5.0721,-5.0757,-5.0789,-5.0851,-5.0879,-5.0889,-5.0932,-5.094,-5.1008,-5.1084,-5.1023,-5.1,-5.1064,-5.118,-5.1234,-5.1289,-5.1348,3.3081,3.3081,3.3081,3.3081,3.2896,3.1323,3.0124,2.9039,2.6924,2.5732,2.5118,2.2868,2.1744,2.0829,1.8894,1.6499,1.5097,1.4877,1.4336,1.4014,1.3691,1.3259,1.2507,1.1538,1.0566,0.9261,0.8266,0.7482,0.6589,0.5248,0.3687,0.2459,0.0,0.0,0.0,0.0,0.0,0.0,0.0,0.0,0.0,-0.5535,-0.9338,-1.0349,-1.6409,-2.0112,-2.1391,-2.5474,-2.7466,-2.8656,-3.4441,-3.7866,-3.925,-4.2495,-4.4614,-4.5563,-4.6913,-4.7847,-4.8584,-4.9281,-4.9514,-4.9561,-4.9681,-4.998,-5.0049,-5.0272,-5.0488,-5.0715,-5.0677,-5.0726,-5.092,-5.0959,-5.094,-5.094,-5.0882,-5.0882,-5.0801,-5.0668,-5.0528,-5.0272,-5.003,-4.9973,-5.0149,-5.039,-5.0587,-5.0644,-5.0756,-5.0721,-5.0683,-5.0683,-5.0664,-5.0683,-5.0683,-5.0683,-5.0702,-5.0775,-5.0805,-5.0819,-5.0848,-5.0894,-5.0945,-5.0998,-5.0996,-5.1011,-5.1044,-5.1094,-5.112,-5.1167,-5.1224,-5.1249,-5.1258,-5.1269,-5.1308,-5.1348,-5.1367,3.3081,3.3081,3.3081,3.3081,3.2896,3.1777,3.0305,2.8577,2.6658,2.5732,2.5118,2.2868,2.1744,2.0931,1.8894,1.6823,1.5524,1.6062,1.5524,1.5524,1.5417,1.4336,1.3475,1.2724,1.0781,0.9482,0.8826,0.8266,0.7595,0.6927,0.5025,0.2571,0.1231,0.0,0.0,0.0,0.0,0.0,0.0,0.0,0.0,-0.5496,-0.9888,-1.2447,-1.6834,-2.1904,-2.4036,-2.6661,-2.9573,-3.1782,-3.5391,-3.9656,-4.1596,-4.37,-4.5917,-4.7057,-4.8087,-4.8959,-4.957,-5.0096,-5.0183,-5.0096,-5.0246,-5.0372,-5.0452,-5.0653,-5.0805,-5.0926,-5.0966,-5.1027,-5.1103,-5.1113,-5.112,-5.112,-5.1109,-5.1109,-5.1054,-5.0908,-5.0835,-5.0571,-5.0468,-5.0433,-5.0413,-5.0619,-5.0859,-5.0844,-5.0832,-5.0789,-5.0739,-5.0757,-5.0756,-5.0773,-5.0805,-5.0848,-5.0863,-5.0894,-5.0932,-5.0953,-5.0991,-5.1008,-5.1053,-5.1094,-5.1102,-5.1145,-5.1187,-5.121,-5.121,-5.125,-5.1289,-5.1328,-5.134,-5.1348,-5.1387,-5.1387,-5.1387,3.3081,3.3081,3.3081,3.3081,3.2896,3.1601,2.9761,2.7683,2.6284,2.5732,2.5528,2.2868,2.1744,2.1135,1.8805,1.6929,1.6068,1.6929,1.6605,1.5962,1.5849,1.4663,1.3372,1.2186,1.0785,0.9592,0.8826,0.8826,0.8602,0.7371,0.5137,0.3016,0.2124,0.1119,0.0,0.0,0.0,0.0,0.0,0.0,0.0,-0.7058,-1.0784,-1.4173,-1.9348,-2.3989,-2.7087,-3.0238,-3.3515,-3.6693,-4.0388,-4.2556,-4.4448,-4.5994,-4.6729,-4.7586,-4.8684,-4.9504,-5.0103,-5.0653,-5.0782,-5.0709,-5.0811,-5.0959,-5.0977,-5.0977,-5.1011,-5.1074,-5.1084,-5.1113,-5.1131,-5.1167,-5.1185,-5.1191,-5.1177,-5.1154,-5.1145,-5.1102,-5.1074,-5.0986,-5.0953,-5.0926,-5.0869,-5.102,-5.0981,-5.0991,-5.0946,-5.0875,-5.084,-5.0889,-5.0903,-5.0918,-5.0966,-5.1042,-5.1053,-5.1,-5.1033,-5.1045,-5.1084,-5.1102,-5.1137,-5.118,-5.1205,-5.1258,-5.132,-5.1348,-5.1308,-5.1328,-5.1367,-5.1387,-5.1367,-5.1387,-5.1387,-5.1387,-5.1387,3.3081,3.3081,3.3081,3.3081,3.2797,3.0866,2.9498,2.8669,2.6658,2.5732,2.5528,2.2868,2.1845,2.144,1.8812,1.7562,1.7252,1.7252,1.7259,1.7041,1.6717,1.5204,1.3911,1.262,1.1109,0.9699,0.8937,0.8937,0.8602,0.7482,0.6031,0.4134,0.3125,0.1789,0.0,0.0,0.0,0.0,0.0,0.0,-0.4286,-0.8852,-1.2436,-1.7333,-2.2611,-2.6869,-2.961,-3.3338,-3.629,-3.8001,-4.1719,-4.4057,-4.4958,-4.6922,-4.8367,-4.971,-5.0351,-5.0657,-5.0796,-5.0945,-5.1044,-5.1081,-5.1106,-5.1074,-5.1102,-5.1101,-5.1133,-5.1148,-5.1162,-5.1156,-5.119,-5.1223,-5.1227,-5.1228,-5.121,-5.1171,-5.1162,-5.1135,-5.1132,-5.1132,-5.1113,-5.1096,-5.1083,-5.1082,-5.1035,-5.1064,-5.1054,-5.0975,-5.0928,-5.0977,-5.0967,-5.0977,-5.1039,-5.1088,-5.1086,-5.1064,-5.1098,-5.1147,-5.1154,-5.1182,-5.1246,-5.1299,-5.1322,-5.1346,-5.1348,-5.1367,-5.1387,-5.1387,-5.1328,-5.1387,-5.1387,-5.1387,-5.1387,-5.1367,-5.1348,3.3313,3.3641,3.324,3.3081,3.2711,3.0418,2.959,2.9498,2.703,2.5732,2.543,2.3484,2.2156,2.1448,1.9517,1.8087,1.7582,1.7582,1.7477,1.7477,1.7589,1.6068,1.477,1.3372,1.186,1.0347,0.9154,0.8937,0.8819,0.8806,0.7793,0.6345,0.4675,0.3119,0.0,0.0,0.0,0.0,0.0,0.0,-0.6421,-1.0796,-1.57,-2.072,-2.6197,-2.9673,-3.2125,-3.6262,-3.7853,-3.9908,-4.3936,-4.5417,-4.6499,-4.8427,-4.9625,-5.071,-5.0894,-5.0973,-5.1025,-5.1092,-5.1135,-5.1164,-5.1185,-5.115,-5.1127,-5.113,-5.1149,-5.117,-5.1171,-5.1185,-5.1232,-5.1277,-5.1277,-5.1277,-5.1221,-5.1185,-5.1162,-5.1156,-5.1154,-5.1148,-5.1132,-5.1093,-5.1089,-5.1084,-5.1086,-5.1094,-5.1093,-5.1053,-5.1033,-5.1034,-5.0998,-5.0945,-5.1032,-5.1094,-5.1079,-5.1102,-5.1127,-5.1152,-5.1172,-5.121,-5.1322,-5.1366,-5.1348,-5.1347,-5.1325,-5.1328,-5.1308,-5.1269,-5.125,-5.1304,-5.1307,-5.1269,-5.1269,-5.1269,-5.1269,3.3628,3.4428,3.3569,3.3081,3.2785,3.0586,3.0214,3.0676,2.7484,2.5927,2.5616,2.4295,2.2876,2.155,2.0033,1.8805,1.8199,1.7786,1.7891,1.7687,1.7582,1.6605,1.5204,1.4019,1.2615,1.1105,1.0135,0.9588,0.9699,1.001,1.0202,0.9194,0.7095,0.5861,0.5503,0.1562,0.0,0.0,0.0,-0.2651,-0.814,-1.3266,-1.8715,-2.3916,-2.9282,-3.3904,-3.6262,-3.8351,-3.9973,-4.3409,-4.5933,-4.7122,-4.8579,-4.9643,-5.0494,-5.0889,-5.1076,-5.1096,-5.1118,-5.1144,-5.1128,-5.113,-5.1148,-5.1138,-5.1143,-5.1137,-5.1141,-5.1156,-5.1157,-5.1141,-5.1154,-5.1167,-5.1186,-5.1152,-5.112,-5.112,-5.1125,-5.1121,-5.1122,-5.1127,-5.1113,-5.1089,-5.1084,-5.1082,-5.1089,-5.1089,-5.1086,-5.1094,-5.1043,-5.1039,-5.1011,-5.0945,-5.1019,-5.1084,-5.1099,-5.1113,-5.1115,-5.1128,-5.1146,-5.1177,-5.1235,-5.1285,-5.1364,-5.1313,-5.1245,-5.1221,-5.1211,-5.1174,-5.1172,-5.1164,-5.1164,-5.1113,-5.1111,-5.114,-5.118,3.3227,3.3484,3.3227,3.3081,3.2896,3.1412,3.0855,3.0944,2.8308,2.7125,2.6733,2.4767,2.2976,2.1651,2.0231,1.9213,1.8812,1.7996,1.8297,1.8199,1.7989,1.7035,1.5743,1.4877,1.3475,1.1755,1.0672,1.0668,1.0672,1.1638,1.2567,1.1729,0.9446,0.8019,0.9226,0.4291,0.1668,0.2876,0.0778,-0.3898,-1.0467,-1.5103,-1.9957,-2.7536,-3.419,-3.6045,-3.8412,-4.0845,-4.256,-4.4961,-4.7181,-4.8713,-5.0038,-5.034,-5.0716,-5.1079,-5.1113,-5.111,-5.1107,-5.1093,-5.1049,-5.1037,-5.1062,-5.1102,-5.1122,-5.1111,-5.1102,-5.1074,-5.1074,-5.1054,-5.1033,-5.1033,-5.1063,-5.102,-5.1016,-5.105,-5.1063,-5.1063,-5.1074,-5.1074,-5.1074,-5.1074,-5.1063,-5.1074,-5.1094,-5.1084,-5.1084,-5.1074,-5.0965,-5.0945,-5.0996,-5.0957,-5.1042,-5.1102,-5.1084,-5.1063,-5.1031,-5.1064,-5.1098,-5.1125,-5.1128,-5.1193,-5.1235,-5.1193,-5.1139,-5.112,-5.112,-5.1122,-5.1094,-5.1042,-5.102,-5.0991,-5.0953,-5.0965,-5.1023,3.3398,3.3713,3.3326,3.3081,3.2896,3.1765,3.15,3.1412,2.8866,2.7851,2.784,2.5227,2.2976,2.1651,2.0231,1.922,1.8812,1.7996,1.7996,1.8094,1.8094,1.7351,1.6499,1.5743,1.5394,1.3777,1.3018,1.2803,1.1751,1.3254,1.4174,1.44,1.1912,1.0675,1.1741,0.612,0.2874,0.3202,0.1115,-0.3106,-1.0276,-1.4484,-2.3493,-3.2228,-3.7341,-3.9259,-4.161,-4.4064,-4.5349,-4.695,-4.8856,-4.9566,-5.0331,-5.0468,-5.0742,-5.1001,-5.1115,-5.1122,-5.1072,-5.0957,-5.0811,-5.0752,-5.0523,-5.0402,-5.0259,-5.0259,-5.046,-5.0463,-5.0542,-5.0526,-5.0526,-5.0526,-5.0706,-5.0781,-5.0819,-5.0851,-5.0863,-5.0863,-5.0863,-5.0863,-5.0879,-5.0879,-5.0863,-5.0863,-5.0879,-5.0879,-5.0903,-5.086,-5.0797,-5.0694,-5.0793,-5.087,-5.0907,-5.0912,-5.0874,-5.0874,-5.0903,-5.0959,-5.1025,-5.1064,-5.1084,-5.1094,-5.1094,-5.1063,-5.105,-5.1016,-5.1016,-5.0991,-5.0945,-5.0883,-5.0863,-5.0859,-5.0871,-5.0955,-5.1076,3.3641,3.4262,3.3471,3.3081,3.2982,3.1965,3.1952,3.2152,2.9326,2.8319,2.838,2.5227,2.3067,2.1651,2.0231,1.9013,1.8094,1.7786,1.7793,1.7996,1.7793,1.747,1.6929,1.6174,1.5394,1.547,1.524,1.3444,1.1751,1.4426,1.6647,1.7442,1.6267,1.4472,1.1668,0.8142,0.5454,0.2983,0.1324,0.1389,-0.4429,-1.1538,-2.3796,-3.3419,-4.0662,-4.3801,-4.5828,-4.6901,-4.7793,-4.8676,-4.9591,-5.0097,-5.0228,-5.025,-5.051,-5.0697,-5.0491,-5.0579,-5.0674,-5.0484,-5.0334,-5.0141,-4.982,-4.9657,-4.9561,-4.9644,-4.9853,-4.9896,-4.9992,-5.0168,-5.0168,-5.0168,-5.0383,-5.0466,-5.0545,-5.0545,-5.0545,-5.0526,-5.0526,-5.0526,-5.0526,-5.0526,-5.0545,-5.0545,-5.0565,-5.0565,-5.0565,-5.0544,-5.0485,-5.0366,-5.035,-5.047,-5.0567,-5.0587,-5.0683,-5.0771,-5.0832,-5.0835,-5.0898,-5.0966,-5.0972,-5.0953,-5.094,-5.0979,-5.0959,-5.0947,-5.0887,-5.0839,-5.0775,-5.0874,-5.1085,-5.1254,-5.1315,-5.1375,-5.1337,3.324,3.3398,3.3154,3.3081,3.3081,3.2797,3.2326,3.1323,2.9863,2.868,2.7463,2.5227,2.2976,2.1651,2.0231,1.922,1.8916,1.8199,1.8506,1.9013,1.7989,1.7687,1.7667,1.7305,1.4539,1.4624,1.5665,1.5364,1.4196,1.6858,1.9479,2.0672,1.9224,1.7876,1.685,1.2924,0.8625,0.6342,0.4349,0.4115,-0.0544,-0.876,-1.9276,-2.8767,-3.7327,-4.2737,-4.6368,-4.6653,-4.7339,-4.8143,-4.8916,-4.955,-4.9682,-4.9572,-4.9698,-5.0029,-4.9825,-4.9733,-4.9752,-4.9711,-4.958,-4.9565,-4.9315,-4.9324,-4.9307,-4.9386,-4.9457,-4.937,-4.9542,-5.0092,-5.014,-5.0024,-5.0116,-5.0049,-5.0068,-4.9949,-4.9879,-4.9879,-4.9879,-4.9879,-4.9879,-4.9879,-4.9879,-4.9879,-4.9879,-4.9898,-4.9924,-4.9924,-4.9949,-4.9924,-4.9898,-5.0043,-5.0202,-5.0462,-5.0625,-5.0771,-5.0835,-5.0808,-5.0756,-5.0764,-5.0781,-5.0756,-5.0793,-5.0835,-5.088,-5.0891,-5.0817,-5.1087,-5.1087,-5.128,-5.1568,-5.1741,-5.1798,-5.1853,-5.1847]},{"header":{"parameterUnit":"m.s-1","parameterCategory":1,"la1":31.0,"la2":29.5877,"lo1":-88.7671,"lo2":-86.6584,"dy":0.0162,"dx":0.0185,"nx":115,"ny":88,"refTime":"2023-06-17T18:00:00:Z","depth":0,"parameterNumber":3,"parameterNumberName":"V-component_of_WINDS"},"data":[0.0,0.0,0.0,0.0,0.0,0.0,0.0,0.0,0.0,0.0,0.0,0.0,0.0,0.0,0.0,0.0,0.0,0.0,0.0,0.0,0.0,0.0,0.0,0.0,0.0,0.0,0.0,0.0,0.0,0.0,0.0,0.0,0.0,0.0,0.0,0.0,0.0,0.0,0.0,0.0,0.0,0.0,0.0,0.0,0.0,0.0,0.0,0.0,0.0,0.0,0.0,0.0,0.0,0.0,0.0,0.0,0.0,0.0,0.0,0.0,0.0,0.0,0.0,0.0,0.0,0.0,0.0,0.0,0.0,0.0,0.0,0.0,0.0,0.0,0.0,0.0,0.0,0.0,0.0,0.0,0.0,0.0,0.0,0.0,0.0,0.0,0.0,0.0,0.0,0.0,0.0,0.0,0.0,0.0,0.0,0.0,0.0,0.0,0.0,0.0,0.0,0.0,0.0,0.0,0.0,0.0,0.0,0.0,0.0,0.0,0.0,0.0,0.0,0.0,0.0,0.0,0.0,0.0,0.0,0.0,0.0,0.0,0.0,0.0,0.0,0.0,0.0,0.0,0.0,0.0,0.0,0.0,0.0,0.0,0.0,0.0,0.0,0.0,0.0,0.0,0.0,0.0,0.0,0.0,0.0,0.0,0.0,0.0,0.0,0.0,0.0,0.0,0.0,0.0,0.0,0.0,0.0,0.0,0.0,0.0,0.0,0.0,0.0,0.0,0.0,0.0,0.0,0.0,0.0,0.0,0.0,0.0,0.0,0.0,0.0,0.0,0.0,0.0,0.0,0.0,0.0,0.0,0.0,0.0,0.0,0.0,0.0,0.0,0.0,0.0,0.0,0.0,0.0,0.0,0.0,0.0,0.0,0.0,0.0,0.0,0.0,0.0,0.0,0.0,0.0,0.0,0.0,0.0,0.0,0.0,0.0,0.0,0.0,0.0,0.0,0.0,0.0,0.0,0.0,0.0,0.0,0.0,0.0,0.0,0.0,0.0,0.0,0.0,0.0,0.0,0.0,0.0,0.0,0.0,0.0,0.0,0.0,0.0,0.0,0.0,0.0,0.0,0.0,0.0,0.0,0.0,0.0,0.0,0.0,0.0,0.0,0.0,0.0,0.0,0.0,0.0,0.0,0.0,0.0,0.0,0.0,0.0,0.0,0.0,0.0,0.0,0.0,0.0,0.0,0.0,0.0,0.0,0.0,0.0,0.0,0.0,0.0,0.0,0.0,0.0,0.0,0.0,0.0,0.0,0.0,0.0,0.0,0.0,0.0,0.0,0.0,0.0,0.0,0.0,0.0,0.0,0.0,0.0,0.0,0.0,0.0,0.0,0.0,0.0,0.0,0.0,0.0,0.0,0.0,0.0,0.0,0.0,0.0,0.0,0.0,0.0,0.0,0.0,0.0,0.0,0.0,0.0,0.0,0.0,0.0,0.0,0.0,0.0,0.0,0.0,0.0,0.0,0.0,0.0,0.0,0.0,0.0,0.0,0.0,0.0,0.0,0.0,0.0,0.0,0.0,0.0,0.0,0.0,0.0,0.0,0.0,0.0,0.0,0.0,0.0,0.0,0.0,0.0,0.0,0.0,0.0,0.0,0.0,0.0,0.0,0.0,0.0,0.0,0.0,0.0,0.0,0.0,0.0,0.0,0.0,0.0,0.0,0.0,0.0,0.0,0.0,0.0,0.0,0.0,0.0,0.0,0.0,0.0,0.0,0.0,0.0,0.0,0.0,0.0,0.0,0.0,0.0,0.0,0.0,0.0,0.0,0.0,0.0,0.0,0.0,0.0,0.0,0.0,0.0,0.0,0.0,0.0,0.0,0.0,0.0,0.0,0.0,0.0,0.0,0.0,0.0,0.0,0.0,0.0,0.0,0.0,0.0,0.0,0.0,0.0,0.0,0.0,0.0,0.0,0.0,0.0,0.0,0.0,0.0,0.0,0.0,0.0,0.0,0.0,0.0,0.0,0.0,0.0,0.0,0.0,0.0,0.0,0.0,0.0,0.0,0.0,0.0,0.0,0.0,0.0,0.0,0.0,0.0,0.0,0.0,0.0,0.0,0.0,0.0,0.0,0.0,0.0,0.0,0.0,0.0,0.0,0.0,0.0,0.0,0.0,0.0,0.0,0.0,0.0,0.0,0.0,0.0,0.0,0.0,0.0,0.0,0.0,0.0,0.0,0.0,0.0,0.0,0.0,0.0,0.0,0.0,0.0,0.0,0.0,0.0,0.0,0.0,0.0,0.0,0.0,0.0,0.0,0.0,0.0,0.0,0.0,0.0,0.0,0.0,0.0,0.0,0.0,0.0,0.0,0.0,0.0,0.0,0.0,0.0,0.0,0.0,0.0,0.0,0.0,0.0,0.0,0.0,0.0,0.0,0.0,0.0,0.0,0.0,0.0,0.0,0.0,0.0,0.0,0.0,0.0,0.0,0.0,0.0,0.0,0.0,0.0,0.0,0.0,0.0,0.0,0.0,0.0,0.0,0.0,0.0,0.0,0.0,0.0,0.0,0.0,0.0,0.0,0.0,0.0,0.0,0.0,0.0,0.0,0.0,0.0,0.0,0.0,0.0,0.0,0.0,0.0,0.0,0.0,0.0,0.0,0.0,0.0,0.0,0.0,0.0,0.0,0.0,0.0,0.0,0.0,0.0,0.0,0.0,0.0,0.0,0.0,0.0,0.0,0.0,0.0,0.0,0.0,0.0,0.0,0.0,0.0,0.0,0.0,0.0,0.0,0.0,0.0,0.0,0.0,0.0,0.0,0.0,0.0,0.0,0.0,0.0,0.0,0.0,0.0,0.0,0.0,0.0,0.0,0.0,0.0,0.0,0.0,0.0,0.0,0.0,0.0,0.0,0.0,0.0,0.0,0.0,0.0,0.0,0.0,0.0,0.0,0.0,0.0,0.0,0.0,0.0,0.0,0.0,0.0,0.0,0.0,0.0,0.0,0.0,0.0,0.0,0.0,0.0,0.0,0.0,0.0,0.0,0.0,0.0,0.0,0.0,0.0,0.0,0.0,0.0,0.0,0.0,0.0,0.0,0.0,0.0,0.0,0.0,0.0,0.0,0.0,0.0,0.0,0.0,0.0,0.0,0.0,0.0,0.0,0.0,0.0,0.0,0.0,0.0,0.0,0.0,0.0,0.0,0.0,0.0,0.0,0.0,0.0,0.0,0.0,0.0,0.0,0.0,0.0,0.0,0.0,0.0,0.0,0.0,0.0,0.0,0.0,0.0,0.0,0.0,0.0,0.0,0.0,0.0,0.0,0.0,0.0,0.0,0.0,0.0,0.0,0.0,0.0,0.0,0.0,0.0,0.0,0.0,0.0,0.0,0.0,0.0,0.0,0.0,0.0,0.0,0.0,0.0,0.0,0.0,0.0,0.0,0.0,0.0,0.0,0.0,0.0,0.0,0.0,0.0,0.0,0.0,0.0,0.0,0.0,0.0,0.0,0.0,0.0,0.0,0.0,0.0,0.0,0.0,0.0,0.0,0.0,0.0,0.0,0.0,0.0,0.0,0.0,0.0,0.0,0.0,0.0,0.0,0.0,0.0,0.0,0.0,0.0,0.0,0.0,0.0,0.0,0.0,0.0,0.0,0.0,0.0,0.0,0.0,0.0,0.0,0.0,0.0,0.0,0.0,0.0,0.0,0.0,0.0,0.0,0.0,0.0,0.0,0.0,0.0,0.0,0.0,0.0,0.0,0.0,0.0,0.0,0.0,0.0,0.0,0.0,0.0,0.0,0.0,0.0,0.0,0.0,0.0,0.0,0.0,0.0,0.0,0.0,0.0,0.0,0.0,0.0,0.0,0.0,0.0,0.0,0.0,0.0,0.0,0.0,0.0,0.0,0.0,0.0,0.0,0.0,0.0,0.0,0.0,0.0,0.0,0.0,0.0,0.0,0.0,0.0,0.0,0.0,0.0,0.0,0.0,0.0,0.0,0.0,0.0,0.0,0.0,0.0,0.0,0.0,0.0,0.0,0.0,0.0,0.0,0.0,0.0,0.0,0.0,0.0,0.0,0.0,0.0,0.0,0.0,0.0,0.0,0.0,0.0,0.0,0.0,0.0,0.0,0.0,0.0,0.0,0.0,0.0,0.0,0.0,0.0,0.0,0.0,0.0,0.0,0.0,0.0,0.0,0.0,0.0,0.0,0.0,0.0,0.0,0.0,0.0,0.0,0.0,0.0,0.0,0.0,0.0,0.0,0.0,0.0,0.0,0.0,0.0,0.0,0.0,0.0,0.0,0.0,0.0,0.0,0.0,2.4707,0.0,0.0,0.0,0.0,0.0,0.0,0.0,0.0,0.0,0.0,0.0,0.0,0.0,0.0,0.0,0.0,0.0,0.0,0.0,0.0,0.0,0.0,0.0,0.0,0.0,0.0,0.0,0.0,0.0,0.0,0.0,0.0,0.0,0.0,0.0,0.0,0.0,0.0,0.0,0.0,0.0,0.0,0.0,0.0,0.0,0.0,0.0,0.0,0.0,0.0,0.0,0.0,0.0,0.0,0.0,0.0,0.0,0.0,0.0,0.0,0.0,0.0,0.0,0.0,0.0,0.0,0.0,0.0,0.0,0.0,0.0,0.0,0.0,0.0,0.0,0.0,0.0,0.0,0.0,0.0,0.0,0.0,0.0,0.0,0.0,0.0,0.0,0.0,0.0,0.0,0.0,0.0,0.0,0.0,0.0,0.0,0.0,0.0,0.0,0.0,0.0,0.0,0.0,0.0,0.0,0.0,0.0,0.0,0.0,0.0,2.0498,2.1222,2.3245,2.5027,2.6377,0.0,0.0,0.0,0.0,0.0,0.0,0.0,0.0,0.0,0.0,0.0,0.0,0.0,0.0,0.0,0.0,0.0,0.0,0.0,0.0,0.0,0.0,0.0,0.0,0.0,0.0,0.0,0.0,0.0,0.0,0.0,0.0,0.0,0.0,0.0,0.0,0.0,0.0,0.0,0.0,0.0,0.0,0.0,0.0,0.0,0.0,0.0,0.0,0.0,0.0,0.0,0.0,0.0,0.0,0.0,0.0,0.0,0.0,0.0,0.0,0.0,0.0,0.0,0.0,0.0,0.0,0.0,0.0,0.0,0.0,0.0,0.0,0.0,0.0,0.0,0.0,0.0,0.0,0.0,0.0,0.0,0.0,0.0,0.0,0.0,0.0,0.0,0.0,0.0,0.0,0.0,0.0,0.0,0.0,0.0,0.0,0.0,0.0,0.0,0.0,0.0,0.0,0.0,0.0,0.0,0.0,0.0,0.0,0.0,0.0,0.0,0.0,2.5095,2.6845,2.7907,0.0,0.0,0.0,0.0,0.0,0.0,0.0,0.0,0.0,0.0,0.0,0.0,0.0,0.0,0.0,0.0,0.0,0.0,0.0,0.0,0.0,0.0,0.0,0.0,0.0,0.0,0.0,0.0,0.0,0.0,0.0,0.0,0.0,0.0,0.0,0.0,0.0,0.0,0.0,0.0,0.0,0.0,0.0,0.0,0.0,0.0,0.0,0.0,0.0,0.0,0.0,0.0,0.0,0.0,0.0,0.0,0.0,0.0,0.0,0.0,0.0,0.0,0.0,0.0,0.0,0.0,0.0,0.0,0.0,0.0,0.0,0.0,0.0,0.0,0.0,0.0,0.0,0.0,0.0,0.0,0.0,0.0,0.0,0.0,0.0,0.0,0.0,0.0,0.0,0.0,0.0,0.0,0.0,0.0,0.0,0.0,0.0,0.0,0.0,0.0,0.0,0.0,0.0,0.0,0.0,0.0,0.0,0.0,0.0,0.0,2.3582,2.5852,2.6195,0.0,2.8734,0.0,0.0,0.0,0.0,0.0,0.0,0.0,0.0,0.0,0.0,0.0,0.0,0.0,0.0,0.0,0.0,0.0,0.0,0.0,0.0,0.0,0.0,0.0,0.0,0.0,0.0,0.0,0.0,0.0,0.0,0.0,0.0,0.0,0.0,0.0,0.0,0.0,0.0,0.0,0.0,0.0,0.0,0.0,0.0,0.0,0.0,0.0,0.0,0.0,0.0,0.0,0.0,0.0,0.0,0.0,0.0,0.0,0.0,0.0,0.0,0.0,0.0,0.0,0.0,0.0,0.0,0.0,0.0,0.0,0.0,0.0,0.0,0.0,0.0,0.0,0.0,0.0,0.0,0.0,0.0,0.0,0.0,0.0,0.0,0.0,0.0,0.0,0.0,0.0,0.0,0.0,0.0,0.0,0.0,0.0,0.0,0.0,0.0,0.0,0.0,0.0,0.0,0.0,0.0,0.0,0.0,0.0,0.0,0.0,0.0,2.5677,2.7653,2.8691,2.984,0.0,0.0,0.0,0.0,0.0,0.0,0.0,0.0,0.0,0.0,0.0,0.0,0.0,0.0,0.0,0.0,0.0,0.0,0.0,0.0,0.0,0.0,0.0,0.0,0.0,0.0,0.0,0.0,0.0,0.0,0.0,0.0,0.0,0.0,0.0,0.0,0.0,0.0,0.0,0.0,0.0,0.0,0.0,0.0,0.0,0.0,0.0,0.0,0.0,0.0,0.0,0.0,0.0,0.0,0.0,0.0,0.0,0.0,0.0,0.0,0.0,0.0,0.0,0.0,0.0,0.0,0.0,0.0,0.0,0.0,0.0,0.0,0.0,0.0,0.0,0.0,0.0,0.0,0.0,0.0,0.0,0.0,0.0,0.0,0.0,0.0,0.0,0.0,0.0,0.0,0.0,0.0,0.0,0.0,0.0,0.0,0.0,0.0,0.0,0.0,0.0,0.0,0.0,0.0,0.0,0.0,0.0,0.0,0.0,0.0,2.607,2.7833,2.9766,3.1302,3.2439,3.3082,0.0,0.0,0.0,0.0,0.0,0.0,0.0,0.0,0.0,0.0,0.0,0.0,0.0,0.0,0.0,0.0,0.0,0.0,0.0,0.0,0.0,0.0,0.0,0.0,0.0,0.0,0.0,0.0,0.0,0.0,0.0,0.0,0.0,0.0,0.0,0.0,0.0,0.0,0.0,0.0,0.0,0.0,0.0,0.0,0.0,0.0,0.0,0.0,0.0,0.0,0.0,0.0,0.0,0.0,0.0,0.0,0.0,0.0,0.0,0.0,0.0,0.0,0.0,0.0,0.0,0.0,0.0,0.0,0.0,0.0,0.0,0.0,0.0,0.0,0.0,0.0,0.0,0.0,0.0,0.0,0.0,0.0,0.0,0.0,0.0,0.0,0.0,0.0,0.0,0.0,0.0,0.0,0.0,0.0,0.0,0.0,0.0,0.0,0.0,0.0,0.0,0.0,0.0,0.0,0.0,0.0,0.0,0.0,2.7262,2.8139,2.9943,3.2764,3.3746,3.4168,0.0,0.0,0.0,0.0,0.0,0.0,0.0,0.0,0.0,0.0,0.0,0.0,0.0,0.0,0.0,0.0,0.0,0.0,0.0,0.0,0.0,0.0,0.0,0.0,0.0,0.0,0.0,0.0,0.0,0.0,0.0,0.0,0.0,0.0,0.0,0.0,0.0,0.0,0.0,0.0,0.0,0.0,0.0,0.0,0.0,0.0,0.0,0.0,0.0,0.0,0.0,0.0,0.0,0.0,0.0,0.0,0.0,0.0,0.0,0.0,0.0,0.0,0.0,0.0,0.0,0.0,0.0,0.0,0.0,0.0,0.0,0.0,0.0,0.0,0.0,0.0,0.0,0.0,0.0,0.0,0.0,0.0,0.0,0.0,0.0,0.0,0.0,0.0,0.0,0.0,0.0,0.0,0.0,0.0,0.0,0.0,0.0,0.0,0.0,0.0,0.0,0.0,0.0,0.0,0.0,0.0,0.0,0.0,0.0,2.9035,3.1734,3.3804,3.4992,3.5196,3.5176,0.0,0.0,0.0,0.0,0.0,0.0,0.0,0.0,0.0,0.0,0.0,0.0,0.0,0.0,0.0,0.0,0.0,0.0,0.0,0.0,0.0,0.0,0.0,0.0,0.0,0.0,0.0,0.0,0.0,0.0,0.0,0.0,0.0,0.0,0.0,0.0,0.0,0.0,0.0,0.0,0.0,0.0,0.0,0.0,0.0,0.0,0.0,0.0,0.0,0.0,0.0,0.0,0.0,0.0,0.0,0.0,0.0,0.0,0.0,0.0,0.0,0.0,0.0,0.0,0.0,0.0,0.0,0.0,0.0,0.0,0.0,0.0,0.0,0.0,0.0,0.0,0.0,0.0,0.0,0.0,0.0,0.0,0.0,0.0,0.0,0.0,0.0,0.0,0.0,0.0,0.0,0.0,0.0,0.0,0.0,0.0,0.0,0.0,0.0,0.0,0.0,0.0,0.0,0.0,0.0,0.0,0.0,0.0,0.0,3.172,0.0,3.6355,3.6933,3.6862,3.6716,0.0,0.0,0.0,0.0,0.0,0.0,0.0,0.0,0.0,0.0,0.0,0.0,0.0,0.0,0.0,0.0,0.0,0.0,0.0,0.0,0.0,0.0,0.0,0.0,0.0,0.0,0.0,0.0,0.0,0.0,0.0,0.0,0.0,0.0,0.0,0.0,0.0,0.0,0.0,0.0,0.0,0.0,0.0,0.0,0.0,0.0,0.0,0.0,0.0,0.0,0.0,0.0,0.0,0.0,0.0,0.0,0.0,0.0,0.0,0.0,0.0,0.0,0.0,0.0,0.0,0.0,0.0,0.0,0.0,0.0,0.0,0.0,0.0,0.0,0.0,0.0,0.0,0.0,0.0,0.0,0.0,0.0,0.0,0.0,0.0,0.0,0.0,0.0,0.0,0.0,0.0,0.0,0.0,0.0,0.0,0.0,0.0,0.0,0.0,0.0,0.0,0.0,0.0,0.0,0.0,0.0,0.0,0.0,3.2827,3.5611,3.6327,3.7365,3.8718,3.8745,3.8763,0.0,0.0,0.0,0.0,0.0,0.0,0.0,0.0,0.0,0.0,0.0,0.0,0.0,0.0,0.0,0.0,0.0,0.0,0.0,0.0,0.0,0.0,0.0,0.0,0.0,0.0,0.0,0.0,0.0,0.0,0.0,0.0,0.0,0.0,0.0,0.0,0.0,0.0,0.0,0.0,0.0,0.0,0.0,0.0,0.0,0.0,0.0,0.0,0.0,0.0,0.0,0.0,0.0,0.0,0.0,0.0,0.0,0.0,0.0,0.0,0.0,0.0,0.0,0.0,0.0,0.0,0.0,0.0,0.0,0.0,0.0,0.0,0.0,0.0,0.0,0.0,0.0,0.0,0.0,0.0,0.0,0.0,0.0,0.0,0.0,0.0,0.0,0.0,0.0,0.0,0.0,0.0,0.0,0.0,0.0,0.0,0.0,0.0,0.0,0.0,0.0,0.0,0.0,0.0,0.0,0.0,0.0,0.0,0.0,3.697,3.8053,3.8901,3.9528,3.9433,3.9242,0.0,0.0,0.0,0.0,0.0,0.0,0.0,0.0,0.0,0.0,0.0,0.0,0.0,0.0,0.0,0.0,0.0,0.0,0.0,0.0,0.0,0.0,0.0,0.0,0.0,0.0,0.0,0.0,0.0,0.0,0.0,0.0,0.0,0.0,0.0,0.0,0.0,0.0,0.0,0.0,0.0,0.0,0.0,0.0,0.0,0.0,0.0,0.0,0.0,0.0,0.0,0.0,0.0,0.0,0.0,0.0,0.0,0.0,0.0,0.0,0.0,0.0,0.0,0.0,0.0,0.0,0.0,0.0,0.0,0.0,0.0,0.0,0.0,0.0,0.0,0.0,0.0,0.0,0.0,0.0,0.0,0.0,0.0,0.0,0.0,0.0,0.0,0.0,0.0,0.0,0.0,0.0,0.0,0.0,0.0,0.0,0.0,0.0,0.0,0.0,0.0,0.0,0.0,0.0,0.0,0.0,0.0,0.0,0.0,3.8611,3.9342,3.9888,4.0184,4.0079,3.9901,3.97,0.0,0.0,0.0,0.0,0.0,0.0,0.0,0.0,0.0,0.0,0.0,0.0,0.0,0.0,0.0,0.0,0.0,0.0,0.0,0.0,0.0,0.0,0.0,0.0,0.0,0.0,0.0,0.0,0.0,0.0,0.0,0.0,0.0,0.0,0.0,0.0,0.0,0.0,0.0,0.0,0.0,0.0,0.0,0.0,0.0,0.0,0.0,0.0,0.0,0.0,0.0,0.0,0.0,0.0,0.0,0.0,0.0,0.0,0.0,0.0,0.0,0.0,0.0,0.0,0.0,0.0,0.0,0.0,0.0,0.0,0.0,0.0,0.0,0.0,0.0,0.0,0.0,0.0,0.0,0.0,0.0,0.0,0.0,0.0,0.0,0.0,0.0,0.0,0.0,0.0,0.0,0.0,0.0,0.0,0.0,0.0,0.0,0.0,0.0,0.0,0.0,0.0,0.0,0.0,0.0,0.0,0.0,0.0,4.0382,4.0262,4.0359,4.0695,4.0678,4.0617,0.0,0.0,0.0,0.0,0.0,0.0,0.0,0.0,0.0,0.0,0.0,0.0,0.0,0.0,0.0,0.0,0.0,0.0,0.0,0.0,0.0,0.0,0.0,0.0,0.0,0.0,0.0,0.0,0.0,0.0,0.0,0.0,0.0,0.0,0.0,0.0,0.0,0.0,0.0,0.0,0.0,0.0,0.0,0.0,0.0,0.0,0.0,0.0,0.0,0.0,0.0,0.0,0.0,0.0,0.0,0.0,0.0,0.0,0.0,0.0,0.0,0.0,0.0,0.0,0.0,0.0,0.0,0.0,0.0,0.0,0.0,0.0,0.0,0.0,0.0,0.0,0.0,0.0,0.0,0.0,0.0,0.0,0.0,0.0,0.0,0.0,0.0,0.0,0.0,0.0,0.0,0.0,0.0,0.0,0.0,0.0,0.0,0.0,0.0,0.0,0.0,0.0,0.0,0.0,0.0,0.0,0.0,0.0,0.0,4.0246,4.0217,4.0385,4.0755,4.0591,4.0537,0.0,0.0,0.0,0.0,0.0,0.0,0.0,0.0,0.0,0.0,0.0,0.0,0.0,0.0,0.0,0.0,0.0,0.0,0.0,0.0,0.0,0.0,0.0,0.0,0.0,0.0,0.0,0.0,0.0,0.0,0.0,0.0,0.0,0.0,0.0,0.0,0.0,0.0,0.0,0.0,0.0,0.0,0.0,0.0,0.0,0.0,0.0,0.0,0.0,0.0,0.0,0.0,0.0,0.0,0.0,0.0,0.0,0.0,0.0,0.0,0.0,0.0,0.0,0.0,0.0,0.0,0.0,0.0,0.0,0.0,0.0,0.0,0.0,0.0,0.0,0.0,0.0,0.0,0.0,0.0,0.0,0.0,0.0,0.0,0.0,0.0,0.0,0.0,0.0,0.0,0.0,0.0,0.0,0.0,0.0,0.0,0.0,0.0,0.0,0.0,0.0,0.0,0.0,0.0,0.0,0.0,0.0,0.0,4.0363,4.0206,3.9961,4.0021,4.0444,4.0585,4.0569,0.0,0.0,0.0,0.0,0.0,0.0,0.0,0.0,0.0,0.0,0.0,0.0,0.0,0.0,0.0,0.0,0.0,0.0,0.0,0.0,0.0,0.0,0.0,0.0,0.0,0.0,0.0,0.0,0.0,0.0,0.0,0.0,0.0,0.0,0.0,0.0,0.0,0.0,0.0,0.0,0.0,0.0,0.0,0.0,0.0,0.0,0.0,0.0,0.0,0.0,0.0,0.0,0.0,0.0,0.0,0.0,0.0,0.0,0.0,0.0,0.0,0.0,0.0,0.0,0.0,0.0,0.0,0.0,0.0,0.0,0.0,0.0,0.0,0.0,0.0,0.0,0.0,0.0,0.0,0.0,0.0,0.0,0.0,0.0,0.0,0.0,0.0,0.0,0.0,0.0,0.0,0.0,0.0,0.0,0.0,0.0,0.0,0.0,0.0,0.0,0.0,0.0,0.0,0.0,0.0,0.0,0.0,0.0,4.0352,4.0137,3.9567,3.9462,3.988,4.0556,4.0575,0.0,0.0,0.0,0.0,0.0,0.0,0.0,0.0,0.0,0.0,0.0,0.0,0.0,0.0,0.0,0.0,0.0,0.0,0.0,0.0,0.0,0.0,0.0,0.0,0.0,0.0,0.0,0.0,0.0,0.0,0.0,0.0,0.0,0.0,0.0,0.0,0.0,0.0,0.0,0.0,0.0,0.0,0.0,0.0,0.0,0.0,0.0,0.0,0.0,0.0,0.0,0.0,0.0,0.0,0.0,0.0,0.0,0.0,0.0,0.0,0.0,0.0,0.0,0.0,0.0,0.0,0.0,0.0,0.0,0.0,0.0,0.0,0.0,0.0,0.0,0.0,0.0,0.0,0.0,0.0,0.0,0.0,0.0,0.0,0.0,0.0,0.0,0.0,0.0,0.0,0.0,0.0,0.0,0.0,0.0,0.0,0.0,0.0,0.0,0.0,0.0,0.0,0.0,0.0,0.0,0.0,0.0,0.0,4.0094,3.9724,3.919,3.9007,3.9218,4.0018,3.969,0.0,0.0,0.0,0.0,0.0,0.0,0.0,0.0,0.0,0.0,0.0,0.0,0.0,0.0,0.0,0.0,0.0,0.0,0.0,0.0,0.0,0.0,0.0,0.0,0.0,0.0,0.0,0.0,0.0,0.0,0.0,0.0,0.0,0.0,0.0,0.0,0.0,0.0,0.0,0.0,0.0,0.0,0.0,0.0,0.0,0.0,0.0,0.0,2.6565,0.0,0.0,0.0,0.0,0.0,0.0,0.0,0.0,0.0,0.0,0.0,0.0,0.0,0.0,0.0,0.0,0.0,0.0,0.0,0.0,0.0,0.0,0.0,0.0,0.0,0.0,0.0,0.0,0.0,0.0,0.0,0.0,0.0,0.0,0.0,0.0,0.0,0.0,0.0,0.0,0.0,0.0,0.0,0.0,0.0,0.0,0.0,0.0,0.0,0.0,0.0,0.0,0.0,0.0,0.0,0.0,0.0,0.0,0.0,4.0161,4.0165,3.9473,3.9356,3.9759,4.0185,3.9469,0.0,0.0,0.0,0.0,0.0,0.0,0.0,0.0,0.0,0.0,0.0,0.0,0.0,0.0,0.0,0.0,0.0,0.0,0.0,0.0,0.0,0.0,0.0,0.0,0.0,0.0,0.0,0.0,0.0,0.0,0.0,0.0,0.0,0.0,0.0,0.0,0.0,0.0,0.0,0.0,0.0,0.0,0.0,0.0,0.0,0.0,0.0,0.0,0.0,0.0,0.0,0.0,0.0,0.0,0.0,0.0,0.0,0.0,0.0,0.0,0.0,0.0,0.0,0.0,0.0,0.0,0.0,0.0,0.0,0.0,0.0,0.0,0.0,0.0,0.0,0.0,0.0,0.0,0.0,0.0,0.0,0.0,0.0,0.0,0.0,0.0,0.0,0.0,0.0,0.0,0.0,0.0,0.0,0.0,0.0,0.0,0.0,0.0,0.0,0.0,0.0,0.0,0.0,0.0,0.0,0.0,0.0,4.025,4.0293,4.0572,3.9927,3.986,4.044,4.0451,3.9279,3.6756,0.0,0.0,0.0,0.0,0.0,0.0,0.0,0.0,0.0,0.0,0.0,0.0,0.0,0.0,0.0,0.0,0.0,0.0,0.0,0.0,0.0,0.0,0.0,0.0,0.0,0.0,0.0,0.0,0.0,0.0,0.0,0.0,0.0,0.0,0.0,0.0,0.0,0.0,3.0216,2.9291,0.0,0.0,0.0,0.0,0.0,0.0,0.0,0.0,2.4763,0.0,0.0,0.0,0.0,0.0,0.0,0.0,0.0,0.0,0.0,0.0,0.0,0.0,0.0,0.0,0.0,0.0,0.0,0.0,0.0,0.0,0.0,0.0,0.0,0.0,0.0,0.0,0.0,0.0,0.0,0.0,0.0,0.0,0.0,0.0,0.0,0.0,0.0,0.0,0.0,0.0,0.0,0.0,0.0,0.0,0.0,0.0,0.0,0.0,0.0,0.0,0.0,0.0,0.0,0.0,0.0,3.9783,4.0116,4.0084,3.9743,3.9784,3.9821,3.9849,3.9867,3.8019,3.4226,0.0,0.0,0.0,0.0,0.0,0.0,0.0,0.0,0.0,0.0,0.0,0.0,0.0,0.0,0.0,0.0,0.0,0.0,0.0,0.0,0.0,0.0,0.0,0.0,0.0,0.0,0.0,0.0,0.0,0.0,0.0,0.0,0.0,0.0,0.0,0.0,0.0,0.0,0.0,3.1302,3.0667,0.0,0.0,0.0,0.0,0.0,0.0,0.0,0.0,2.3804,0.0,0.0,0.0,0.0,0.0,0.0,0.0,0.0,0.0,0.0,0.0,0.0,0.0,0.0,0.0,0.0,0.0,0.0,0.0,0.0,0.0,0.0,0.0,0.0,0.0,0.0,0.0,0.0,0.0,0.0,0.0,0.0,0.0,0.0,0.0,0.0,0.0,0.0,0.0,0.0,0.0,0.0,0.0,0.0,0.0,0.0,0.0,0.0,0.0,0.0,0.0,0.0,0.0,0.0,0.0,3.9902,4.029,4.0579,4.0734,4.0117,3.9948,4.0285,3.9671,3.7157,0.0,0.0,0.0,0.0,0.0,0.0,0.0,0.0,0.0,0.0,0.0,0.0,0.0,0.0,0.0,0.0,0.0,0.0,0.0,0.0,0.0,0.0,0.0,0.0,0.0,0.0,0.0,0.0,0.0,0.0,0.0,0.0,0.0,0.0,0.0,0.0,0.0,0.0,0.0,0.0,3.1057,3.0607,3.1027,0.0,0.0,0.0,0.0,0.0,0.0,2.5009,2.3943,0.0,0.0,0.0,0.0,0.0,0.0,0.0,0.0,0.0,0.0,0.0,0.0,0.0,0.0,0.0,0.0,0.0,0.0,0.0,0.0,0.0,0.0,0.0,0.0,0.0,0.0,0.0,0.0,0.0,0.0,0.0,0.0,0.0,0.0,0.0,0.0,0.0,0.0,0.0,0.0,0.0,0.0,0.0,0.0,0.0,0.0,0.0,0.0,0.0,0.0,0.0,0.0,0.0,0.0,0.0,3.9778,4.0354,4.0923,4.1415,4.0458,4.0199,4.0716,3.9698,3.6753,0.0,0.0,0.0,0.0,0.0,0.0,0.0,0.0,0.0,0.0,0.0,0.0,0.0,0.0,0.0,0.0,0.0,0.0,0.0,0.0,0.0,0.0,0.0,0.0,0.0,0.0,0.0,0.0,0.0,0.0,0.0,0.0,0.0,0.0,0.0,0.0,0.0,0.0,0.0,0.0,0.0,3.0633,3.1402,2.991,0.0,0.0,0.0,0.0,2.7093,2.6003,0.0,0.0,0.0,0.0,0.0,0.0,0.0,0.0,0.0,0.0,0.0,0.0,0.0,0.0,0.0,0.0,0.0,0.0,0.0,0.0,0.0,0.0,0.0,0.0,0.0,0.0,0.0,0.0,0.0,0.0,0.0,0.0,0.0,0.0,0.0,0.0,0.0,0.0,0.0,0.0,0.0,0.0,0.0,0.0,0.0,0.0,0.0,0.0,0.0,0.0,0.0,0.0,0.0,0.0,0.0,0.0,3.8574,3.9904,4.0402,3.9992,4.0521,4.0643,4.0221,4.007,3.7327,0.0,0.0,0.0,0.0,0.0,0.0,0.0,0.0,0.0,0.0,0.0,0.0,0.0,0.0,0.0,0.0,0.0,0.0,0.0,0.0,0.0,0.0,0.0,0.0,0.0,0.0,0.0,0.0,0.0,0.0,0.0,0.0,0.0,0.0,0.0,0.0,0.0,0.0,0.0,0.0,0.0,3.2321,3.2379,3.1416,3.0686,0.0,0.0,2.8219,2.8999,2.7427,0.0,0.0,0.0,0.0,0.0,0.0,0.0,0.0,0.0,0.0,0.0,0.0,0.0,0.0,0.0,0.0,0.0,0.0,0.0,0.0,0.0,0.0,0.0,0.0,0.0,0.0,0.0,0.0,0.0,0.0,0.0,0.0,0.0,0.0,0.0,0.0,0.0,0.0,0.0,0.0,0.0,0.0,0.0,0.0,0.0,0.0,0.0,0.0,0.0,0.0,0.0,0.0,0.0,0.0,0.0,3.8968,3.8607,3.9993,4.0636,4.0418,4.0434,4.0375,4.007,3.9295,3.6491,0.0,0.0,0.0,0.0,0.0,0.0,0.0,0.0,0.0,0.0,0.0,0.0,0.0,0.0,0.0,0.0,0.0,0.0,0.0,0.0,0.0,0.0,0.0,0.0,0.0,0.0,0.0,0.0,0.0,0.0,0.0,0.0,0.0,0.0,0.0,0.0,0.0,0.0,0.0,0.0,0.0,0.0,3.1829,3.1409,0.0,0.0,0.0,2.9003,2.876,0.0,0.0,0.0,0.0,0.0,0.0,0.0,0.0,0.0,0.0,0.0,0.0,0.0,0.0,0.0,0.0,0.0,0.0,0.0,0.0,0.0,0.0,0.0,0.0,0.0,0.0,0.0,0.0,0.0,0.0,0.0,0.0,0.0,0.0,0.0,0.0,0.0,0.0,0.0,0.0,0.0,0.0,0.0,0.0,0.0,0.0,0.0,0.0,0.0,0.0,0.0,0.0,0.0,0.0,0.0,0.0,0.0,3.8505,3.9954,4.0694,4.0668,4.0336,4.0087,4.007,3.8761,0.0,0.0,0.0,0.0,0.0,0.0,0.0,0.0,0.0,0.0,0.0,0.0,0.0,0.0,0.0,0.0,0.0,0.0,0.0,0.0,0.0,0.0,0.0,0.0,0.0,0.0,0.0,2.0926,0.0,0.0,0.0,0.0,0.0,0.0,0.0,0.0,0.0,0.0,0.0,0.0,0.0,0.0,3.1609,3.1888,3.1901,3.1888,0.0,0.0,2.9883,2.9032,2.8652,2.7728,0.0,0.0,0.0,0.0,0.0,0.0,0.0,0.0,0.0,0.0,0.0,0.0,0.0,0.0,0.0,0.0,0.0,0.0,0.0,0.0,0.0,0.0,0.0,0.0,0.0,0.0,0.0,0.0,0.0,0.0,0.0,0.0,0.0,0.0,0.0,0.0,0.0,0.0,0.0,0.0,0.0,0.0,0.0,0.0,0.0,0.0,0.0,0.0,0.0,0.0,0.0,0.0,0.0,0.0,3.7928,3.7909,3.9379,4.017,4.0171,4.0121,4.0087,4.007,3.9262,3.6535,0.0,0.0,0.0,0.0,0.0,0.0,0.0,0.0,0.0,0.0,0.0,0.0,0.0,0.0,0.0,0.0,0.0,0.0,0.0,0.0,0.0,0.0,0.0,0.0,0.0,0.0,0.0,0.0,0.0,0.0,0.0,0.0,0.0,0.0,0.0,0.0,0.0,0.0,0.0,0.0,0.0,3.2806,3.3671,3.3808,3.3822,0.0,3.2249,3.1106,3.1031,3.0254,2.8949,2.6707,0.0,0.0,0.0,0.0,0.0,0.0,0.0,0.0,0.0,0.0,0.0,0.0,0.0,0.0,0.0,0.0,0.0,0.0,0.0,0.0,0.0,0.0,0.0,0.0,0.0,0.0,0.0,0.0,0.0,0.0,0.0,0.0,0.0,0.0,0.0,0.0,0.0,0.0,0.0,0.0,0.0,0.0,0.0,0.0,0.0,0.0,0.0,0.0,0.0,0.0,0.0,0.0,0.0,3.7572,3.7138,3.8623,3.9362,3.9385,3.9379,3.9606,4.0087,3.8887,3.6723,0.0,0.0,0.0,0.0,0.0,0.0,0.0,0.0,0.0,0.0,0.0,0.0,0.0,0.0,0.0,0.0,0.0,0.0,0.0,0.0,0.0,0.0,0.0,0.0,0.0,0.0,0.0,0.0,2.1896,2.3317,2.3947,0.0,0.0,0.0,0.0,0.0,0.0,0.0,0.0,0.0,0.0,3.3587,3.3945,3.3518,0.0,0.0,3.1549,3.0343,3.0343,2.9471,2.845,2.7614,2.6964,0.0,0.0,0.0,0.0,0.0,0.0,0.0,0.0,0.0,0.0,0.0,0.0,0.0,0.0,0.0,0.0,0.0,0.0,0.0,0.0,0.0,0.0,0.0,0.0,0.0,0.0,0.0,0.0,0.0,0.0,0.0,0.0,0.0,0.0,0.0,0.0,0.0,0.0,0.0,0.0,0.0,0.0,0.0,0.0,0.0,0.0,0.0,0.0,0.0,0.0,0.0,0.0,3.7014,3.6283,3.8012,3.8782,3.8596,3.86,3.8947,3.9679,3.8246,3.6609,0.0,0.0,0.0,0.0,0.0,0.0,0.0,0.0,0.0,0.0,0.0,0.0,0.0,0.0,0.0,0.0,0.0,0.0,0.0,0.0,0.0,0.0,0.0,0.0,0.0,0.0,0.0,0.0,2.2668,2.3947,2.3597,0.0,0.0,0.0,0.0,0.0,0.0,0.0,0.0,0.0,0.0,3.4095,3.4394,3.3602,3.2876,3.2678,3.093,2.9729,2.9779,2.8858,2.8084,2.8084,0.0,0.0,0.0,0.0,0.0,0.0,0.0,0.0,0.0,0.0,0.0,0.0,0.0,0.0,0.0,0.0,0.0,0.0,0.0,0.0,0.0,0.0,0.0,0.0,0.0,0.0,0.0,4.1461,0.0,0.0,3.6173,0.0,0.0,0.0,0.0,0.0,0.0,0.0,0.0,0.0,0.0,0.0,0.0,0.0,0.0,0.0,0.0,0.0,0.0,0.0,0.0,0.0,0.0,3.6061,3.5274,3.7662,3.8541,3.7879,3.7822,3.8222,3.8908,3.7408,3.5999,3.4666,0.0,0.0,0.0,0.0,0.0,0.0,0.0,0.0,0.0,0.0,0.0,0.0,0.0,0.0,0.0,0.0,0.0,0.0,0.0,0.0,0.0,0.0,0.0,0.0,0.0,0.0,2.2553,2.4944,2.5752,0.0,0.0,0.0,0.0,0.0,0.0,0.0,0.0,0.0,3.3656,3.3945,3.4327,3.5294,3.461,3.3587,3.2678,3.0839,2.9591,2.9767,2.8846,2.8084,0.0,0.0,0.0,0.0,0.0,0.0,0.0,0.0,0.0,0.0,0.0,0.0,0.0,0.0,0.0,0.0,0.0,0.0,0.0,0.0,0.0,0.0,0.0,0.0,0.0,0.0,0.0,3.9277,3.964,0.0,0.0,0.0,0.0,0.0,0.0,0.0,0.0,0.0,0.0,0.0,3.7806,3.7662,0.0,0.0,0.0,0.0,0.0,0.0,0.0,0.0,0.0,0.0,0.0,0.0,3.6675,3.5578,3.7742,3.8525,3.7822,3.7822,3.843,3.961,3.77,3.5543,3.3243,0.0,0.0,0.0,0.0,0.0,0.0,0.0,0.0,0.0,0.0,0.0,0.0,0.0,0.0,0.0,0.0,0.0,0.0,0.0,0.0,0.0,0.0,0.0,0.0,0.0,2.0107,0.0,0.0,0.0,0.0,0.0,0.0,0.0,0.0,0.0,0.0,3.0403,3.2379,3.2961,3.4177,3.4839,3.4528,3.3671,3.2749,0.0,0.0,0.0,0.0,0.0,0.0,0.0,0.0,0.0,0.0,0.0,0.0,0.0,0.0,2.2977,2.372,2.3044,2.2435,2.2631,0.0,0.0,0.0,0.0,0.0,0.0,0.0,0.0,0.0,0.0,0.0,0.0,0.0,0.0,3.9714,4.0043,3.8137,0.0,0.0,0.0,0.0,0.0,0.0,0.0,0.0,3.6651,3.762,3.8206,3.8339,3.8163,3.7671,3.7085,3.6669,0.0,0.0,0.0,0.0,0.0,0.0,0.0,0.0,3.6796,3.593,3.7767,3.8492,3.7806,3.7621,3.8197,3.961,3.7946,3.6059,3.3902,3.1287,2.9941,0.0,0.0,0.0,0.0,0.0,0.0,0.0,0.0,0.0,0.0,0.0,0.0,0.0,0.0,0.0,0.0,0.0,0.0,0.0,0.0,0.0,0.0,0.0,2.0305,0.0,0.0,0.0,0.0,0.0,0.0,0.0,0.0,0.0,2.8512,3.0939,3.2749,3.3031,3.4192,3.4839,3.4543,0.0,0.0,0.0,0.0,0.0,0.0,0.0,2.8255,2.8597,2.8131,2.7383,2.6648,2.588,2.5294,2.4872,0.0,0.0,2.4039,2.2989,2.2026,2.2224,2.2048,2.211,2.2547,2.3109,2.3374,0.0,0.0,0.0,0.0,3.3796,0.0,0.0,0.0,4.0329,4.1258,0.0,3.9971,0.0,0.0,0.0,0.0,3.0705,3.1616,0.0,0.0,3.7874,3.8783,3.8837,3.9542,3.9935,3.9817,3.8186,3.7907,3.8641,3.725,0.0,0.0,0.0,0.0,0.0,0.0,3.6443,3.652,3.7907,3.8394,3.7863,3.7392,3.7658,3.8799,3.8133,3.7381,3.6523,3.3902,3.1365,2.8855,2.533,0.0,0.0,0.0,0.0,0.0,0.0,0.0,0.0,0.0,0.0,0.0,0.0,0.0,0.0,0.0,0.0,0.0,0.0,0.0,0.0,1.9785,0.0,0.0,0.0,0.0,0.0,0.0,0.0,0.0,0.0,2.9451,2.9464,3.1383,3.2961,3.3808,0.0,0.0,0.0,0.0,3.2664,3.2593,3.0839,2.9655,2.9844,2.8924,2.8518,2.9624,0.0,0.0,2.6894,2.6554,2.613,2.5041,2.3877,2.3144,2.3135,2.3135,2.3057,2.3067,2.3067,2.3057,2.3067,2.3115,2.3096,3.9392,0.0,0.0,0.0,0.0,3.7862,3.9338,4.0939,4.1742,4.2232,4.2283,3.9922,0.0,0.0,0.0,0.0,0.0,0.0,3.2022,3.3389,3.5344,3.6596,3.7133,3.7367,3.7112,3.6393,3.6607,3.7128,3.7907,3.81,3.703,3.4836,0.0,0.0,0.0,0.0,3.7939,3.7494,3.8929,3.9335,3.858,3.9005,3.8853,3.8149,3.7921,3.7456,3.6615,3.534,3.3593,3.1419,3.1691,0.0,0.0,0.0,0.0,0.0,0.0,0.0,0.0,0.0,0.0,0.0,0.0,0.0,0.0,0.0,0.0,0.0,0.0,0.0,1.7353,1.9115,1.9861,0.0,0.0,0.0,0.0,0.0,0.0,0.0,0.0,0.0,2.9626,3.2006,3.3449,0.0,0.0,3.4691,3.3616,3.3533,3.3394,3.2664,3.1556,0.0,3.082,2.9947,2.9443,2.9779,2.9779,2.9287,2.7867,2.7035,2.6141,2.5052,2.3887,2.3144,2.3144,2.3144,2.3144,2.3144,2.3144,2.3144,2.3144,2.3144,2.3144,4.2388,4.0197,3.8459,3.8322,3.93,4.0006,4.1261,4.292,4.323,4.3235,4.2907,4.0845,3.8252,3.5303,3.2621,0.0,0.0,0.0,3.1833,3.3393,3.4222,3.4872,3.5341,3.5689,3.5488,3.4906,3.4788,3.569,3.7486,3.7069,3.682,3.6732,0.0,3.752,3.623,3.7947,3.8854,3.8778,3.9627,3.985,3.9385,3.9823,3.9487,3.8318,3.8246,3.7847,3.7084,3.6352,3.521,3.3693,3.4797,3.3445,0.0,0.0,0.0,0.0,0.0,0.0,0.0,0.0,0.0,0.0,0.0,0.9194,1.0635,0.0,0.0,0.0,1.549,1.6549,1.894,1.9761,0.0,0.0,0.0,0.0,0.0,0.0,0.0,2.8099,2.8863,2.9576,3.033,3.2177,3.3227,3.2678,3.3973,3.4624,3.3837,0.0,3.3671,3.2749,3.2105,3.1462,3.0758,3.0216,2.9779,2.9779,2.9779,2.9365,2.8267,2.7197,2.6141,2.4957,2.3887,2.3144,2.3144,2.3144,2.3144,2.3144,2.3144,2.3144,2.3144,2.3144,2.3144,4.4853,4.4782,4.0781,4.0202,4.181,4.1064,4.2577,4.5437,4.4569,4.4139,4.3914,4.2246,3.8999,3.4586,3.0434,0.0,3.3336,3.1833,3.247,3.4916,3.4095,3.369,3.3607,3.4347,3.4664,3.4534,3.3138,3.4105,3.7065,3.512,3.5672,3.8745,3.8854,3.8482,3.7689,3.8521,3.9368,4.0087,4.0087,4.007,4.0087,4.0087,3.9731,3.8908,3.8924,3.8509,3.7748,3.6964,3.629,3.5519,3.5497,3.4896,3.3504,0.0,0.0,0.0,0.0,0.0,0.0,0.0,0.0,0.0,0.0,0.0,0.0,0.0,0.0,1.7342,1.9785,0.0,2.1025,2.1114,0.0,0.0,0.0,2.0541,2.2892,2.6956,2.9201,2.8203,0.0,0.0,3.1106,3.1888,3.2451,3.2464,3.3394,3.4327,3.5133,3.4461,3.3671,3.289,3.2593,3.1829,3.0355,2.9934,2.9792,2.9779,2.9779,2.9365,2.8267,2.7197,2.6141,2.5041,2.3887,2.3144,2.3144,2.3144,2.3047,2.296,2.3047,2.3047,2.295,2.2862,2.2775,4.517,4.5207,4.4393,4.4305,4.4645,4.4414,4.4683,4.5142,4.4492,4.3658,4.2703,4.1868,3.9457,3.5935,3.4861,3.3816,3.2765,3.2396,3.2566,3.3185,3.2975,3.2481,3.1847,3.2722,3.2765,3.2212,3.3087,3.4353,3.5717,3.5856,3.666,3.8019,3.8635,3.8767,3.8608,3.9404,3.9901,4.0087,4.0087,4.0087,4.0087,4.0087,3.9731,3.8924,3.8924,3.8286,3.6964,3.6722,3.6275,3.5554,3.5487,3.469,3.2922,2.9351,0.0,0.0,0.0,0.0,0.0,0.0,0.0,0.0,0.0,1.4327,1.4735,0.0,1.6001,0.0,1.9563,1.9588,1.868,1.9405,0.0,0.0,2.0792,2.1469,2.4074,2.6568,2.8105,2.8063,2.9316,3.0139,3.0139,3.0908,3.1536,3.1523,3.2961,3.3822,3.3394,3.3754,3.3959,3.3602,3.2451,3.1389,3.0895,3.0279,2.9779,2.9779,2.9779,2.9365,2.8255,2.7209,2.6152,2.4957,2.3877,2.3222,2.3144,2.3144,2.2775,2.2031,2.2492,2.2775,2.1933,2.1747,2.148,4.5858,4.5589,4.5823,4.5861,4.575,4.5703,4.5574,4.5341,4.455,4.3802,4.3026,4.1162,3.941,3.7858,3.6473,3.5304,3.433,3.3559,3.3255,3.3171,3.2379,3.1669,3.1167,3.1341,3.1057,3.062,3.2033,3.3378,3.4574,3.554,3.6765,3.8262,3.869,3.9086,3.9437,3.9885,4.0087,4.0087,4.0087,4.0087,4.0087,4.0087,3.9901,3.9437,3.942,3.869,3.7203,3.716,3.643,3.4971,3.5274,3.4423,3.2105,2.9452,2.6831,0.0,0.0,0.0,0.0,0.0,0.0,0.0,0.0,0.0,0.0,0.0,1.5455,1.6872,1.8999,1.9588,1.787,1.8772,1.9943,2.1203,2.1624,2.2599,2.4628,2.5877,2.7005,2.7947,2.8688,2.9209,2.9702,3.0292,3.0558,3.0558,3.1829,3.289,3.3157,3.3394,3.3533,3.3891,3.2749,3.1669,3.1328,3.0419,2.9779,2.9779,2.9779,2.9534,2.8937,2.7947,2.6871,2.5714,2.4638,2.3627,2.3212,2.3144,2.2862,2.2394,2.2208,2.1845,2.0755,2.0486,2.0215,4.6765,4.6096,4.624,4.6142,4.5935,4.588,4.582,4.5738,4.4758,4.426,4.3922,4.0795,3.9501,3.9514,3.6868,3.6014,3.6461,3.4773,3.4066,3.4066,3.2236,3.1389,3.1328,3.0633,3.0343,3.0558,3.1436,3.2722,3.428,3.5175,3.6627,3.8674,3.8854,3.9262,3.9901,4.007,4.0087,4.0087,4.002,3.9952,3.9952,3.9952,3.9901,3.985,4.002,3.9401,3.7879,3.7822,3.6751,3.4551,3.4835,3.4013,3.1549,3.0403,2.8126,0.0,2.2024,0.0,0.0,0.0,0.0,0.0,0.0,0.0,0.0,1.5631,1.4351,1.4166,1.8249,2.0034,1.8149,1.9039,2.0215,2.1391,2.2485,2.3516,2.4488,2.5052,2.599,2.7695,2.8016,2.8505,2.9611,2.9779,2.9779,2.9921,3.057,3.1696,3.3101,3.2876,3.2664,3.3533,3.282,3.1683,3.1044,3.0279,2.9779,2.9779,2.9779,2.9779,2.9702,2.8846,2.7763,2.6789,2.5641,2.4457,2.3464,2.3232,2.3047,2.2765,2.2031,2.1016,1.9852,1.9405,1.9222,4.783,4.6965,4.7201,4.6836,4.607,4.6042,4.5967,4.5842,4.5305,4.46,4.3722,4.2571,4.0967,3.9088,3.8453,3.7566,3.6353,3.4625,3.4257,3.4881,3.317,3.2321,3.2393,3.2961,3.3531,3.4176,3.517,3.6075,3.7006,3.7231,3.7541,3.8019,3.8596,3.8978,3.9156,0.0,0.0,0.0,3.942,3.9139,3.9139,3.9156,3.887,3.8318,3.9454,0.0,3.7937,3.7822,3.7263,3.612,3.4189,0.0,0.0,0.0,0.0,0.0,0.0,0.0,0.0,0.0,0.0,0.0,1.87,1.864,1.9007,1.7832,1.6553,1.5622,1.7296,1.8588,1.9139,2.0215,2.148,2.2589,2.2998,2.3174,2.3474,2.4327,2.54,2.6637,2.7522,2.8518,2.9534,2.9779,2.9779,2.9779,2.9934,3.0495,3.1596,3.1609,3.1536,3.1683,3.1132,3.0355,3.0062,2.9934,2.9779,2.9779,2.9779,2.9779,2.9702,2.8937,2.8176,2.7695,2.6191,2.4787,2.4457,2.3714,2.2853,2.1845,2.1471,2.0935,1.9761,1.868,1.777,4.8691,4.7879,4.7996,4.7741,0.0,4.6827,4.664,4.6608,4.5891,4.518,4.4445,4.3853,4.2733,4.1181,4.011,3.9141,3.8257,3.6576,3.6013,3.643,3.5096,3.4494,3.4494,3.4464,3.4632,3.5055,3.606,3.6734,3.7168,3.793,3.8374,3.8358,3.9389,3.9901,3.9918,4.059,4.0672,4.0087,3.9714,3.9506,3.9489,3.9506,3.9332,3.8995,3.9679,0.0,0.0,0.0,0.0,0.0,0.0,0.0,0.0,3.0752,0.0,2.7127,2.5409,2.3703,2.1919,2.142,2.0891,2.0318,1.9835,1.9222,1.8688,1.8048,1.7131,1.592,1.6943,1.7963,1.8503,1.9131,2.0223,2.1943,2.2217,2.2403,2.3038,2.3627,2.4372,2.5546,2.6625,2.7706,2.8779,2.9443,2.9792,2.9779,2.9779,3.0011,3.0419,3.0482,3.062,3.1119,3.0833,3.0482,3.0406,3.0075,2.9779,2.9779,2.9779,2.9779,2.9779,2.9353,2.8767,2.8176,2.7186,2.6191,2.4957,2.4296,2.3617,2.2473,2.1756,2.0935,1.9761,1.8503,1.7318,4.9513,4.869,4.8711,4.8623,4.8407,4.7729,4.7478,4.7523,4.6409,0.0,0.0,4.4844,4.4326,4.3687,4.1823,4.0891,4.0656,3.9118,3.8423,3.8423,3.7594,3.7194,3.7194,3.6522,3.6245,3.6398,3.7046,3.743,3.7588,3.8809,3.9389,3.9545,4.0539,4.107,4.1087,4.1534,4.1331,4.0417,4.0135,4.0051,4.0186,4.0051,4.0051,4.0186,4.0319,4.0053,3.9318,3.9159,3.8372,3.6971,3.6338,3.502,3.2709,3.1186,3.018,2.9819,2.8688,2.7649,2.6678,2.5507,2.3891,2.168,2.0137,1.8806,1.7512,1.7591,1.7225,1.5927,1.6943,1.7684,1.7684,1.8141,1.9131,2.1114,2.148,2.2022,2.295,2.3299,2.3887,2.4702,2.588,2.6883,2.8004,2.8937,2.9624,2.9779,2.9779,2.9779,2.9779,2.9856,3.0139,3.0696,3.0683,3.082,3.0833,3.0279,2.9856,2.9779,2.9779,2.9779,2.9779,2.9779,2.9365,2.8255,2.8004,2.693,2.5284,2.4542,2.4211,2.3299,2.2306,2.1302,2.0034,1.9047,1.7855,5.0344,4.9472,4.9554,4.9124,4.8341,4.8319,4.8322,4.821,4.6736,4.5819,4.5388,4.5568,4.5124,4.4296,4.3845,4.3219,4.2396,4.1383,4.0923,4.0859,4.055,4.0376,4.0376,4.0733,4.1287,4.1851,4.137,4.1471,4.1974,4.1603,4.1411,4.1385,4.156,4.1664,4.1664,4.175,4.1707,4.1534,4.0377,3.9996,4.0486,4.0031,4.0014,4.0533,4.1181,4.1286,4.072,4.0017,3.9323,3.8586,3.8309,3.677,3.3797,3.301,3.1823,2.996,2.8767,2.7789,2.7054,2.5905,2.4415,2.2378,2.0046,1.7904,1.6259,1.7037,1.7124,1.6015,1.6951,1.7684,1.7777,1.9405,2.0666,2.1203,2.2217,2.2862,2.3047,2.3877,2.4457,2.4713,2.5797,2.6883,2.7855,2.8255,2.8858,2.9534,2.9779,2.9779,2.9779,2.9779,2.9856,2.9934,2.9998,2.9998,3.0075,2.9921,2.9779,2.9779,2.9779,2.9779,2.9779,2.9702,2.9287,2.8267,2.7452,2.6295,2.5041,2.3963,2.3551,2.3135,2.2775,2.2217,2.1033,2.0486,1.9397,5.0433,4.9614,4.9836,4.97,4.926,4.9137,4.8832,4.8363,4.7716,4.7285,4.7117,4.7291,4.7095,4.6588,4.5988,4.5496,4.504,4.4017,4.3465,4.3269,4.3149,4.3074,4.3044,4.3119,4.3447,4.3952,4.3402,4.3331,4.3589,4.327,4.2881,4.2473,4.2335,4.2284,4.2302,4.2562,4.2562,4.2284,4.1347,4.099,4.1244,4.099,4.099,4.1244,4.1629,4.17,4.1437,4.108,4.0582,4.0001,3.9102,3.7552,3.5356,3.3432,3.2,3.1034,2.9408,2.8162,2.7558,2.5214,2.3223,2.1527,2.0385,1.8716,1.6424,1.6636,1.6738,1.6155,1.649,1.6951,1.7591,1.868,1.9588,2.0296,2.1391,2.212,2.2217,2.3183,2.3887,2.4049,2.5473,2.6648,2.7197,2.8267,2.9106,2.9702,2.9779,2.9779,2.9779,2.9779,2.9779,2.9779,2.9779,2.9779,2.9779,2.9779,2.9779,2.9779,2.9779,2.9779,2.9702,2.9365,2.8676,2.8176,2.7209,2.613,2.5041,2.4457,2.3887,2.3135,2.2492,2.1756,2.0666,1.9389,1.7933,5.0144,4.9551,4.9827,4.9949,4.9942,4.9681,4.9251,4.872,4.8839,4.8972,4.9017,4.8786,4.8606,4.8417,4.767,4.7319,4.7176,4.6412,4.583,4.5535,4.5586,4.5658,4.5638,4.545,4.557,4.5752,4.5367,4.5129,4.5111,4.4949,4.4552,4.396,4.3779,4.3579,4.3306,4.3681,4.3556,4.2902,4.2422,4.2185,4.2185,4.2185,4.2185,4.2185,4.2185,4.2162,4.2021,4.1997,4.1664,4.0903,3.9749,3.8335,3.6675,3.4317,3.2745,3.218,3.0658,2.9261,2.7942,2.4838,2.238,2.14,2.072,1.9551,1.7666,1.6833,1.6433,1.6359,1.6172,1.6587,1.7646,1.817,1.8582,1.9513,2.0854,2.1667,2.148,2.257,2.3387,2.3387,2.4893,2.6058,2.6472,2.7799,2.9118,2.9624,2.9779,2.9779,2.9779,2.9779,2.9779,2.9779,2.9779,2.9779,2.9779,2.9779,2.9779,2.9779,2.9779,2.9779,2.9702,2.9015,2.8426,2.8096,2.7197,2.613,2.5126,2.4457,2.3867,2.2843,2.1933,2.1025,1.9844,1.8025,1.6567,4.957,4.9504,4.9485,4.9561,4.9561,4.9532,4.9632,4.9885,5.0047,5.0342,5.0416,4.9165,4.8555,4.8493,4.8424,4.8344,4.8237,4.7963,4.7776,4.7671,4.8049,4.8255,4.823,4.8696,4.8995,4.8875,4.8194,4.7728,4.7691,4.7105,4.6759,4.6741,4.6713,4.606,4.5177,4.5103,4.4596,4.3463,4.3356,4.3356,4.3356,4.3356,4.3375,4.3375,4.3321,4.3124,4.2637,4.2598,4.2062,4.1041,4.0745,3.9594,3.7496,3.6875,3.5619,3.3165,3.2699,3.1436,2.8633,2.5444,2.3547,2.3277,2.1123,1.9698,1.9192,1.7928,1.6947,1.674,1.6647,1.7057,1.7971,1.8957,1.9394,1.9387,2.1347,2.2501,2.1774,2.3317,2.4286,2.3212,2.4296,2.4957,2.521,2.6378,2.7718,2.9456,2.9702,2.9779,2.9779,2.9779,2.9779,2.9779,2.9779,2.9779,2.9779,2.9779,2.9779,2.9779,2.9779,2.9779,2.9702,2.9534,2.9287,2.7867,2.6953,2.5797,2.4872,2.4039,2.2931,2.2296,2.1569,2.0845,1.967,1.8218,1.7131,4.8342,4.8274,4.8526,4.8837,4.9121,4.9386,4.9608,4.9754,4.981,5.0073,5.0336,4.9819,4.9768,5.008,5.0053,5.0015,4.9993,4.9918,4.971,4.945,4.9568,4.9588,4.9626,4.9523,4.9589,4.98,4.9258,4.8994,4.8862,4.8173,4.7777,4.7748,4.7351,4.6835,4.6393,4.6374,4.6119,4.5604,4.4928,4.4578,4.449,4.387,4.3479,4.3479,4.3479,4.341,4.3214,4.3178,4.279,4.1997,4.1175,4.0065,3.8792,3.7315,3.6365,3.584,3.331,3.0718,2.8191,2.6048,2.451,2.3791,2.2676,2.1456,1.9723,1.9,1.8259,1.7318,1.6914,1.6839,1.7316,1.8439,1.9073,1.8965,2.0272,2.1301,2.1418,2.218,2.2717,2.3038,2.4135,2.4798,2.5041,2.6367,2.7695,2.8767,2.9287,2.9702,2.9779,2.9779,2.9779,2.9779,2.9779,2.9779,2.9779,2.9779,2.9779,2.9779,2.9779,2.9779,2.9702,2.8474,2.7637,2.729,2.5964,2.4808,2.3887,2.3551,2.2862,2.2129,2.0755,1.9852,1.868,1.7397,1.6473,4.7187,4.7183,4.7433,4.7934,4.8493,4.8788,4.9102,4.9326,4.9326,4.9561,4.993,5.0144,5.0513,5.0927,5.105,5.1111,5.1121,5.1107,5.0917,5.0627,5.0534,5.0535,5.0465,5.0155,5.0103,5.0272,5.0084,4.9902,4.9822,4.929,4.8941,4.8846,4.8378,4.7928,4.7643,4.7579,4.7439,4.7022,4.6204,4.5795,4.569,4.4851,4.4057,4.3587,4.3479,4.3589,4.3809,4.3828,4.3688,4.3343,4.194,4.091,4.0433,3.8262,3.7155,3.7125,3.3508,3.0201,2.8226,2.6945,2.5703,2.4402,2.3989,2.2793,2.0987,1.996,1.902,1.7738,1.7188,1.7042,1.7424,1.8202,1.8739,1.8831,1.9993,2.089,2.1033,2.1536,2.2438,2.279,2.375,2.4581,2.4988,2.6119,2.7093,2.7602,2.8609,2.9365,2.9443,2.9534,2.9779,2.9779,2.9779,2.9779,2.9779,2.9779,2.9779,2.9779,2.9779,2.9779,2.9792,2.8223,2.7476,2.8119,2.5557,2.4231,2.4563,2.4145,2.2862,2.2315,2.0962,1.9239,1.8141,1.6951,1.6347,4.646,4.6478,4.6442,4.6919,4.7452,4.7536,4.8064,4.8878,4.8878,4.9139,4.9532,4.9905,5.0186,5.0392,5.0848,5.1035,5.0941,5.1053,5.1023,5.0898,5.0995,5.1074,5.1054,5.1044,5.1003,5.0969,5.0906,5.0862,5.0755,5.0624,5.0606,5.0509,5.0374,4.9886,4.8976,4.8838,4.8275,4.7458,4.7124,4.7022,4.6948,4.6562,4.5403,4.3873,4.3534,4.3938,4.4544,4.4672,4.4729,4.4957,4.3458,4.2586,4.227,4.0451,3.8456,3.6373,3.3195,3.0742,2.9476,2.8121,2.6935,2.5713,2.4402,2.3447,2.2418,2.0712,1.902,1.7681,1.7522,1.7791,1.8477,1.8831,1.9376,2.0127,2.1414,2.1587,2.087,2.2499,2.3204,2.2648,2.3281,2.4137,2.4742,2.4872,2.5706,2.6528,2.7476,2.8199,2.8359,2.9028,2.9611,2.9702,2.9702,2.9779,2.9779,2.9779,2.9779,2.9779,2.9779,2.9779,2.9792,2.9714,2.9534,2.8949,2.6883,2.5724,2.5819,2.4798,2.2999,2.1784,2.0654,1.9204,1.8085,1.7736,1.7188,4.5815,4.5883,4.624,4.6571,4.6774,4.6756,4.7227,4.7926,4.7965,4.8384,4.9043,4.9265,4.9662,5.0183,5.0374,5.0666,5.1,5.1128,5.114,5.1093,5.1156,5.1161,5.1154,5.1131,5.1094,5.1094,5.1094,5.1063,5.1027,5.0894,5.0839,5.0805,5.072,5.0451,5.0101,5.0063,4.9808,4.9354,4.8667,4.8239,4.8175,4.7363,4.6497,4.5832,4.5297,4.5168,4.5443,4.5461,4.5517,4.5605,4.4286,4.3066,4.1916,4.0399,3.885,3.7195,3.4711,3.278,3.1432,2.9087,2.74,2.6839,2.4875,2.3194,2.2114,2.0562,1.9013,1.7996,1.7589,1.783,1.8185,1.8854,1.9423,1.9729,2.0818,2.161,2.17,2.1925,2.2241,2.3186,2.3915,2.4283,2.4476,2.516,2.5662,2.5819,2.6763,2.7224,2.7278,2.8039,2.8828,2.887,2.9287,2.9779,2.9779,2.9779,2.9779,2.9779,2.9779,2.9779,2.9792,2.9197,2.8846,2.8438,2.7035,2.5714,2.5231,2.4196,2.2549,2.1571,2.0434,1.937,1.818,1.7867,1.7287,4.5337,4.5545,4.5965,4.6336,4.671,4.6728,4.6999,4.7428,4.7614,4.7983,4.8403,4.8742,4.9215,4.97,4.9993,5.031,5.0787,5.0987,5.114,5.118,5.119,5.122,5.1265,5.1224,5.118,5.1193,5.1145,5.1128,5.112,5.102,5.0966,5.0972,5.0839,5.0775,5.0757,5.074,5.0683,5.0528,4.9882,4.9465,4.9354,4.8567,4.8055,4.7988,4.7398,4.6863,4.6521,4.6342,4.6434,4.6448,4.522,4.3454,4.1416,4.0086,3.8738,3.7315,3.5493,3.3804,3.2241,2.9716,2.8049,2.7494,2.5246,2.3059,2.1374,2.0207,1.9013,1.7996,1.7589,1.7589,1.7786,1.8394,1.9029,1.9241,2.0093,2.0891,2.1366,2.1226,2.175,2.2786,2.3411,2.3644,2.3932,2.4834,2.5228,2.5142,2.6062,2.6594,2.6598,2.7693,2.8595,2.8688,2.9696,3.0124,3.0206,3.0168,2.9877,2.9827,2.9792,2.9779,2.9689,2.8937,2.8371,2.7855,2.6801,2.5473,2.4348,2.3408,2.2485,2.1599,2.0677,1.9733,1.8758,1.78,1.7364,4.4961,4.5407,4.5494,4.6112,4.6955,4.7106,4.7299,4.7385,4.7937,4.7937,4.7824,4.8494,4.8897,4.9108,4.9673,5.0092,5.0262,5.0653,5.0927,5.1074,5.116,5.1255,5.1348,5.1367,5.1367,5.1367,5.1265,5.1206,5.1216,5.1137,5.1094,5.1063,5.0953,5.0879,5.0894,5.0756,5.0702,5.0664,5.0528,5.0567,5.0644,5.0125,4.9868,4.9896,4.9503,4.8769,4.7756,4.735,4.7407,4.7782,4.6241,4.3822,4.1243,3.9893,3.8473,3.6668,3.5359,3.3694,3.1629,3.0112,2.868,2.7652,2.5149,2.2607,2.1006,1.9861,1.8916,1.7891,1.7589,1.7589,1.7582,1.7575,1.8073,1.931,1.9671,1.9854,1.9964,2.0907,2.1502,2.1452,2.2057,2.247,2.2735,2.3889,2.4736,2.4914,2.5492,2.6051,2.6083,2.7509,2.9136,2.9474,2.9642,2.9861,3.0226,3.0503,3.0202,2.9939,2.9867,2.9779,2.9779,2.9365,2.8901,2.8342,2.7054,2.5637,2.4243,2.3374,2.2446,2.16,2.0752,1.9789,1.8617,1.7725,1.7649,4.472,4.4852,4.4852,4.5089,4.5511,4.5883,4.6305,4.6774,4.7385,4.7797,4.8056,4.8327,4.8621,4.8897,4.9202,4.9589,5.0092,5.0303,5.0585,5.0927,5.1133,5.121,5.1268,5.1346,5.1387,5.1387,5.1365,5.1328,5.1308,5.1221,5.114,5.1094,5.1072,5.0926,5.0791,5.0825,5.0808,5.0702,5.0683,5.0683,5.0683,5.0565,5.0523,5.0483,5.0116,4.9595,4.8969,4.8557,4.8126,4.7756,4.6611,4.4656,4.2028,4.0168,3.8743,3.7439,3.6304,3.5183,3.3526,3.0986,2.9223,2.8079,2.4887,2.2332,2.118,1.9391,1.8199,1.7582,1.7589,1.7589,1.7477,1.6605,1.681,1.8094,1.9013,1.942,1.9627,2.0735,2.1001,2.0507,2.1994,2.3135,2.341,2.439,2.4842,2.4808,2.5135,2.5335,2.533,2.6468,2.7151,2.7239,2.8155,2.9277,2.927,2.9415,2.932,2.9313,2.937,2.9882,2.9899,2.9376,2.904,2.8269,2.703,2.5791,2.4376,2.3414,2.2564,2.1656,2.071,1.9582,1.8102,1.7619,1.764,4.4703,4.4906,4.4961,4.5089,4.5267,4.5699,4.6063,4.6478,4.7106,4.7614,4.7937,4.821,4.8421,4.8657,4.8829,4.9171,4.9692,4.9949,5.0281,5.0638,5.0961,5.1098,5.1167,5.1265,5.1365,5.1387,5.1387,5.1387,5.1387,5.132,5.1254,5.1219,5.116,5.1025,5.0883,5.0863,5.0835,5.0702,5.0683,5.0683,5.0683,5.0683,5.0683,5.0663,5.0462,5.0135,4.9746,4.9146,4.8365,4.7494,4.6749,4.5001,4.2235,4.0325,3.8747,3.7386,3.654,3.5588,3.3998,3.1098,2.9396,2.8533,2.4654,2.1845,2.1245,1.9213,1.7687,1.7589,1.7589,1.7589,1.7371,1.628,1.6168,1.7477,1.7759,1.8269,1.8805,1.962,1.9716,1.9398,2.0711,2.1862,2.2466,2.3367,2.431,2.4456,2.4602,2.4871,2.4961,2.6023,2.6341,2.6869,2.8041,2.8511,2.8253,2.824,2.837,2.8556,2.8703,2.9622,3.0208,2.9116,2.8407,2.7327,2.6176,2.5396,2.4127,2.372,2.3021,2.1907,2.0654,1.9325,1.8142,1.7694,1.758,4.4906,4.5407,4.5459,4.5648,4.6112,4.6209,4.624,4.643,4.7106,4.7428,4.7572,4.8075,4.8326,4.844,4.8779,4.9029,4.9139,4.9773,5.0159,5.0366,5.0673,5.0959,5.1128,5.121,5.1294,5.1387,5.1387,5.1387,5.1387,5.1367,5.1386,5.1342,5.1258,5.1161,5.1074,5.0966,5.0874,5.0773,5.072,5.0702,5.0721,5.0683,5.0683,5.0683,5.0663,5.0462,4.998,4.8996,4.8052,4.7324,4.6484,4.4846,4.2296,4.0339,3.8461,3.6584,3.6198,3.4926,3.3066,3.0765,2.9304,2.874,2.4868,2.1752,2.144,1.9517,1.7891,1.7687,1.7589,1.7589,1.7371,1.628,1.6068,1.6823,1.6599,1.6704,1.7252,1.7674,1.7996,1.8101,1.8812,1.9731,2.0033,2.1245,2.2441,2.3439,2.3826,2.4389,2.5373,2.6245,2.7148,2.7557,2.775,2.7644,2.7296,2.7264,2.7495,2.7975,2.8031,2.8534,2.9511,2.8618,2.7827,2.664,2.5706,2.4973,2.4536,2.4155,2.3114,2.179,2.0466,1.9155,1.8297,1.7786,1.7575,4.4682,4.4869,4.4852,4.4961,4.5142,4.5511,4.5732,4.5883,4.691,4.7385,4.7512,4.8017,4.8458,4.8744,4.8829,4.9202,4.9645,4.9974,5.0272,5.0525,5.0664,5.092,5.1133,5.1191,5.1268,5.1387,5.1387,5.1387,5.1387,5.1387,5.1367,5.1265,5.132,5.1249,5.1122,5.1109,5.1074,5.1004,5.0879,5.0825,5.0835,5.0758,5.0683,5.0683,5.0683,5.0464,4.9961,4.8373,4.6975,4.6063,4.5405,4.4178,4.2173,4.0341,3.8497,3.6726,3.6132,3.4804,3.2153,3.0316,2.9039,2.7945,2.4916,2.2767,2.1744,2.0135,1.8708,1.7996,1.7589,1.7589,1.7364,1.628,1.5417,1.4669,1.5636,1.6499,1.6393,1.6929,1.7589,1.7793,1.8812,1.9317,1.9723,2.0641,2.1954,2.3076,2.3493,2.3998,2.5109,2.5713,2.6167,2.6187,2.629,2.6376,2.6325,2.6315,2.6656,2.7264,2.7281,2.6904,2.7687,2.7679,2.7093,2.6524,2.5916,2.5232,2.5283,2.5218,2.352,2.1628,2.0921,1.9922,1.8401,1.7582,1.7582,4.457,4.457,4.457,4.457,4.4626,4.5015,4.5284,4.5648,4.6542,4.715,4.747,4.8035,4.8421,4.8657,4.8847,4.9139,4.9589,4.9949,5.0225,5.0421,5.0624,5.0874,5.1092,5.1174,5.1245,5.1387,5.1387,5.1387,5.1387,5.1387,5.1348,5.132,5.1365,5.1313,5.1167,5.1174,5.1167,5.1094,5.1016,5.0972,5.0966,5.0846,5.0815,5.0758,5.0682,5.0301,4.9085,4.7868,4.6641,4.5425,4.474,4.3879,4.2363,4.0453,3.8585,3.6758,3.6353,3.4709,3.1792,3.0045,2.8866,2.7274,2.4739,2.3067,2.2064,2.0444,1.8408,1.861,1.7996,1.7687,1.7364,1.628,1.4234,1.2295,1.4019,1.5636,1.531,1.6711,1.7477,1.7793,1.8199,1.8812,1.8812,1.962,2.0538,2.1456,2.176,2.2876,2.4304,2.4707,2.5216,2.5528,2.5732,2.5887,2.6061,2.6041,2.6031,2.6597,2.6737,2.6239,2.6474,2.6804,2.6641,2.6357,2.5962,2.5528,2.5118,2.451,2.3141,2.1686,2.1338,2.0231,1.8506,1.7589,1.7589,4.457,4.457,4.457,4.457,4.457,4.4626,4.4906,4.5407,4.6063,4.6664,4.7281,4.7937,4.8251,4.8402,4.8863,4.9011,4.9152,4.9924,5.0159,5.0358,5.0545,5.0832,5.1042,5.1103,5.1219,5.1367,5.1387,5.1387,5.1387,5.1387,5.1387,5.1367,5.1387,5.1343,5.1258,5.1234,5.1199,5.1164,5.1132,5.1103,5.1074,5.0961,5.0877,5.0855,5.0739,4.9702,4.8342,4.7456,4.6708,4.472,4.4566,4.3984,4.2658,4.0572,3.8677,3.7433,3.6438,3.4696,3.1604,2.9852,2.8762,2.7084,2.4141,2.2357,2.2466,2.0341,1.8812,1.8916,1.8192,1.7687,1.7364,1.6174,1.3804,1.1319,1.2181,1.3352,1.5097,1.6617,1.7595,1.7589,1.7582,1.7582,1.7589,1.7687,1.8199,2.0538,2.0947,2.2265,2.3692,2.4609,2.5118,2.5625,2.5732,2.5732,2.5723,2.5723,2.5713,2.5994,2.6081,2.5895,2.6078,2.6265,2.6154,2.5887,2.5206,2.4402,2.3583,2.2876,2.2064,2.1151,2.0333,1.9213,1.7996,1.7687,1.7589,4.457,4.457,4.457,4.457,4.457,4.457,4.4665,4.4852,4.5459,4.6094,4.6664,4.7324,4.8023,4.8744,4.9139,4.9532,4.9754,5.0272,5.0565,5.0565,5.0624,5.0791,5.094,5.105,5.1206,5.1348,5.1387,5.1387,5.1387,5.1387,5.1387,5.1387,5.1387,5.1387,5.1348,5.1328,5.1348,5.1308,5.123,5.1191,5.1141,5.1006,5.0914,5.0889,5.0775,4.9638,4.8099,4.7609,4.6639,4.5157,4.4489,4.4009,4.2296,3.9115,3.724,3.7027,3.6449,3.4341,3.0784,2.9498,2.8402,2.637,2.4992,2.4097,2.2156,2.1347,1.9723,1.8708,1.7786,1.7582,1.7259,1.5204,1.348,1.2177,1.0837,1.1042,1.3475,1.6035,1.7463,1.7615,1.7589,1.7589,1.7589,1.7687,1.8408,1.942,2.0641,2.1853,2.3076,2.4402,2.502,2.5528,2.5732,2.5732,2.5732,2.5732,2.5732,2.5528,2.5421,2.5323,2.5421,2.5206,2.4992,2.4688,2.4196,2.3285,2.2366,2.1954,2.1347,2.0333,1.942,1.8708,1.7996,1.7793,1.7259,4.4006,4.4006,4.4457,4.457,4.457,4.457,4.457,4.472,4.5232,4.5815,4.643,4.7106,4.7864,4.8657,4.9221,4.9636,4.9924,5.0421,5.0683,5.0683,5.0702,5.0793,5.0889,5.1031,5.1167,5.1296,5.1367,5.1387,5.1387,5.1387,5.1387,5.1387,5.1387,5.1387,5.1387,5.1387,5.1387,5.1387,5.1328,5.1287,5.1252,5.1128,5.0986,5.0903,5.0718,4.9883,4.8488,4.7813,4.6819,4.5597,4.4843,4.3798,4.1724,3.8385,3.6505,3.6177,3.5764,3.3617,3.0528,2.9212,2.8308,2.5917,2.4609,2.3692,2.2055,2.1143,1.9627,1.861,1.7989,1.7364,1.6605,1.5524,1.4019,1.2064,1.028,1.0058,1.2285,1.5415,1.7616,1.7622,1.7589,1.7589,1.7694,1.7898,1.8506,1.9524,2.0735,2.1954,2.2976,2.4196,2.4815,2.5333,2.5635,2.5732,2.5732,2.5732,2.5732,2.5323,2.4913,2.4707,2.4501,2.4097,2.3683,2.3384,2.3076,2.1963,2.1143,2.0837,2.0223,1.9213,1.8297,1.8094,1.7674,1.6929,1.6499,4.3185,4.3366,4.4064,4.444,4.457,4.457,4.457,4.4665,4.5142,4.5681,4.643,4.6999,4.7596,4.8346,4.9062,4.9416,4.98,5.0313,5.0683,5.0683,5.0683,5.0757,5.0863,5.1008,5.112,5.1191,5.1342,5.1387,5.1387,5.1387,5.1387,5.1387,5.1387,5.1387,5.1387,5.1387,5.1387,5.1387,5.1387,5.1367,5.1367,5.1264,5.1132,5.0918,5.0756,5.0141,4.8983,4.8081,4.7098,4.6118,4.5157,4.3389,4.0878,3.8091,3.5714,3.5072,3.4815,3.3003,3.027,2.9212,2.8297,2.5907,2.389,2.2767,2.2458,2.0735,1.9317,1.8708,1.8192,1.7153,1.5956,1.5417,1.4234,1.2276,1.0276,0.9843,1.1524,1.4633,1.5458,1.7179,1.7364,1.7589,1.7891,1.8094,1.8812,1.9524,2.0735,2.1853,2.2868,2.3791,2.451,2.5226,2.5635,2.5118,2.502,2.4196,2.4402,2.4402,2.3989,2.3692,2.3285,2.2475,2.2064,2.2265,2.176,2.0735,1.9605,1.8873,1.8269,1.7575,1.6929,1.6387,1.6062,1.5849,1.5524,4.2661,4.3306,4.3426,4.3948,4.4514,4.457,4.457,4.4626,4.4703,4.5372,4.6336,4.6507,4.7281,4.8137,4.8744,4.9356,4.9949,5.0462,5.0683,5.0683,5.0683,5.0721,5.0791,5.0966,5.1094,5.1172,5.1285,5.1387,5.1387,5.1387,5.1387,5.1387,5.1387,5.1387,5.1387,5.1387,5.1387,5.1387,5.1387,5.1387,5.1387,5.1323,5.118,5.0937,5.0773,5.0183,4.9164,4.815,4.7139,4.6124,4.513,4.3195,4.0516,3.7661,3.5382,3.432,3.4284,3.3016,3.0203,2.9407,2.8121,2.6274,2.4815,2.3484,2.2466,2.1143,1.9524,1.8304,1.7891,1.7477,1.7259,1.628,1.5417,1.3885,1.1806,1.0163,1.1833,1.2271,1.2911,1.5299,1.6499,1.7687,1.7891,1.8192,1.8708,1.9324,2.0231,2.1245,2.2165,2.3176,2.3998,2.4815,2.5635,2.4913,2.4205,2.3076,2.2458,2.2667,2.2466,2.2265,2.1651,2.0743,2.0341,2.0546,2.012,1.9191,1.8157,1.7108,1.6698,1.6393,1.553,1.4561,1.4663,1.4663,1.4014,4.1543,4.2062,4.2717,4.3386,4.3931,4.444,4.457,4.457,4.4626,4.5089,4.5815,4.6288,4.691,4.7824,4.8639,4.9337,4.9999,5.0523,5.0683,5.0683,5.0683,5.0683,5.0721,5.0903,5.1008,5.1102,5.124,5.1343,5.1387,5.1387,5.1387,5.1387,5.1387,5.1387,5.1387,5.1387,5.1387,5.1387,5.1387,5.1387,5.1367,5.1313,5.1133,5.0991,5.0769,5.0325,4.9572,4.8255,4.7335,4.6471,4.5296,4.2841,3.976,3.6676,3.4462,3.3988,3.3882,3.2968,3.0664,2.9863,2.8495,2.6829,2.508,2.3276,2.1651,2.0333,1.9109,1.8094,1.7589,1.7589,1.7477,1.6823,1.628,1.5204,1.3131,1.2281,1.1851,1.1076,1.2271,1.4228,1.5417,1.6711,1.7786,1.8094,1.8506,1.9117,1.9826,2.0641,2.1448,2.2165,2.3076,2.3484,2.3989,2.3484,2.2667,2.1634,2.0931,2.1041,2.0719,2.0523,2.0223,1.931,1.8812,1.8708,1.8185,1.7101,1.6573,1.5512,1.5417,1.5204,1.4234,1.3588,1.3583,1.3367,1.2615,4.0569,4.0795,4.1933,4.2762,4.335,4.4006,4.444,4.457,4.457,4.4961,4.5511,4.6014,4.6635,4.7542,4.8529,4.9416,5.0024,5.0442,5.0683,5.0683,5.0683,5.0683,5.074,5.0855,5.0966,5.1103,5.1193,5.1268,5.1367,5.1387,5.1387,5.1387,5.1387,5.1387,5.1387,5.1387,5.1387,5.1387,5.1387,5.1387,5.1318,5.118,5.1074,5.1,5.075,5.038,4.9898,4.8348,4.743,4.6619,4.5261,4.2847,3.9015,3.5184,3.3628,3.4024,3.3556,3.2401,3.0956,2.9954,2.8566,2.632,2.3845,2.2248,2.0727,1.9317,1.7793,1.7589,1.7589,1.7589,1.7589,1.7589,1.7041,1.6299,1.5482,1.465,1.3186,1.2408,1.2521,1.3932,1.4776,1.5949,1.7246,1.7786,1.8199,1.8297,1.9005,1.9723,2.0538,2.0845,2.1456,2.1752,2.1853,2.1651,2.0931,1.9979,1.9693,1.9819,1.908,1.845,1.8366,1.8073,1.7667,1.7028,1.5299,1.4325,1.4121,1.4121,1.3911,1.348,1.2832,1.2507,1.2507,1.1751,1.0887,3.999,4.0675,4.0847,4.1837,4.3169,4.341,4.3948,4.457,4.457,4.4961,4.5407,4.563,4.6305,4.7482,4.8803,4.9445,4.9773,5.0336,5.0683,5.0683,5.0683,5.0683,5.0702,5.0835,5.0953,5.1103,5.1161,5.1268,5.1367,5.1387,5.1387,5.1387,5.1387,5.1387,5.1387,5.1387,5.1387,5.1387,5.1387,5.1348,5.1238,5.1145,5.1011,5.0811,5.0451,5.0092,4.9724,4.8196,4.7114,4.6784,4.5419,4.2739,3.9,3.5184,3.353,3.324,3.2957,3.2052,3.0226,2.9385,2.787,2.5499,2.3466,2.2165,2.0231,1.87,1.7589,1.7589,1.7589,1.7589,1.7589,1.7589,1.7477,1.7073,1.6468,1.5928,1.4804,1.2526,1.2861,1.3932,1.4877,1.5956,1.7147,1.747,1.7793,1.7891,1.8087,1.8693,1.8984,1.8969,1.9494,1.9686,1.914,1.8733,1.8525,1.7684,1.7698,1.8046,1.7417,1.6467,1.6474,1.6374,1.6056,1.5091,1.3367,1.2724,1.3367,1.3372,1.262,1.1864,1.1324,1.1214,1.1214,1.0237,0.9254,3.961,3.996,3.9956,4.0981,4.2488,4.2916,4.3639,4.4423,4.457,4.4703,4.5035,4.5355,4.6209,4.7482,4.887,4.9475,4.9673,5.0336,5.0683,5.0683,5.0683,5.0683,5.0702,5.0756,5.0879,5.1063,5.1137,5.1245,5.1348,5.1387,5.1387,5.1387,5.1387,5.1387,5.1387,5.1387,5.1387,5.1387,5.1387,5.1367,5.1226,5.0964,5.072,5.0661,5.0061,4.9709,4.9121,4.7979,4.6906,4.6507,4.5322,4.2794,3.8561,3.4339,3.1213,3.1965,3.1323,3.0777,3.0395,2.9043,2.6866,2.4761,2.2733,2.0341,1.8812,1.7989,1.7589,1.7589,1.7589,1.7582,1.7477,1.7589,1.7589,1.7285,1.6342,1.5897,1.5013,1.3398,1.2531,1.3809,1.4984,1.5849,1.6393,1.628,1.628,1.628,1.5949,1.5825,1.5807,1.5488,1.633,1.7502,1.6647,1.5695,1.5482,1.5062,1.5163,1.5287,1.5281,1.4652,1.4657,1.4556,1.4341,1.3798,1.2507,1.2398,1.2935,1.1969,1.0672,1.0241,0.9809,0.9805,0.9798,0.8575,0.7587,3.9424,3.9364,3.941,4.0303,4.1707,4.2326,4.3218,4.4236,4.4497,4.457,4.4814,4.5425,4.6288,4.7295,4.8579,4.9356,4.958,5.0249,5.0565,5.0663,5.0683,5.0683,5.0702,5.0721,5.0819,5.1042,5.1094,5.12,5.1313,5.1367,5.1387,5.1387,5.1387,5.1387,5.1387,5.1387,5.1387,5.1387,5.1387,5.1367,5.1232,5.0812,5.0583,5.0258,4.9782,4.9202,4.8773,4.7565,4.6659,4.6309,4.5293,4.2785,3.8722,3.3398,3.0643,3.085,3.0406,2.9465,2.8859,2.7681,2.6054,2.3735,2.1476,1.8693,1.745,1.7259,1.6935,1.6393,1.6823,1.6711,1.6605,1.6393,1.618,1.5636,1.5102,1.4883,1.4561,1.3814,1.2738,1.2945,1.4019,1.5204,1.5423,1.499,1.4883,1.4776,1.4126,1.3372,1.3264,1.3259,1.4008,1.5388,1.4961,1.411,1.3793,1.3367,1.3156,1.2945,1.2832,1.3156,1.348,1.3156,1.2832,1.2186,1.1538,1.1105,1.0996,0.9915,0.8937,0.9154,0.9261,0.8709,0.826,0.7035,0.6031,3.9424,3.9424,3.9364,3.9945,4.0894,4.1723,4.2567,4.3545,4.427,4.457,4.4776,4.5732,4.6336,4.6928,4.8181,4.9202,4.9522,4.9949,5.0294,5.0565,5.0683,5.0624,5.0624,5.0644,5.0736,5.0932,5.1027,5.1128,5.1225,5.1328,5.1367,5.1387,5.1387,5.1387,5.1387,5.1387,5.1387,5.1387,5.1387,5.1348,5.1147,5.0761,5.0426,5.0123,4.9484,4.8878,4.881,4.7331,4.6471,4.6358,4.523,4.255,3.8297,3.2682,3.0337,3.0032,2.9179,2.7849,2.637,2.5777,2.3735,2.0993,1.8582,1.7233,1.6168,1.6929,1.628,1.4556,1.5204,1.4984,1.4341,1.3696,1.4347,1.4234,1.4126,1.4019,1.4341,1.5204,1.4132,1.294,1.3372,1.4776,1.4669,1.4234,1.4126,1.4019,1.2832,1.1969,1.2512,1.2615,1.2832,1.3475,1.3367,1.3043,1.294,1.2512,1.1647,1.1542,1.1538,1.2077,1.2615,1.2077,1.1214,1.0891,1.0351,0.9592,0.9044,0.8602,0.838,0.8826,0.8602,0.7817,0.6586,0.5359,0.4691,3.9424,3.9424,3.9424,3.9935,4.0758,4.1609,4.252,4.3366,4.4179,4.457,4.4682,4.5833,4.6365,4.6883,4.8105,4.9108,4.9504,4.9924,5.0159,5.0272,5.0336,5.0336,5.0336,5.0423,5.0509,5.0828,5.0966,5.1074,5.1201,5.1249,5.1342,5.1367,5.1387,5.1387,5.1387,5.1387,5.1387,5.1387,5.1387,5.1367,5.1187,5.0538,5.0103,4.999,4.9065,4.8603,4.8328,4.7122,4.66,4.6013,4.5044,4.1829,3.769,3.2162,2.9613,2.8892,2.7411,2.5354,2.3852,2.3547,2.2455,1.9177,1.7134,1.5956,1.5091,1.531,1.4663,1.3804,1.3701,1.3588,1.348,1.3264,1.348,1.3264,1.3048,1.2935,1.3372,1.4234,1.4341,1.2615,1.348,1.499,1.4234,1.348,1.3372,1.3264,1.186,1.0891,1.1319,1.1538,1.1647,1.1647,1.1647,1.1324,1.1105,1.0566,1.0025,1.0241,1.0347,1.0781,1.1214,1.0453,0.9695,0.9482,0.9258,0.8706,0.8263,0.7931,0.7931,0.8266,0.7593,0.6473,0.5137,0.3687,0.313,3.9424,3.9424,3.9424,3.9737,4.0447,4.1543,4.2316,4.3031,4.4121,4.457,4.4665,4.5815,4.6365,4.6838,4.7949,4.9011,4.9386,4.9645,4.9879,5.0043,5.0135,5.0111,5.0135,5.0294,5.0547,5.08,5.0889,5.0969,5.1081,5.1154,5.1242,5.132,5.1367,5.1387,5.1387,5.1387,5.1387,5.1387,5.1387,5.1387,5.1269,5.0576,4.9971,4.9731,4.8725,4.808,4.7386,4.62,4.5095,4.4406,4.3089,4.0307,3.5974,3.1785,2.8598,2.6843,2.5237,2.295,2.1694,2.0444,1.9918,1.7213,1.563,1.4663,1.4014,1.348,1.3264,1.1864,1.2186,1.2507,1.2177,1.1197,1.1202,1.0878,1.0853,1.0962,1.1638,1.2403,1.2615,1.2186,1.348,1.4234,1.3264,1.2295,1.1864,1.1647,1.0672,0.9915,1.0025,1.0131,1.0025,0.9915,0.9919,0.9482,0.9047,0.9265,0.9482,0.9482,0.9588,0.9372,0.9372,0.8712,0.8263,0.8036,0.7925,0.7706,0.7149,0.6366,0.6924,0.7928,0.6473,0.4688,0.3687,0.246,0.1455,3.9424,3.9424,3.9424,3.9424,3.9753,4.1295,4.1997,4.2379,4.3856,4.457,4.4759,4.5865,4.6365,4.6692,4.7824,4.8744,4.9234,4.9171,4.9356,4.98,4.9853,4.9993,5.0159,5.0294,5.0464,5.0683,5.0805,5.0874,5.094,5.1064,5.1174,5.1265,5.1328,5.1387,5.1387,5.1387,5.1387,5.1387,5.1387,5.1387,5.123,5.0661,5.0123,4.9457,4.8333,4.7596,4.691,4.4785,4.3642,4.3122,4.0299,3.7321,3.3944,2.8455,2.6023,2.6335,2.4211,2.1988,1.969,1.7147,1.5813,1.5405,1.4126,1.3048,1.2077,1.1969,1.1746,0.99,1.012,1.012,0.9133,0.8033,0.8361,0.8465,0.8556,0.8659,0.9329,1.0331,1.0433,1.1193,1.2285,1.2837,1.1864,1.0996,1.0351,0.9805,0.9265,0.9047,0.9154,0.9154,0.9154,0.9154,0.9154,0.9047,0.8937,0.8937,0.9047,0.8937,0.8602,0.8266,0.7817,0.726,0.6924,0.67,0.6366,0.6142,0.5361,0.4582,0.5025,0.5248,0.4131,0.2682,0.1901,0.0,0.0,3.9424,3.9424,3.9424,3.9424,3.9553,4.0638,4.1462,4.2252,4.3722,4.457,4.4852,4.5865,4.6365,4.6783,4.7661,4.8604,4.8996,4.9043,4.9184,4.9276,4.9367,4.9485,4.97,4.9974,5.0249,5.0585,5.0757,5.0819,5.0903,5.1,5.1117,5.1191,5.1308,5.1387,5.1387,5.1387,5.1387,5.1387,5.1387,5.1367,5.1289,5.0538,4.9776,4.9217,4.7995,4.7096,4.64,4.3681,4.2294,4.1307,3.8084,3.4245,3.0943,2.5787,2.2487,2.1977,1.9793,1.7415,1.5435,1.3783,1.3151,1.3048,1.2502,1.1424,1.121,1.0457,0.9357,0.8033,0.8026,0.7581,0.6139,0.5806,0.5804,0.5804,0.5797,0.5797,0.6463,0.7572,0.8455,0.9658,1.0748,1.1193,1.066,0.9453,0.8692,0.8589,0.8152,0.8716,0.8937,0.8937,0.8933,0.8937,0.8937,0.8937,0.8826,0.8156,0.7706,0.7482,0.7146,0.6813,0.6255,0.581,0.5472,0.5137,0.4803,0.447,0.3911,0.3242,0.2573,0.2014,0.179,0.0,0.0,0.0,0.0,3.9424,3.9424,3.9424,3.9424,3.9553,4.0309,4.133,4.2567,4.3931,4.457,4.4852,4.5865,4.6365,4.6738,4.7661,4.8513,4.8863,4.8709,4.8863,4.8863,4.8897,4.9184,4.9426,4.9645,5.0183,5.0544,5.0702,5.0757,5.0822,5.0898,5.1023,5.1185,5.1294,5.1348,5.1367,5.1387,5.1387,5.1387,5.1387,5.1387,5.0976,5.0188,4.9152,4.8567,4.7537,4.6182,4.4733,4.2875,4.0704,3.8726,3.5237,3.1122,2.7532,2.3727,2.0084,1.8774,1.6441,1.427,1.2704,1.0534,1.021,1.0534,0.9995,0.9336,0.8896,0.7796,0.7027,0.6253,0.5919,0.5363,0.4583,0.4247,0.3911,0.3911,0.3798,0.3798,0.4691,0.5913,0.6354,0.7558,0.8219,0.8779,0.9116,0.8017,0.6922,0.7033,0.7257,0.7817,0.8377,0.8266,0.8152,0.8042,0.7706,0.7146,0.7035,0.6813,0.6366,0.6031,0.5697,0.5361,0.4916,0.447,0.4134,0.3576,0.2907,0.246,0.246,0.0,0.0,0.0,0.0896,0.0,0.0,0.0,0.0,3.9424,3.9424,3.9424,3.9424,3.9553,4.0447,4.1723,4.3246,4.4179,4.457,4.4665,4.5865,4.6365,4.6646,4.7738,4.8477,4.8728,4.8477,4.8568,4.8763,4.8779,4.9108,4.9475,4.98,5.0202,5.0523,5.0702,5.0702,5.0721,5.0835,5.1011,5.1141,5.1206,5.1296,5.1367,5.1387,5.1387,5.1387,5.1387,5.125,5.0762,4.944,4.8643,4.7847,4.6422,4.4647,4.2723,4.031,3.755,3.4366,3.0296,2.7636,2.4638,2.157,2.0076,1.7673,1.4305,1.1999,1.0307,0.7796,0.6911,0.7014,0.6689,0.5806,0.547,0.547,0.5137,0.4693,0.4357,0.4247,0.4024,0.3242,0.2571,0.2459,0.2346,0.2793,0.3576,0.4134,0.4244,0.4797,0.5131,0.5577,0.5908,0.525,0.5246,0.5697,0.5917,0.6021,0.6468,0.67,0.6589,0.6478,0.5919,0.5027,0.4916,0.5248,0.4914,0.4578,0.4357,0.4134,0.3688,0.3018,0.2572,0.179,0.0896,0.0,0.0,0.0,0.0,0.0,0.0,0.0,0.0,0.0,0.0,3.9424,3.9424,3.9424,3.9424,3.961,4.0961,4.1933,4.2504,4.3931,4.457,4.4665,4.5865,4.6318,4.6507,4.7756,4.8251,4.8383,4.8383,4.8402,4.8458,4.855,4.8963,4.9326,4.9692,5.0111,5.0483,5.0683,5.0683,5.0721,5.0819,5.0953,5.1102,5.1096,5.1219,5.1308,5.1387,5.1387,5.1387,5.1387,5.0976,5.0247,4.8952,4.8086,4.667,4.4617,4.2791,4.0942,3.7682,3.5045,3.3034,2.8539,2.5565,2.3904,1.9316,1.5599,1.0566,0.8087,0.6669,0.6349,0.5579,0.4803,0.3908,0.3574,0.4244,0.4134,0.391,0.3463,0.2904,0.2234,0.1898,0.1452,0.0894,0.0559,0.0447,0.0223,0.0335,0.1005,0.1339,0.1451,0.2009,0.2455,0.279,0.3013,0.3348,0.3457,0.4131,0.4242,0.4012,0.4344,0.446,0.4347,0.4236,0.3681,0.2566,0.3572,0.4131,0.3685,0.324,0.2793,0.2235,0.1566,0.1007,0.0784,0.0448,0.0,0.0,0.0,0.0,0.0,0.0,0.0,0.0,0.0,0.0,0.0,3.9177,3.887,3.9265,3.9424,3.9681,4.1295,4.1869,4.1933,4.368,4.457,4.472,4.5597,4.6192,4.6524,4.7409,4.8056,4.8306,4.8306,4.8344,4.8344,4.8324,4.8728,4.9075,4.9475,4.9879,5.0294,5.0624,5.0683,5.0664,5.0587,5.0634,5.0757,5.0879,5.0998,5.1113,5.1269,5.1387,5.1387,5.123,5.0664,4.9606,4.82,4.6585,4.4946,4.2542,4.0655,3.8797,3.5018,3.2905,2.9666,2.4354,2.142,1.8905,1.4001,1.0775,0.6564,0.5686,0.5133,0.4801,0.4021,0.2792,0.1675,0.0782,0.0446,0.0781,0.0558,0.0558,0.0447,-0.0223,-0.0782,-0.1342,-0.1791,-0.1791,-0.1791,-0.2236,-0.2571,-0.2234,-0.1898,-0.134,-0.067,-0.0223,0.0223,0.0669,0.1003,0.0892,0.0111,-0.0223,-0.0334,0.0445,0.1448,0.1335,0.1112,0.0557,0.0,0.1226,0.1785,0.0781,0.0112,0.0112,-0.0335,-0.0784,-0.0336,0.0,-0.0224,-0.056,0.0,0.0,0.0,0.0,-0.1567,-0.1456,0.0,0.0,0.0,0.0,3.8855,3.8069,3.8958,3.9424,3.9595,4.1147,4.1396,4.108,4.335,4.4457,4.4592,4.5214,4.5883,4.6478,4.7194,4.7738,4.8035,4.821,4.8172,4.8267,4.8306,4.8568,4.8963,4.9295,4.9673,5.0092,5.0377,5.0504,5.0483,5.0323,5.0144,5.022,5.048,5.0461,5.0246,5.1109,5.125,5.0957,5.0957,5.0575,4.864,4.6646,4.4358,4.2704,4.0118,3.749,3.5018,3.2323,2.9578,2.3692,1.8792,1.5881,1.2,0.853,0.6088,0.434,0.3124,0.279,0.2344,0.1674,0.0669,-0.0558,-0.1563,-0.2345,-0.2233,-0.1897,-0.1786,-0.1898,-0.2345,-0.268,-0.3129,-0.3242,-0.3243,-0.3465,-0.3911,-0.3911,-0.3575,-0.3351,-0.3015,-0.2568,-0.2455,-0.2119,-0.223,-0.1784,-0.1561,-0.3237,-0.3572,-0.3461,-0.3346,-0.1894,-0.1559,-0.1779,-0.1893,-0.223,-0.2343,-0.2008,-0.2791,-0.3239,-0.2569,-0.2346,-0.2349,-0.1567,-0.056,-0.1232,-0.2125,-0.2236,0.0,-0.313,-0.3466,-0.3578,-0.3578,-0.4247,-0.4023,-0.3352,-0.3018,3.925,3.9031,3.925,3.9424,3.9553,4.0569,4.0946,4.0878,4.2769,4.3621,4.3839,4.4912,4.5833,4.643,4.7088,4.7554,4.7756,4.8132,4.7977,4.8035,4.8114,4.844,4.8813,4.9043,4.9426,4.9924,5.0206,5.0187,5.0206,4.9911,4.9484,4.9328,4.9756,4.9926,4.9181,5.0306,5.0949,5.0641,5.0931,4.9534,4.6733,4.5467,4.3792,4.0441,3.7149,3.4961,3.1947,2.781,2.507,2.0966,1.533,1.1358,0.7813,0.518,0.3546,0.2342,-0.0112,-0.0558,-0.0781,-0.1449,-0.2564,-0.3122,-0.3907,-0.4134,-0.4136,-0.4023,-0.4134,-0.4244,-0.4468,-0.4691,-0.4914,-0.4914,-0.4804,-0.525,-0.5475,-0.514,-0.4804,-0.4804,-0.4693,-0.4693,-0.4693,-0.4693,-0.4804,-0.4693,-0.447,-0.4357,-0.4357,-0.4468,-0.5582,-0.5018,-0.4237,-0.4234,-0.3905,-0.4134,-0.4582,-0.4804,-0.5139,-0.458,-0.3685,-0.3575,-0.3799,-0.3131,-0.2349,-0.3131,-0.3913,-0.3911,-0.3911,-0.4136,-0.447,-0.5027,-0.525,-0.5697,-0.6031,-0.5582,-0.5025,3.9104,3.8782,3.9192,3.9424,3.9553,4.0293,4.05,4.0569,4.2395,4.3092,4.3075,4.4589,4.5833,4.643,4.7088,4.7572,4.7756,4.8132,4.8132,4.8075,4.8075,4.8327,4.8604,4.8813,4.8822,4.9262,4.9448,4.9504,4.9905,4.9466,4.9027,4.8615,4.9143,4.9167,4.8441,4.984,5.0621,5.0543,5.1121,4.9023,4.5414,4.3923,3.9884,3.595,3.2034,2.9718,2.525,2.09,1.8207,1.4242,0.8725,0.4228,0.1428,0.022,-0.0221,-0.1224,-0.2791,-0.4136,-0.4019,-0.4682,-0.5901,-0.6232,-0.7213,-0.7758,-0.9088,-0.8975,-0.7767,-0.788,-0.8005,-0.8229,-0.8229,-0.8229,-0.7578,-0.7476,-0.7482,-0.726,-0.7035,-0.7035,-0.7035,-0.7035,-0.6924,-0.6924,-0.7035,-0.7035,-0.6924,-0.6924,-0.6589,-0.647,-0.7365,-0.7916,-0.7252,-0.6697,-0.6251,-0.6364,-0.6811,-0.6811,-0.6589,-0.5806,-0.4801,-0.458,-0.4582,-0.447,-0.447,-0.4804,-0.514,-0.5475,-0.5475,-0.5697,-0.6255,-0.7038,-0.7035,-0.6922,-0.7263,-0.7502,-0.7065,3.887,3.8219,3.9017,3.9424,3.9481,4.0185,4.017,4.006,4.2078,4.2785,4.2675,4.4589,4.5765,4.643,4.7088,4.7656,4.8075,4.821,4.8229,4.8132,4.8229,4.8326,4.8477,4.8692,4.8822,4.8695,4.8706,4.9313,4.9905,4.9096,4.8347,4.7921,4.792,4.8084,4.8599,4.9313,4.98,5.0576,5.0568,4.8965,4.5998,4.2322,3.5613,2.9697,2.4553,2.0541,1.668,1.2787,1.0377,0.63,0.1948,-0.1421,-0.4505,-0.5282,-0.4641,-0.5328,-0.6423,-0.6659,-0.6222,-0.7207,-0.831,-0.9406,-1.0703,-1.1693,-1.2817,-1.2493,-1.1281,-1.1176,-1.1197,-1.0664,-1.0664,-1.0664,-0.9908,-0.9581,-0.9368,-0.9368,-0.9368,-0.9364,-0.9364,-0.9364,-0.9364,-0.9364,-0.9368,-0.9368,-0.9372,-0.9372,-0.9372,-0.9482,-0.9585,-0.979,-0.9559,-0.9127,-0.8575,-0.8806,-0.8709,-0.7928,-0.7257,-0.7371,-0.6475,-0.5919,-0.5695,-0.6031,-0.6142,-0.5808,-0.6144,-0.6707,-0.7152,-0.7485,-0.8156,-0.8513,-0.832,-0.8003,-0.8242,-0.8482,-0.8706,3.9265,3.9104,3.9337,3.9424,3.9424,3.961,3.992,4.0638,4.1674,4.252,4.3317,4.4589,4.5833,4.643,4.7088,4.7572,4.7715,4.8035,4.7897,4.7656,4.8114,4.8267,4.8212,4.8198,4.9083,4.8977,4.8571,4.8729,4.9102,4.8274,4.7319,4.6704,4.641,4.657,4.693,4.7815,4.8913,4.9852,4.9712,4.8243,4.1578,3.6844,3.0999,2.5228,1.9743,1.7267,1.3735,0.7703,0.4142,0.0315,-0.3528,-0.6084,-0.8649,-1.065,-1.0337,-0.8709,-0.9911,-1.0458,-1.0462,-1.1021,-1.2018,-1.2243,-1.3214,-1.3332,-1.3906,-1.3696,-1.3136,-1.346,-1.3043,-1.1105,-1.0887,-1.1319,-1.0996,-1.121,-1.1214,-1.1647,-1.186,-1.186,-1.186,-1.186,-1.186,-1.186,-1.186,-1.186,-1.186,-1.1864,-1.1755,-1.1755,-1.1647,-1.1755,-1.1864,-1.1324,-1.0785,-0.9809,-0.904,-0.7928,-0.7371,-0.782,-0.8152,-0.7587,-0.7476,-0.8152,-0.8045,-0.7371,-0.7604,-0.8174,-0.8618,-0.8664,-0.8664,-0.8811,-0.8977,-0.9007,-0.925,-0.9493,-0.9843]}]]